GEFSCGP_500_meanwind_000.txt.gz
Wind_Speed
31 29 27 31 34 35 37 36 33 30 32 27 23 22 17 16 19 20 19 23 25 25 23 23 22 21 20 17 16 17 17 19 20 19 18 18 20 20 19 21 17 13 12 13
31 30 30 30 31 32 33 32 30 25 27 26 23 19 17 16 20 23 21 25 25 24 23 23 24 23 21 19 18 18 18 18 17 18 18 20 23 23 21 20 21 18 17 17
34 26 28 30 31 30 31 31 30 29 28 29 22 19 21 21 24 27 25 26 25 24 24 25 24 25 22 20 19 19 20 18 18 20 21 23 25 24 21 21 23 22 23 23
21 22 22 23 26 28 23 25 27 29 29 25 23 23 23 25 28 27 24 24 25 25 26 27 27 25 23 22 21 21 20 20 21 22 24 28 28 24 21 21 22 23 27 28
21 18 18 16 16 21 24 21 18 21 22 22 23 24 23 26 29 24 23 24 26 26 27 28 28 25 23 23 23 22 20 20 22 22 25 26 23 21 22 24 25 26 28 28
24 23 18 16 15 20 26 27 27 27 26 25 22 25 25 25 25 24 24 24 25 26 29 29 28 27 25 24 23 24 21 20 21 22 21 19 18 18 22 27 29 28 28 27
24 24 21 20 22 24 26 27 28 28 28 25 22 24 24 23 26 25 24 24 25 27 30 31 29 27 27 27 26 27 25 22 21 19 17 16 17 18 19 23 27 26 23 23
27 26 27 27 29 29 27 27 28 26 26 26 25 24 24 23 25 25 25 25 27 30 29 28 26 26 27 27 27 28 29 28 24 19 16 16 17 17 18 20 21 21 19 16
29 27 29 31 30 29 29 29 26 28 28 28 26 26 27 26 24 26 27 28 30 31 28 26 26 25 24 25 26 25 26 26 22 18 18 17 17 16 17 17 16 16 14 12
27 29 29 31 33 29 30 30 29 30 31 32 30 29 30 29 28 29 30 30 30 29 26 25 24 25 26 25 24 24 23 22 20 19 17 17 17 17 18 19 17 15 14 13
26 27 28 32 32 30 29 29 28 29 31 32 33 31 31 31 31 31 31 28 27 27 24 24 24 26 28 25 24 25 22 20 18 18 17 16 15 16 17 19 19 17 14 13
25 26 27 29 34 34 33 32 29 30 33 35 34 30 25 26 28 28 27 27 27 27 23 23 24 25 28 26 24 23 20 19 17 16 16 17 17 19 20 20 20 20 18 15
26 24 28 29 33 36 37 37 37 33 34 33 33 29 24 24 27 24 24 26 28 25 23 23 24 27 28 27 24 21 18 17 16 15 16 19 21 23 24 24 22 21 20 19
26 22 20 17 24 41 37 34 34 35 35 36 37 34 28 26 25 23 24 27 28 25 23 23 25 28 29 28 25 20 17 15 15 16 18 20 23 25 25 24 23 23 22 21
23 24 22 17 12 15 17 25 31 36 38 40 34 32 27 24 27 30 29 25 24 27 26 25 26 29 30 27 23 19 17 18 19 21 22 22 23 23 24 25 24 23 23 23
20 22 19 17 17 16 14 18 22 25 32 35 32 26 24 30 33 33 31 28 27 28 29 29 31 33 28 22 19 19 20 23 25 26 26 25 24 25 25 25 25 23 23 24
19 18 18 15 14 13 7 12 15 17 19 23 24 18 23 28 29 29 30 30 31 32 31 30 30 26 21 20 20 22 25 26 27 28 27 26 25 25 25 25 25 25 26 27
23 21 19 15 17 13 14 14 15 16 18 21 20 17 19 22 22 19 22 27 29 28 27 22 17 17 19 21 23 24 26 26 26 26 27 28 28 26 26 28 28 28 27 27
23 23 20 14 12 14 16 14 13 14 10 3 5 7 6 7 12 13 14 13 13 13 12 11 14 16 18 20 21 23 24 26 27 27 28 29 28 27 28 28 28 27 27 26
20 19 19 14 13 12 12 14 12 8 5 8 7 8 9 9 6 7 7 7 6 6 9 12 15 17 18 19 19 20 22 25 26 27 28 29 30 29 29 29 29 29 29 29
22 19 16 14 13 14 14 14 14 11 9 11 9 8 8 9 7 6 7 6 6 8 10 13 15 15 15 17 18 21 23 25 26 26 25 26 28 29 29 27 29 30 31 30
22 21 18 14 14 15 16 19 19 14 15 14 10 7 6 6 6 4 3 5 7 10 13 14 14 14 16 18 19 21 23 24 24 23 22 21 22 23 25 26 27 28 31 32
25 26 18 19 20 20 22 24 21 20 18 13 10 8 7 5 4 2 3 5 9 12 14 14 14 15 16 16 18 20 20 21 22 20 17 17 18 19 21 23 25 27 28 30
30 34 25 14 20 25 24 23 24 20 17 13 10 7 5 4 2 3 4 6 11 14 13 13 13 14 14 16 18 18 18 19 18 17 16 15 12 12 16 20 22 23 23 24
33 39 32 19 18 20 25 26 25 22 18 14 10 6 5 6 3 1 3 8 11 11 10 11 12 12 14 16 18 17 17 17 16 15 14 11 8 9 15 21 24 20 15 17
29 36 34 27 25 27 31 25 25 23 19 14 12 9 8 6 4 4 5 8 9 9 9 10 10 11 14 16 17 18 18 16 15 13 11 9 8 10 14 19 23 21 10 1

GEFSCGP_500_meanwind_006.txt.gz
Wind_Speed
33 35 37 38 39 39 38 37 34 33 33 32 31 30 27 26 24 22 21 20 21 22 20 19 20 21 21 21 22 23 24 25 25 24 22 22 21 22 24 22 20 22 22 21
34 35 35 36 36 35 33 32 32 32 33 32 31 31 30 27 25 24 22 21 22 23 23 22 23 22 21 23 25 25 25 25 25 25 25 24 24 24 25 25 24 24 25 24
29 33 36 37 34 31 30 31 32 32 31 29 29 28 28 27 26 26 24 22 23 24 25 25 24 22 22 25 27 26 26 27 27 28 28 28 28 29 30 30 30 28 28 27
28 30 31 32 31 30 32 34 34 34 32 32 30 29 27 27 27 27 26 24 25 25 26 25 25 23 24 25 27 27 29 30 29 30 31 31 31 32 32 31 31 30 29 28
25 25 26 26 28 30 33 34 33 33 33 32 30 30 28 27 28 27 27 27 27 26 26 26 25 25 25 27 29 30 32 31 31 31 31 32 32 33 33 31 30 28 27 27
23 24 25 26 27 28 29 29 29 29 30 29 26 27 25 23 24 24 26 27 26 24 24 24 24 25 26 28 30 30 30 30 30 30 30 31 32 32 31 29 27 25 24 24
22 25 27 28 29 30 29 28 28 28 27 27 27 27 25 23 22 22 23 24 23 22 23 23 24 26 27 29 29 29 29 29 29 28 28 28 29 30 28 26 24 22 21 21
22 24 28 29 30 30 30 29 28 29 29 29 28 27 26 25 25 24 22 21 21 21 22 23 25 27 28 29 29 29 29 28 28 27 26 25 24 25 25 23 21 18 16 15
23 23 25 26 26 27 29 30 31 31 31 30 29 27 26 26 26 24 22 21 21 21 22 24 26 27 27 28 27 26 26 27 27 26 26 24 22 21 22 21 18 16 14 13
26 25 23 23 23 24 25 27 29 30 32 32 32 32 28 26 26 25 24 23 23 23 24 25 27 27 26 27 26 24 23 25 27 26 25 23 20 19 19 17 15 14 13 14
26 25 23 23 24 24 25 27 29 30 31 30 30 31 28 23 22 22 24 25 26 26 25 25 25 25 25 26 25 22 22 25 26 25 23 21 19 17 16 15 13 12 12 14
24 24 24 24 25 26 27 28 29 30 30 28 28 28 26 21 21 23 25 27 28 28 26 25 24 23 23 25 25 23 23 25 26 24 21 19 18 17 17 16 15 13 13 14
23 23 23 23 24 26 27 29 30 30 31 33 32 29 25 22 24 27 29 31 30 27 25 24 23 23 25 25 24 22 24 26 26 23 20 18 18 18 19 19 19 18 17 17
22 22 23 22 22 22 22 24 30 32 31 32 33 33 31 30 30 31 31 29 28 25 23 22 22 25 25 25 25 25 26 27 25 22 21 20 20 21 21 22 22 22 21 20
22 22 24 23 22 20 18 16 18 25 30 33 34 35 33 34 35 35 34 32 29 25 24 23 24 24 24 24 26 27 28 26 23 22 22 23 23 23 23 23 23 23 23 22
22 21 24 23 22 19 17 18 17 17 21 25 26 28 30 31 31 31 32 32 29 27 27 27 27 27 25 25 26 27 25 23 22 22 23 24 23 23 22 21 20 21 22 22
22 20 20 21 20 16 16 15 14 15 15 16 18 21 23 25 25 24 25 27 28 29 29 28 27 26 25 25 24 23 21 20 21 22 23 23 23 24 23 22 21 21 22 23
21 17 16 16 15 13 13 11 9 9 11 12 15 18 17 16 15 16 17 19 20 21 22 22 21 20 20 19 19 19 19 20 21 22 23 23 24 25 25 25 24 23 23 24
18 11 10 12 14 12 13 13 11 9 9 10 11 12 10 7 6 8 10 12 12 12 11 9 9 11 13 16 17 18 19 20 20 21 23 25 26 26 25 25 25 24 24 24
16 7 9 12 14 14 16 16 14 12 12 9 8 6 4 3 4 5 7 7 7 7 6 6 8 11 14 16 16 17 18 19 21 22 24 24 24 24 23 22 22 22 23 23
15 9 12 14 15 16 17 20 18 17 16 14 11 7 4 4 4 5 5 6 7 7 8 9 11 13 14 15 15 16 17 18 20 21 22 22 22 21 20 18 17 18 19 21
15 13 17 18 17 17 17 23 25 21 18 17 14 9 7 6 5 4 5 6 7 9 11 11 12 11 12 12 13 14 16 18 19 20 20 19 18 18 16 15 14 15 17 19
16 12 17 22 21 18 13 23 27 23 21 19 14 11 9 6 5 4 4 5 7 10 12 12 10 9 9 10 11 13 15 16 17 18 17 15 14 13 12 12 14 16 20 24
18 12 14 22 25 21 14 19 25 23 22 19 14 11 10 7 5 3 3 5 8 10 10 9 8 8 8 9 11 14 15 16 15 14 13 12 11 10 12 14 17 21 25 27
20 13 11 18 24 23 15 17 23 25 24 19 13 11 10 7 5 2 3 6 9 10 9 7 7 7 8 10 12 14 14 14 13 12 11 10 10 11 14 16 18 20 22 21
22 14 9 13 21 24 18 15 19 25 26 18 13 11 9 6 3 2 3 6 10 11 11 9 8 8 8 10 11 12 13 13 13 11 10 10 10 11 12 13 15 17 17 16

GEFSCGP_500_meanwind_012.txt.gz
Wind_Speed
33 34 35 37 38 38 38 39 40 40 40 39 36 35 34 32 33 33 30 28 28 28 28 27 23 21 19 19 20 20 19 20 20 21 21 21 23 23 23 24 25 25 24 25
31 35 38 39 38 38 40 41 43 44 44 45 43 41 37 33 32 32 31 29 28 27 29 29 24 21 20 19 20 20 20 21 21 22 22 22 24 24 24 25 25 26 27 27
30 33 36 37 38 39 40 41 41 40 39 41 42 37 33 30 29 30 30 29 28 29 30 31 25 22 22 20 20 20 20 21 22 22 22 23 23 24 25 26 27 28 29 29
25 31 32 33 34 36 37 38 38 36 35 34 33 34 28 27 27 28 28 29 28 29 30 32 27 24 23 22 21 20 21 21 21 21 22 23 23 25 27 28 29 30 31 30
24 29 32 32 33 36 36 35 34 33 32 31 29 31 27 26 26 25 25 28 28 27 29 31 28 25 24 23 21 20 20 20 20 22 23 24 26 28 30 30 30 31 31 30
19 24 29 30 31 34 35 34 33 31 31 31 29 29 27 26 25 24 23 24 28 28 28 30 28 26 24 22 20 20 20 21 22 23 24 26 27 29 29 30 30 30 29 28
15 18 25 28 27 27 30 30 30 29 28 27 26 25 24 24 23 22 21 23 23 25 26 26 24 23 21 19 18 19 20 22 23 25 26 27 28 28 28 28 28 27 26 25
21 18 24 27 24 23 24 26 26 28 27 24 21 19 17 20 22 22 21 22 22 21 20 19 19 19 18 18 19 20 21 22 24 25 26 26 26 26 26 25 25 24 22 21
25 23 25 28 27 25 23 22 23 27 28 27 25 20 18 18 19 21 22 22 22 20 17 16 16 17 17 18 20 21 22 22 23 24 24 25 24 23 23 22 22 21 19 18
30 30 26 28 29 28 26 23 22 24 25 24 22 21 21 20 18 16 15 17 18 17 16 17 18 17 17 19 21 23 22 21 21 22 23 22 22 22 21 20 19 18 17 17
33 35 29 24 23 25 23 23 25 25 25 22 18 18 20 20 18 14 13 15 17 17 17 17 18 16 17 19 20 21 21 21 21 21 21 22 23 23 21 19 17 16 16 16
37 37 31 21 22 24 23 21 20 22 23 24 23 20 20 21 16 13 15 17 18 18 19 19 20 20 19 20 20 21 21 21 21 21 22 22 23 24 23 20 18 16 16 16
40 37 29 20 20 22 23 24 25 26 25 24 25 26 26 26 27 25 22 19 16 16 17 19 20 19 20 21 20 20 21 22 22 22 24 25 26 25 24 21 19 18 18 18
39 32 25 20 18 18 15 15 19 21 22 22 24 26 27 28 28 28 24 17 17 18 19 20 20 19 19 20 19 20 23 23 23 24 26 27 27 25 23 21 20 20 20 19
36 29 21 17 14 14 11 10 10 13 16 17 20 22 22 21 21 22 23 22 20 21 23 23 22 20 20 20 21 22 24 26 25 25 26 26 25 23 22 21 21 21 21 20
33 26 19 13 11 9 10 10 9 10 11 12 12 13 14 15 17 18 19 20 21 23 23 23 22 20 20 21 22 24 25 26 26 25 25 24 23 24 23 22 22 22 22 22
32 24 16 8 5 8 10 9 9 9 10 10 8 7 6 7 9 10 11 13 14 16 16 18 18 18 19 21 22 22 23 23 23 22 22 21 22 22 22 22 21 22 22 22
31 21 12 3 5 6 9 8 9 7 6 4 3 2 1 0 1 2 3 4 5 6 8 10 11 13 14 15 15 16 17 18 19 20 20 20 21 22 22 23 22 23 23 23
31 19 8 2 6 4 8 10 10 7 5 3 2 1 2 1 3 4 3 2 3 2 1 2 3 5 7 10 12 14 15 16 18 19 20 21 22 23 23 23 23 23 23 23
29 17 8 3 7 7 8 8 8 6 5 5 3 2 3 3 5 6 5 5 4 4 3 3 4 7 9 11 13 15 16 17 18 20 21 22 23 23 23 23 22 22 21 20
30 17 8 3 5 5 6 4 6 7 5 5 4 2 3 4 5 5 5 5 4 4 4 6 8 10 12 13 14 15 16 17 18 20 21 22 22 21 21 20 19 18 18 17
32 18 9 4 5 5 5 4 5 6 4 3 2 3 4 4 5 5 5 5 5 5 7 9 11 12 12 13 13 14 15 17 18 20 21 21 20 19 18 17 16 15 15 16
33 21 10 4 3 5 3 3 5 5 7 4 1 3 4 4 5 4 4 5 6 7 9 10 11 11 11 12 12 14 16 17 19 20 20 20 19 18 16 15 14 14 16 18
35 23 12 4 2 4 4 3 5 6 8 6 1 2 4 5 4 4 4 6 7 9 9 9 10 10 10 12 13 14 16 17 17 18 19 19 18 17 15 14 14 15 16 19
38 25 14 6 2 4 4 3 4 7 8 6 2 1 4 5 4 3 4 6 8 9 10 10 10 10 11 12 13 15 16 17 18 19 21 20 18 16 14 13 13 15 17 19
42 29 17 8 2 4 4 4 3 6 7 5 2 3 4 3 3 3 5 7 9 10 10 10 10 11 12 13 14 16 17 18 20 21 21 20 17 14 13 13 13 15 16 17

GEFSCGP_500_meanwind_018.txt.gz
Wind_Speed
24 27 29 30 32 34 35 37 38 38 39 39 39 39 37 37 37 38 37 38 37 34 30 28 27 25 21 19 18 18 18 18 18 18 18 17 17 17 16 16 15 14 15 16
22 25 27 30 33 35 37 40 41 42 43 44 43 42 40 39 40 39 39 39 38 35 32 30 28 26 23 20 20 20 20 20 20 20 20 19 16 15 14 15 15 15 17 18
18 22 26 29 33 36 38 40 42 43 44 45 46 44 41 41 40 39 38 37 35 34 32 30 28 26 24 22 21 22 22 22 22 21 20 18 16 14 14 15 17 18 19 20
13 17 21 25 30 34 37 40 42 44 44 44 44 44 38 38 37 36 34 33 32 30 31 30 28 28 27 25 24 25 25 24 23 23 20 18 16 15 16 17 19 20 21 22
10 15 19 22 26 30 34 36 38 40 41 41 39 41 36 35 35 33 32 30 29 29 30 30 29 29 29 28 28 28 27 25 23 21 19 18 17 18 19 20 21 22 22 23
14 18 22 24 27 30 32 33 34 34 33 33 30 32 30 30 30 29 29 28 28 27 28 29 29 29 30 31 31 30 27 24 21 20 18 17 18 20 21 21 22 22 23 23
17 22 27 30 32 33 35 35 35 33 29 26 23 24 24 25 26 26 27 26 26 27 27 28 27 28 29 31 32 28 25 22 20 18 17 18 20 21 21 21 21 22 22 23
22 25 30 34 36 37 36 35 34 33 28 23 20 21 21 21 21 21 22 23 23 23 23 24 25 26 27 28 28 24 22 18 16 16 17 19 21 22 21 21 21 21 21 22
30 32 34 37 39 39 37 35 34 33 29 25 22 21 23 23 21 19 20 20 21 21 22 22 22 23 24 23 22 19 17 15 15 16 19 20 21 21 21 21 21 20 20 20
37 40 40 41 40 40 38 35 32 31 29 24 21 22 22 20 22 21 21 21 20 21 23 24 26 26 25 22 19 16 14 15 16 18 20 21 21 21 20 21 21 21 20 19
43 44 43 40 36 31 29 29 29 28 27 25 22 21 20 19 20 21 21 21 22 23 24 25 25 24 20 15 13 12 12 14 17 19 21 21 22 21 21 21 21 21 21 20
44 42 37 30 24 19 17 18 21 24 25 25 23 21 19 16 14 15 17 20 18 17 16 14 14 14 11 9 9 10 13 16 19 21 21 21 22 21 21 22 22 22 21 21
42 36 29 20 15 13 11 11 13 14 15 18 18 16 15 14 12 9 10 12 13 9 9 8 5 5 6 7 10 12 15 18 20 22 22 22 22 21 21 22 22 22 21 20
36 29 24 19 12 8 5 4 6 7 9 11 12 11 12 11 11 10 9 8 8 7 7 7 7 7 8 10 12 15 17 19 20 21 22 23 22 19 18 19 19 20 19 19
31 24 19 14 9 6 5 3 4 7 6 6 6 6 7 7 7 7 7 7 6 8 10 10 11 11 12 12 14 16 18 19 20 22 23 24 21 17 16 17 18 19 19 19
28 22 17 11 8 8 8 9 9 9 7 5 4 3 3 3 3 3 4 4 5 6 8 9 11 12 13 13 15 16 17 19 20 22 23 22 19 16 16 18 19 20 20 20
26 21 16 12 10 10 10 10 10 9 9 7 6 6 4 3 2 0 0 1 2 3 5 6 8 10 10 11 12 13 15 16 17 18 19 19 17 17 18 18 20 21 22 22
25 20 16 13 12 12 11 11 10 11 10 11 12 10 9 8 6 5 4 3 2 1 2 3 3 4 5 7 8 9 11 13 14 16 17 17 18 18 19 20 21 22 22 22
24 18 15 13 14 13 12 12 12 13 12 12 12 11 10 10 9 9 8 7 5 5 4 3 1 1 3 5 7 10 12 14 15 16 17 17 18 19 19 20 21 21 21 21
24 19 15 14 13 14 13 13 13 13 13 12 12 12 11 10 10 10 9 8 6 5 4 2 1 3 5 7 9 11 12 14 14 15 16 16 17 18 18 19 20 20 20 20
24 19 16 15 14 14 14 13 13 13 13 12 11 11 11 11 11 11 10 8 7 5 4 3 4 6 7 8 10 11 13 14 15 16 16 17 17 18 19 19 20 19 19 18
24 20 16 15 14 14 13 12 13 13 13 12 11 10 11 11 12 11 10 9 8 7 6 7 7 8 9 10 11 13 14 15 16 17 17 17 18 19 19 19 18 18 17 17
22 18 15 13 12 11 11 11 11 11 11 10 9 9 10 11 11 10 10 9 9 9 10 10 10 10 11 12 12 13 15 16 17 17 18 18 19 19 19 18 17 16 16 17
22 16 13 12 11 9 9 9 9 9 9 8 8 8 9 9 9 9 9 10 10 11 11 11 12 12 13 14 14 15 16 17 18 18 18 18 18 17 16 15 15 15 16 17
26 16 11 10 10 9 8 6 7 7 6 7 7 8 8 8 8 8 9 10 11 12 12 12 13 14 15 15 15 15 16 16 16 16 16 16 15 14 13 13 13 14 15 17
31 20 11 8 9 8 7 6 6 6 5 5 6 6 6 6 6 7 8 9 11 12 13 14 14 15 15 15 16 17 17 16 15 15 14 13 13 12 12 12 13 13 14 15

GEFSCGP_500_meanwind_024.txt.gz
Wind_Speed
23 25 27 29 31 33 35 36 37 38 39 40 40 39 38 40 41 40 40 38 36 34 32 31 29 28 26 26 26 25 25 24 23 22 21 20 19 18 17 17 18 18 19 18
20 23 25 26 29 31 33 35 37 39 40 41 41 41 41 43 44 44 43 42 40 38 36 33 31 29 28 28 27 27 27 27 26 25 23 22 21 20 20 19 19 19 19 19
18 20 22 25 28 30 32 34 36 38 40 41 42 41 42 44 45 46 45 45 43 41 39 36 34 32 30 30 28 28 29 30 29 28 26 25 24 23 22 21 20 20 20 20
16 19 22 24 27 30 32 34 35 36 37 38 38 39 38 40 42 43 44 44 43 41 39 36 34 32 31 30 30 31 32 33 33 31 32 29 27 25 23 21 21 22 22 22
18 21 24 27 29 32 34 35 36 36 36 37 35 37 35 35 36 37 39 40 40 39 37 36 34 33 32 32 32 34 36 36 35 36 34 31 28 25 23 22 22 22 22 23
23 27 30 33 36 38 40 40 41 40 39 38 35 35 35 33 32 32 33 34 35 35 34 34 35 34 34 34 34 35 37 38 38 40 36 32 28 24 21 21 21 22 22 23
30 34 38 40 41 42 43 44 44 43 41 38 35 34 33 31 29 28 28 29 30 31 32 33 35 35 36 36 36 37 39 40 41 41 35 30 24 21 19 20 20 21 22 23
36 40 42 43 44 45 45 44 42 42 40 37 34 32 30 28 26 25 26 26 27 29 31 33 34 35 36 36 37 39 41 39 39 38 30 24 20 18 18 18 20 21 22 23
41 42 44 45 45 44 42 40 39 38 37 33 30 28 26 25 24 23 24 24 25 26 29 31 32 34 36 35 36 37 38 37 35 28 21 18 17 17 17 18 19 21 22 23
42 42 40 38 36 34 32 28 25 24 24 23 22 19 18 20 20 21 22 22 23 25 26 28 30 31 31 33 33 32 32 30 25 19 14 13 15 16 18 19 20 22 23 24
38 35 32 29 28 25 22 18 15 13 13 14 14 14 12 13 13 15 16 18 19 21 22 24 26 28 28 27 27 24 20 18 14 12 12 12 14 17 19 20 21 23 24 25
33 29 25 23 23 20 17 12 8 5 6 8 7 6 7 9 8 9 10 10 12 14 16 15 16 17 16 15 15 13 9 8 8 9 10 12 15 18 20 22 23 24 25 26
30 26 23 21 19 17 14 10 5 2 2 3 3 1 3 3 4 4 3 2 2 4 6 5 4 4 5 7 7 7 7 7 7 10 13 15 17 19 20 22 23 24 24 25
28 26 23 22 21 19 15 12 10 10 10 9 7 5 3 2 1 1 3 4 5 5 4 3 3 5 6 7 7 7 7 8 10 12 15 18 19 20 20 21 22 22 22 23
26 25 23 22 21 19 18 17 15 13 13 12 12 10 7 6 6 6 7 7 7 7 6 5 5 6 6 5 5 6 7 10 12 15 16 18 18 18 18 18 18 18 19 20
25 24 22 22 20 18 17 17 17 17 16 15 14 13 10 9 9 8 8 8 8 7 7 6 5 3 3 4 5 7 9 11 12 14 15 16 16 16 15 15 16 17 18 20
24 24 22 20 19 18 18 17 17 17 16 15 15 14 13 11 11 10 10 11 10 9 7 5 3 1 1 2 4 5 7 9 10 12 13 15 15 15 15 16 16 17 19 20
23 23 22 20 19 18 17 17 16 16 16 15 14 14 14 12 13 13 13 14 13 11 9 7 5 4 4 3 4 6 7 9 11 13 14 16 16 17 17 18 18 18 19 20
22 21 21 19 18 17 17 16 15 15 15 14 14 13 13 13 13 14 15 15 14 13 11 9 8 7 6 6 6 7 8 10 11 13 14 16 16 17 18 18 19 19 19 20
20 20 19 18 16 16 15 15 15 15 15 14 13 13 13 13 14 14 14 14 14 12 11 10 9 8 8 8 8 9 10 11 13 14 15 16 17 18 18 19 19 19 19 20
18 19 18 17 16 16 15 14 14 14 14 14 13 13 13 14 14 13 13 13 12 12 11 10 10 9 9 9 10 10 11 13 14 16 17 17 18 18 19 20 20 20 19 19
16 15 16 16 15 14 14 13 13 13 13 13 12 12 12 12 12 12 12 12 12 12 12 12 11 12 12 12 13 14 14 15 16 17 17 18 18 19 19 19 19 18 18 18
16 13 14 14 13 13 13 12 12 12 11 11 10 10 10 10 10 11 12 12 13 14 14 14 14 14 15 16 16 17 17 17 17 17 18 18 18 18 18 17 17 16 16 15
18 14 12 12 12 12 11 11 11 11 10 9 8 7 7 7 8 10 11 12 13 14 15 15 15 16 16 17 17 18 18 18 18 17 17 17 17 17 16 16 15 15 14 13
21 15 12 11 10 10 9 9 9 9 8 7 6 5 5 5 7 8 10 12 13 14 15 16 16 17 17 17 18 18 18 18 18 18 17 17 17 17 16 16 15 14 13 13
24 18 13 10 10 9 8 7 7 7 6 5 5 4 4 5 5 7 9 11 12 14 15 16 16 16 17 17 17 17 17 18 18 18 19 19 19 19 18 18 17 16 15 14

GEFSCGP_500_meanwind_030.txt.gz
Wind_Speed
20 23 25 26 28 31 33 34 36 38 39 39 40 41 41 41 41 41 40 39 38 37 36 36 35 34 33 32 30 28 27 27 27 27 27 26 26 25 25 25 25 25 25 24
19 22 24 26 29 31 33 35 37 39 40 40 41 42 43 42 43 42 42 41 40 40 39 39 39 38 37 35 33 32 30 30 30 30 31 31 29 29 29 29 28 28 28 27
19 21 24 27 29 32 35 36 38 39 40 40 41 41 42 41 41 41 41 40 39 39 39 39 40 40 40 39 38 36 35 34 34 34 36 36 35 33 33 33 32 31 31 29
20 23 26 29 32 34 37 38 39 40 40 40 40 40 41 39 39 39 38 37 36 35 35 36 37 39 39 40 40 40 39 38 37 37 38 40 41 39 37 36 34 33 32 30
23 26 29 32 35 37 40 41 41 41 42 41 40 39 38 38 37 37 36 35 35 34 33 33 34 35 38 40 41 42 42 41 40 40 40 43 44 43 41 38 36 34 33 31
27 29 32 35 38 39 40 41 42 42 42 42 39 37 38 38 35 35 35 35 34 34 33 33 33 33 35 38 40 42 43 43 42 42 42 45 46 45 43 40 38 37 34 31
29 30 31 33 35 36 36 36 36 35 34 34 34 35 38 37 35 34 33 34 33 33 33 33 33 33 35 37 39 41 43 43 43 43 44 46 48 47 44 44 40 37 34 31
27 29 30 31 31 32 32 29 27 26 24 23 24 26 29 29 29 29 29 29 29 30 30 31 32 33 35 36 37 39 41 42 42 43 43 44 45 45 43 40 37 33 31 28
27 28 29 29 30 28 25 21 19 18 17 16 17 19 21 19 21 22 23 23 24 25 26 28 30 31 32 33 34 35 36 38 39 40 41 42 42 41 40 34 29 29 26 21
27 27 28 27 26 24 21 16 12 10 8 7 10 11 13 15 16 15 15 16 17 19 20 22 24 25 26 27 29 30 31 32 34 35 36 38 37 34 31 25 21 19 16 15
26 26 26 25 23 21 18 15 12 8 3 1 3 4 6 7 8 9 9 10 11 12 14 16 17 18 19 20 22 24 25 26 28 27 26 25 23 19 16 14 12 11 11 14
26 25 25 24 22 21 19 16 14 11 9 7 4 4 1 1 3 5 5 5 5 5 6 7 9 9 11 12 13 15 15 15 15 13 12 10 8 8 7 6 7 9 12 14
25 25 24 23 22 21 19 18 16 15 14 12 11 9 5 2 1 1 2 3 3 4 3 3 5 5 4 5 6 7 6 6 6 5 4 4 3 3 4 5 8 10 13 14
25 25 24 22 21 21 21 19 19 17 15 14 13 11 10 7 6 6 7 8 9 9 8 8 8 8 8 8 8 7 6 6 5 3 1 1 3 4 6 8 10 12 13 15
24 25 24 23 22 21 22 20 20 19 19 18 16 14 13 12 10 11 11 10 10 10 11 11 10 9 9 9 9 7 5 4 3 2 3 4 4 5 7 8 10 12 13 15
23 24 24 23 22 21 20 19 19 18 19 19 18 17 15 15 15 16 15 13 13 13 13 12 11 9 9 8 7 6 5 4 4 4 4 5 6 8 9 10 12 14 15 17
22 23 23 22 21 20 19 18 17 17 17 18 19 20 19 19 18 18 17 17 16 15 15 14 13 12 11 9 8 7 7 6 5 6 7 8 9 10 11 13 14 16 18 19
22 22 21 21 21 20 19 18 17 17 18 18 19 20 20 20 20 19 18 18 17 17 16 15 14 13 11 10 9 8 8 7 7 7 8 10 11 12 14 15 16 18 19 20
20 20 20 20 20 20 19 17 16 16 17 17 18 18 19 19 19 19 19 18 17 16 15 14 13 12 11 10 10 9 9 9 9 10 11 12 12 13 15 16 17 19 19 20
18 18 19 19 19 19 18 17 16 16 16 17 17 18 18 18 19 18 18 17 16 15 15 13 12 11 11 10 10 9 9 10 10 11 11 12 13 14 15 16 17 18 19 20
17 18 18 18 18 17 17 17 16 15 15 15 16 16 16 17 17 16 16 16 15 14 14 13 13 12 12 11 11 10 10 10 11 11 12 13 13 14 15 16 16 16 16 16
17 17 17 17 16 16 16 16 15 14 13 13 14 14 15 15 15 15 15 15 15 14 14 14 13 13 13 12 12 12 12 12 12 13 13 14 14 14 14 14 14 13 12 12
18 17 16 16 15 15 15 14 13 12 11 12 12 12 13 13 13 13 14 14 14 15 15 15 15 15 14 14 14 14 14 14 14 15 15 15 15 15 15 15 15 13 12 11
18 17 16 14 14 14 14 13 12 11 10 10 11 11 11 11 11 12 13 14 14 15 16 16 16 17 17 16 16 16 16 16 17 17 18 18 18 18 18 17 17 15 14 12
17 17 16 15 14 13 14 13 12 11 9 9 9 9 9 10 10 11 11 13 14 15 16 16 17 17 17 17 17 17 17 17 18 18 19 20 20 20 20 19 19 18 16 15
15 14 15 15 14 13 13 12 11 11 10 8 8 8 8 8 8 9 10 11 13 14 15 16 16 16 17 17 17 17 17 18 18 19 20 21 21 21 21 21 20 20 19 18

GEFSCGP_500_meanwind_036.txt.gz
Wind_Speed
17 19 21 22 24 25 26 28 30 32 35 38 38 38 39 41 41 41 41 41 41 41 40 39 38 37 37 37 36 36 34 32 32 31 31 30 30 29 27 25 24 24 24 25
17 19 19 21 24 26 28 30 32 34 36 38 39 39 41 40 41 42 41 42 43 42 41 41 40 39 39 40 39 39 39 37 36 35 35 35 35 33 32 29 27 26 27 27
17 20 21 23 26 27 28 31 33 35 35 37 38 39 39 40 39 41 40 41 42 41 41 40 40 39 39 39 40 39 39 39 38 37 37 37 37 37 35 34 32 30 29 30
19 19 21 24 27 27 28 31 33 34 36 36 36 36 32 37 40 41 39 40 40 39 38 38 37 37 37 37 38 38 38 39 38 38 37 38 38 39 38 37 36 34 33 32
20 20 21 23 25 27 29 31 32 33 34 34 32 32 32 34 37 38 37 37 36 35 35 35 34 33 34 34 34 35 35 36 37 37 37 38 39 40 39 39 40 38 37 36
18 18 20 22 25 28 30 30 30 30 28 26 24 23 30 34 37 38 37 36 34 33 34 33 32 32 32 33 33 33 34 35 36 37 37 37 39 40 41 41 41 40 40 40
20 20 22 23 24 26 27 27 26 21 16 17 18 22 28 33 36 37 37 36 35 35 34 33 33 32 33 33 33 33 33 34 35 36 37 38 39 40 41 41 42 43 43 42
18 21 22 23 23 25 24 24 23 19 14 13 15 19 21 25 29 33 36 36 35 35 33 32 32 32 32 33 32 33 34 35 36 36 37 38 38 40 40 40 41 42 41 39
18 19 19 21 22 23 22 21 19 16 12 11 12 16 19 21 22 23 26 30 31 30 30 31 31 30 30 31 31 31 32 33 34 35 35 36 37 37 38 38 40 39 39 37
18 17 18 20 22 22 21 21 18 14 11 9 9 12 14 15 18 18 19 19 21 23 24 26 28 28 28 29 29 29 30 30 30 30 31 31 32 33 34 34 35 36 35 34
18 18 19 19 21 22 20 20 18 15 12 9 9 11 13 14 13 13 12 12 13 14 15 16 19 22 23 24 24 25 25 25 25 25 25 26 27 27 27 27 27 28 27 26
19 18 17 18 19 21 20 19 18 17 16 14 12 13 13 12 11 8 6 5 7 9 11 11 12 13 14 16 17 17 18 18 18 18 18 19 19 19 18 17 16 15 15 13
19 19 20 21 21 20 20 20 19 18 17 16 16 16 15 13 11 8 4 2 2 2 3 2 3 4 5 7 7 7 8 8 9 8 9 9 8 8 8 7 6 5 6 6
19 20 21 20 20 18 19 20 21 21 20 19 19 18 18 15 13 11 9 8 8 7 6 5 6 7 7 6 4 3 4 5 4 3 2 1 1 1 1 1 2 3 4 6
19 20 20 19 19 19 20 21 22 22 22 21 22 22 21 19 18 18 16 14 14 13 12 11 11 11 11 12 12 11 10 9 9 8 7 6 5 5 5 5 5 5 6 7
19 19 19 20 20 19 20 21 22 22 23 23 23 23 22 23 23 23 22 20 18 18 18 17 16 15 14 14 14 13 13 11 10 9 9 8 7 7 7 6 6 8 9 11
19 20 21 21 19 19 21 21 20 20 21 22 22 22 22 22 23 23 23 23 21 21 20 19 18 17 16 15 15 13 13 12 11 10 10 9 9 9 9 9 10 11 12 13
18 20 20 20 20 21 20 19 19 19 20 20 21 22 21 21 21 22 22 21 21 20 19 18 17 16 15 15 14 13 12 12 11 11 11 11 11 11 11 12 12 13 14 15
17 18 20 20 20 19 18 17 17 17 18 19 20 20 20 20 20 21 21 20 20 19 18 18 17 16 16 15 15 14 14 13 13 13 13 13 13 12 13 13 13 14 14 15
17 17 18 19 19 19 17 16 15 16 17 17 18 18 19 19 20 20 20 19 19 18 18 17 17 17 17 17 16 16 15 15 15 15 15 15 14 14 14 14 14 14 14 14
17 17 17 18 17 17 17 15 14 15 16 16 16 17 17 18 19 19 19 18 18 18 18 17 17 17 17 17 17 17 17 17 17 17 17 17 17 16 16 16 16 16 16 15
16 17 17 17 17 16 16 15 14 14 14 14 15 15 15 16 17 17 17 17 17 17 17 17 17 17 17 17 18 18 18 19 19 20 20 20 19 18 18 18 18 18 18 17
15 16 17 17 16 16 16 16 15 14 13 13 13 13 14 14 15 16 16 16 17 17 17 17 17 17 17 17 18 18 19 19 20 21 21 21 21 20 20 20 20 19 19 18
13 14 15 16 16 16 15 15 15 14 13 12 12 12 12 13 14 14 14 15 15 16 16 17 17 17 17 17 17 18 18 18 19 20 21 22 22 22 22 22 21 21 21 20
11 12 13 14 16 16 15 15 15 14 13 12 12 12 11 11 12 12 13 13 14 15 15 16 16 16 16 17 17 17 17 18 19 20 21 22 22 23 23 23 22 22 22 22
9 10 11 12 14 15 16 15 15 15 13 11 11 11 10 10 10 10 11 11 12 13 14 14 14 15 15 15 16 16 16 17 18 19 20 21 21 22 22 23 23 23 23 24

GEFSCGP_500_meanwind_042.txt.gz
Wind_Speed
18 19 19 20 21 22 22 23 24 26 27 28 30 31 33 35 37 39 40 39 39 40 39 39 39 39 38 38 38 37 35 34 33 31 30 29 29 29 29 29 30 28 26 24
16 17 17 19 21 22 23 24 24 25 27 29 31 33 35 38 40 41 41 41 41 41 40 40 40 40 40 41 40 40 39 37 36 35 34 33 33 33 33 32 32 31 29 27
15 16 18 20 21 21 22 22 22 23 25 28 31 33 36 38 40 42 43 44 44 43 42 41 41 41 41 42 42 42 41 40 39 37 36 36 35 35 35 33 33 32 31 30
14 16 17 18 18 19 20 22 22 24 25 27 30 34 35 37 39 41 42 43 44 43 43 41 41 41 41 41 42 42 41 40 39 38 38 37 36 36 36 36 35 32 32 31
12 13 15 16 17 18 20 21 22 23 25 26 28 31 33 34 35 37 38 40 40 40 40 39 38 38 38 38 39 39 40 39 39 38 37 37 36 35 35 35 33 32 31 31
10 12 14 16 18 18 19 20 21 22 22 23 23 25 27 27 29 31 33 35 35 34 35 36 35 36 35 34 35 36 37 37 37 36 36 35 34 33 33 33 33 33 33 32
10 12 14 16 18 18 19 19 19 19 19 19 19 21 22 23 24 25 26 28 30 32 32 32 34 34 33 32 32 32 33 34 34 34 34 33 33 32 32 33 33 33 34 34
11 13 14 16 17 18 18 17 17 16 17 16 17 17 19 20 21 21 20 20 22 25 27 26 26 28 29 30 30 31 30 32 33 33 33 33 33 34 34 34 34 34 34 35
15 15 16 16 16 16 17 16 16 15 15 14 14 15 16 17 16 17 17 17 15 16 17 21 22 23 23 24 27 28 29 30 31 31 31 32 33 33 34 34 34 35 35 35
16 16 16 16 15 15 16 16 16 15 15 14 12 13 13 12 12 12 13 12 12 12 13 13 13 16 17 19 22 23 26 27 28 28 28 29 30 31 32 32 32 32 31 32
16 16 16 15 14 15 17 17 17 16 15 15 13 14 14 14 13 13 12 10 10 9 9 9 9 9 10 12 15 17 19 21 21 22 22 24 25 26 26 26 26 26 26 26
16 17 16 16 16 17 18 18 18 19 18 17 16 17 17 17 16 15 14 12 11 11 10 8 6 6 4 5 6 8 11 13 14 15 16 17 17 17 18 17 17 16 17 17
17 17 16 16 17 18 18 18 19 20 20 19 19 19 20 19 18 17 16 16 14 14 13 11 8 7 4 2 2 1 2 4 6 6 8 8 8 9 9 9 9 10 9 9
18 18 18 18 18 18 18 19 20 21 21 20 20 20 20 20 19 18 18 18 17 17 16 14 13 12 11 10 8 9 8 5 4 3 3 2 1 1 1 2 3 3 3 4
19 19 19 18 18 18 19 19 20 20 20 21 21 21 22 22 23 21 20 21 20 19 17 17 18 17 16 15 14 14 12 12 11 10 9 8 7 6 5 4 4 4 4 5
19 19 19 18 18 18 19 20 20 20 20 20 21 20 21 21 21 22 21 21 22 22 21 20 20 20 19 19 18 16 15 13 12 11 10 9 8 8 7 6 6 6 6 7
18 18 18 18 18 18 19 19 20 20 20 20 20 20 20 20 20 20 20 20 20 20 20 20 19 19 19 19 18 17 16 15 14 13 12 11 10 9 9 8 8 8 8 9
18 17 18 18 18 19 19 19 19 19 19 19 19 19 19 19 19 19 19 19 19 20 20 20 19 19 19 19 18 18 17 17 16 15 14 13 12 11 11 11 10 10 10 10
18 18 19 19 19 19 19 18 18 18 18 18 18 19 18 18 18 19 19 19 19 19 19 20 20 19 19 19 19 19 18 18 17 17 17 16 15 15 14 14 13 12 11 11
17 18 18 19 19 19 18 18 17 17 18 18 18 18 18 18 19 19 19 20 19 19 19 19 19 19 19 19 19 20 19 19 20 19 19 18 17 17 16 16 16 15 14 13
15 17 18 18 18 18 18 18 17 17 18 17 18 18 18 18 19 19 20 20 20 19 19 19 19 19 19 20 20 20 20 20 20 20 20 20 19 19 18 18 18 18 17 16
12 15 16 17 17 17 18 17 17 17 17 17 17 17 17 18 18 18 19 19 19 19 19 19 19 19 19 19 20 20 21 21 21 21 21 21 21 21 20 20 20 20 19 19
9 11 14 16 17 17 17 17 17 16 16 16 16 16 16 16 16 17 17 17 17 18 18 18 19 19 19 19 19 19 20 20 21 21 21 22 22 22 22 22 22 22 22 21
8 9 11 13 15 16 16 17 17 16 15 15 15 15 14 14 14 14 15 15 16 16 16 17 17 17 17 17 17 18 18 19 19 19 20 21 21 22 22 23 23 23 23 23
6 7 9 11 13 14 14 15 16 16 14 13 13 13 13 12 12 12 13 13 14 14 14 15 15 16 16 15 15 16 16 17 18 18 19 19 20 21 22 22 23 23 23 24
6 7 8 9 10 12 12 13 14 15 15 13 12 12 11 11 10 10 10 10 11 11 12 12 13 13 14 14 14 14 15 16 16 17 17 18 19 20 21 21 22 23 23 24

GEFSCGP_500_meanwind_048.txt.gz
Wind_Speed
19 20 22 23 24 25 26 27 28 29 29 30 30 31 32 33 34 36 37 38 39 41 42 43 44 44 44 45 44 43 41 39 39 39 37 35 34 32 31 29 28 27 27 28
19 20 22 22 23 23 24 26 26 27 28 29 29 30 31 33 35 36 37 39 40 41 43 44 45 46 46 46 46 46 44 44 42 41 41 39 37 35 34 32 31 30 30 30
18 19 20 20 21 22 22 23 24 25 27 28 30 31 33 33 35 36 38 39 40 41 43 44 46 47 48 48 47 46 45 45 45 44 42 41 40 39 37 36 34 33 33 32
16 17 17 18 18 19 20 21 23 25 27 28 29 32 32 33 34 35 37 38 39 40 41 42 43 44 45 45 45 46 44 43 43 43 42 41 41 39 39 38 37 36 35 34
14 14 15 16 17 19 20 22 23 24 26 27 28 30 30 30 31 33 35 36 37 37 38 38 38 39 41 41 41 42 42 41 40 40 40 40 39 39 38 38 38 38 37 35
12 13 14 15 17 18 20 20 21 23 24 24 25 26 27 27 28 29 30 32 32 33 32 31 32 33 34 35 36 36 36 37 37 37 37 38 38 36 36 36 36 36 35 35
11 13 14 15 17 17 18 20 21 22 22 22 22 23 23 23 24 25 24 24 25 25 25 25 24 24 24 26 27 28 29 29 31 32 33 34 35 34 33 33 33 33 33 32
11 12 13 14 16 16 17 18 19 20 20 19 19 19 20 21 21 20 20 19 19 18 19 18 18 18 16 16 18 20 22 22 25 26 28 29 30 30 30 30 30 30 30 30
10 11 12 14 15 15 16 17 18 17 16 16 15 16 18 19 18 18 18 17 16 14 13 12 13 11 10 10 10 12 16 17 20 21 22 22 23 25 26 27 28 28 29 30
11 12 13 14 14 15 16 17 16 15 15 15 15 16 16 16 16 16 17 16 16 14 12 12 12 10 8 7 5 7 9 10 12 15 17 17 18 20 22 23 24 26 27 28
12 13 14 15 16 16 16 16 16 15 16 16 16 16 16 15 16 16 17 17 16 15 14 13 12 11 9 7 6 5 3 3 5 8 10 12 14 15 16 18 20 21 23 24
13 14 15 15 16 16 16 16 16 16 16 16 16 16 16 16 16 17 17 18 18 17 16 15 14 13 10 9 8 7 6 4 2 2 4 6 8 10 11 12 14 16 17 18
14 15 15 16 16 17 17 17 17 17 17 18 17 17 16 16 17 17 18 19 19 19 19 17 16 15 14 13 12 11 10 9 7 6 4 2 2 3 5 7 8 9 11 12
15 16 16 17 17 18 18 17 17 18 18 18 18 18 18 17 17 17 18 19 21 21 21 20 19 18 18 18 17 16 14 13 12 11 10 8 7 6 5 5 5 6 6 7
16 16 17 17 17 18 18 18 18 18 18 18 18 18 18 18 18 18 19 20 21 22 21 21 21 21 20 19 19 19 18 17 15 14 14 13 11 10 9 8 7 7 6 6
16 16 17 17 17 18 18 18 18 19 19 18 18 18 18 19 19 19 20 20 21 22 23 22 21 21 21 20 19 19 19 18 17 16 16 15 14 13 13 11 10 9 9 8
16 17 17 17 17 17 18 18 18 18 18 18 19 19 18 18 19 19 20 20 21 22 23 23 23 23 22 22 21 21 20 19 18 18 17 16 16 15 15 14 13 12 12 11
15 17 17 17 17 17 17 17 18 18 18 18 18 18 18 18 19 19 20 21 21 21 22 22 22 22 21 21 21 21 21 21 20 19 18 18 17 17 16 15 15 14 14 14
14 15 17 17 17 17 17 17 17 17 17 17 17 18 18 18 18 18 19 20 20 20 21 21 21 21 21 21 21 21 21 22 22 21 20 20 19 19 19 18 17 17 17 16
12 13 15 16 17 17 17 16 16 16 16 16 16 16 16 16 17 17 18 18 19 19 19 20 20 20 21 21 21 21 22 22 22 22 22 22 21 21 21 21 20 20 19 19
10 11 13 14 15 16 16 15 15 15 15 14 15 15 15 15 15 16 16 17 17 17 18 18 19 19 20 20 20 20 21 21 22 22 22 22 22 22 22 22 21 21 21 21
8 9 11 12 13 14 15 14 13 13 13 13 13 13 13 13 13 14 14 15 16 16 16 17 17 17 18 18 19 19 19 20 20 21 21 21 22 22 22 22 22 22 22 22
6 7 9 10 11 11 13 13 12 11 12 12 11 11 11 11 12 12 13 14 14 15 15 15 15 16 16 17 17 18 18 19 20 20 21 21 22 22 22 23 23 23 23 23
6 6 7 8 9 9 10 11 11 10 10 10 10 10 10 10 10 10 11 12 12 13 14 14 14 14 15 15 16 17 18 18 19 20 21 21 21 21 22 22 23 23 23 23
7 7 7 7 7 7 7 8 9 9 8 8 8 9 8 8 8 8 9 10 10 11 12 13 13 13 13 14 15 15 16 17 18 19 20 21 21 21 21 22 23 23 23 24
8 8 7 7 7 6 6 6 7 7 7 6 6 6 7 7 7 7 7 8 8 9 10 11 11 12 13 13 13 14 15 16 17 18 19 20 21 21 21 21 22 22 23 23

GEFSCGP_500_meanwind_054.txt.gz
Wind_Speed
18 19 20 21 23 24 25 27 28 28 28 28 28 29 29 30 31 32 34 35 37 38 39 40 41 42 44 46 46 47 48 48 48 47 46 44 44 43 42 39 37 36 34 33
18 19 20 21 22 24 25 26 26 26 26 27 27 28 28 29 30 31 33 34 35 37 38 39 39 41 42 44 45 45 46 48 49 49 49 48 47 47 45 43 40 37 35 35
16 17 19 20 22 23 23 24 24 25 25 25 27 28 27 28 29 31 32 32 32 33 35 37 37 38 39 40 40 42 43 45 46 48 48 48 48 48 46 44 42 39 35 33
15 16 18 20 21 21 21 22 24 25 25 25 25 28 27 28 29 29 29 29 30 31 32 33 33 33 35 36 36 37 39 41 43 44 45 45 45 45 45 45 42 40 38 36
13 15 17 18 18 19 20 22 22 22 23 23 23 25 26 25 26 26 26 27 27 28 28 27 27 28 28 29 31 32 35 37 39 40 41 42 42 42 42 42 41 39 38 37
13 14 14 16 17 18 19 19 19 19 20 21 21 21 22 21 21 21 22 22 22 23 24 24 23 22 22 23 25 26 28 30 32 33 35 36 37 38 38 38 38 37 36 36
11 11 13 14 16 16 17 17 18 19 19 18 18 18 17 16 17 17 18 18 18 19 19 18 17 17 17 17 17 19 20 21 23 25 27 29 31 31 32 33 34 34 34 33
9 10 13 14 15 16 15 16 17 17 18 17 16 15 15 15 15 16 16 17 16 16 16 15 15 14 14 12 12 12 12 13 14 16 18 20 23 25 25 27 29 29 30 31
9 11 13 14 15 15 14 14 15 15 15 14 14 14 14 14 15 15 16 17 16 15 14 13 14 13 12 10 9 9 9 8 8 10 12 13 17 18 19 21 24 26 28 28
9 11 13 14 14 15 15 15 15 15 14 14 13 13 13 14 14 15 16 16 16 14 14 14 15 14 12 11 10 9 8 6 4 4 5 7 10 13 14 15 18 21 24 25
10 12 13 14 15 16 16 15 15 15 15 13 13 13 12 13 13 14 15 16 16 15 15 15 16 16 14 13 12 11 11 10 7 5 1 2 4 7 10 11 14 17 19 21
11 13 14 15 16 16 16 16 16 16 16 14 13 13 13 13 14 15 16 16 16 16 16 17 17 18 18 16 15 15 14 12 12 11 8 5 2 2 4 6 8 11 14 17
13 13 14 15 17 17 17 17 17 16 16 15 15 14 14 15 16 16 17 17 17 17 18 19 19 19 19 19 19 18 17 16 15 13 11 8 6 3 1 2 4 6 9 11
14 14 15 16 17 17 17 17 17 17 17 16 16 15 15 16 17 18 18 19 19 19 20 20 20 20 20 20 19 18 18 17 16 15 14 12 10 8 7 4 2 1 2 5
14 15 16 16 16 17 17 17 17 17 17 16 16 16 16 17 18 19 19 19 20 21 21 21 21 21 21 20 20 19 18 18 17 16 15 14 13 12 10 8 6 4 3 2
14 15 16 16 16 16 17 17 17 17 17 16 16 16 16 17 18 19 20 20 20 21 21 21 21 21 21 21 21 20 20 19 19 18 17 17 16 14 13 11 9 8 7 6
13 14 16 16 16 15 16 16 16 16 16 15 16 16 16 17 17 18 19 19 20 20 20 20 21 21 21 21 21 21 21 20 19 19 18 18 17 16 15 14 13 11 10 9
11 13 15 15 16 15 15 15 15 15 15 14 14 15 15 16 16 17 17 18 19 19 20 20 20 20 21 21 21 21 21 20 20 20 20 20 19 18 17 16 16 15 13 12
9 11 12 14 15 15 14 13 13 14 14 13 13 13 14 14 15 16 16 16 17 17 18 19 19 20 20 21 21 21 21 21 20 20 19 19 19 18 18 18 17 16 15 15
7 8 10 12 13 14 13 13 12 12 13 13 12 12 12 13 14 14 15 15 16 16 16 16 17 18 19 19 20 20 20 20 20 20 19 19 19 19 19 19 18 17 17 16
5 6 8 9 10 12 12 12 12 11 11 11 12 12 11 11 12 12 13 13 14 14 14 15 15 16 17 18 18 19 19 20 20 19 19 19 19 19 19 19 19 18 18 17
4 5 6 7 8 9 10 11 11 10 10 10 10 10 11 11 11 11 12 12 12 13 13 14 14 15 15 16 17 18 19 19 20 19 19 19 20 20 20 20 20 19 19 19
5 5 5 5 6 7 8 8 9 9 9 9 8 8 8 9 9 9 10 10 11 11 12 12 13 13 14 15 16 17 18 19 20 20 19 19 20 20 20 21 21 21 20 20
8 7 6 6 6 6 6 6 7 7 7 7 7 7 7 7 8 8 8 9 9 10 11 11 12 12 13 14 14 15 17 18 19 20 20 20 20 20 21 21 21 21 22 22
10 9 8 8 7 7 6 6 6 6 6 6 6 6 6 6 7 7 8 8 9 9 9 10 11 11 12 12 13 14 15 17 18 19 20 20 20 20 20 21 21 21 22 23
13 12 11 10 9 9 8 8 7 7 6 6 6 6 6 6 6 6 7 8 8 8 9 9 10 10 10 11 11 12 14 15 16 18 19 20 20 20 20 21 21 21 21 22

GEFSCGP_500_meanwind_060.txt.gz
Wind_Speed
16 18 19 20 21 23 25 27 28 34 34 33 34 34 33 32 32 33 33 34 34 34 34 35 35 35 36 37 38 39 41 43 43 44 45 46 45 45 45 44 43 42 40 39
18 18 18 21 23 24 26 27 28 31 31 30 32 33 31 30 30 31 32 33 34 34 34 34 34 34 34 35 36 37 38 39 40 41 43 44 45 45 45 44 44 44 42 39
18 18 19 21 24 24 25 26 26 28 29 29 29 30 30 28 27 28 29 29 30 30 31 31 31 31 31 32 33 33 34 35 36 37 38 39 41 42 43 43 43 43 43 40
17 18 20 22 23 23 24 24 24 25 25 26 26 27 29 28 26 27 26 26 26 26 26 26 26 26 27 28 28 29 29 31 32 33 34 35 36 38 39 40 41 41 41 40
15 16 18 20 20 21 21 22 21 22 21 21 22 23 28 26 25 25 25 24 23 22 22 22 23 23 23 23 24 25 25 26 26 27 28 29 31 34 35 37 38 38 37 37
14 15 16 17 17 18 19 19 19 18 18 19 19 21 26 24 24 23 23 23 21 20 19 19 20 19 19 19 19 19 19 20 21 22 23 25 26 28 30 33 34 34 34 34
10 11 12 14 16 17 17 18 17 16 17 19 20 21 22 21 21 21 21 20 19 17 17 17 17 17 17 17 17 16 15 16 16 17 18 19 21 22 24 26 29 30 31 31
10 10 11 13 15 16 16 15 15 12 9 14 17 18 18 19 19 19 19 18 17 16 15 15 16 16 16 15 15 14 14 14 14 13 13 14 14 16 18 20 22 25 27 28
7 9 11 13 14 15 15 14 13 12 10 10 15 18 17 17 18 18 17 17 16 15 15 16 16 17 16 16 14 14 14 14 13 12 11 10 9 10 12 14 17 19 21 23
6 8 10 12 13 13 14 13 13 12 12 9 12 17 19 18 17 17 17 16 16 16 17 17 17 18 18 18 17 16 16 15 14 13 12 9 8 7 6 7 9 13 16 19
6 8 9 11 13 15 14 14 13 13 13 12 12 15 17 17 16 16 16 15 16 16 17 18 17 18 19 20 19 19 18 17 16 15 13 11 9 8 7 6 5 7 10 12
7 9 10 12 14 14 15 15 14 14 13 13 14 15 15 16 16 16 16 16 17 17 18 18 18 18 19 19 20 19 19 19 18 18 16 14 12 9 8 7 6 6 7 9
8 9 10 12 13 14 15 15 15 15 14 14 15 15 15 16 16 17 17 17 17 18 19 19 20 20 20 20 19 19 19 19 18 17 17 16 14 13 11 10 8 7 6 6
10 10 11 13 14 15 15 15 15 15 15 15 15 15 16 16 16 17 18 18 18 18 19 20 21 21 21 21 20 20 20 20 20 20 19 18 16 14 12 11 11 9 8 7
10 11 11 12 13 14 15 16 15 15 15 14 15 15 15 15 16 17 17 18 19 19 20 21 21 22 23 23 22 21 21 21 20 20 20 20 19 17 15 14 13 12 10 9
10 11 12 12 12 13 14 15 16 15 15 14 14 14 14 15 15 16 16 17 18 19 19 20 21 22 22 22 23 22 22 22 21 21 21 20 19 18 17 17 15 14 12 11
9 10 12 12 12 12 13 15 15 15 14 14 14 14 14 14 14 15 16 17 17 18 19 20 21 21 22 22 22 22 22 22 22 22 21 21 20 19 18 18 18 17 16 14
7 9 11 12 13 13 13 13 14 15 14 14 14 14 14 14 14 15 15 16 16 17 18 18 19 20 21 21 22 22 22 22 22 22 22 21 21 20 20 19 19 19 18 16
6 7 9 10 12 12 12 12 12 13 13 13 13 13 13 13 13 14 14 16 16 16 17 17 18 19 20 21 21 22 22 22 22 22 22 22 22 22 21 20 20 20 19 18
5 6 7 9 10 11 11 11 11 12 12 13 13 12 12 12 13 13 14 15 15 16 16 16 17 17 18 19 20 21 22 22 22 22 23 23 23 22 22 22 22 22 21 19
6 7 7 8 8 9 10 10 11 11 11 12 12 12 12 12 12 13 13 14 15 15 15 16 16 16 17 18 19 20 21 22 22 22 23 24 24 24 23 23 23 23 22 21
8 8 8 9 8 8 9 9 9 10 10 10 11 11 12 12 12 13 13 14 14 15 15 15 15 15 16 17 18 18 19 21 22 22 23 24 24 24 24 24 24 24 23 23
11 11 11 10 10 10 9 9 9 9 9 9 10 10 11 11 12 13 13 13 14 14 14 14 14 14 15 15 16 17 18 19 21 21 22 23 24 24 25 24 25 24 24 24
13 13 13 13 12 12 12 11 11 10 10 10 10 10 10 11 11 12 12 12 13 13 13 13 13 13 14 14 15 15 16 18 19 20 21 22 23 23 24 24 25 25 25 24
16 15 15 15 15 14 14 13 13 13 12 12 11 11 10 11 11 11 11 11 12 12 12 12 12 13 13 13 13 14 14 15 16 18 19 20 21 22 23 24 24 24 25 24
19 19 18 18 17 17 16 15 15 15 14 14 13 13 12 12 11 11 11 11 11 11 12 12 12 12 12 12 12 12 12 13 13 15 16 17 18 20 21 22 23 23 24 24

GEFSCGP_500_meanwind_066.txt.gz
Wind_Speed
16 15 16 17 18 19 21 23 26 28 29 30 30 29 27 27 27 26 27 28 29 29 30 30 29 29 29 29 29 30 31 33 33 34 35 36 37 37 38 37 37 37 37 37
14 14 15 15 16 18 20 23 25 27 28 28 27 26 25 24 23 23 24 24 25 26 26 26 26 26 26 26 27 27 28 29 29 30 31 33 34 35 35 36 37 37 37 37
12 12 13 14 15 18 20 22 23 24 25 25 25 23 22 20 20 20 20 21 23 23 23 23 23 22 23 23 23 23 24 24 25 26 27 28 29 31 32 33 34 35 36 36
10 10 12 13 15 17 19 20 21 22 22 22 22 20 18 18 18 19 20 21 22 22 21 20 20 19 19 19 19 19 20 20 21 22 23 25 26 28 29 30 31 32 32 33
8 10 11 13 15 16 17 18 18 19 18 18 18 17 17 17 19 20 21 21 22 22 20 19 17 17 17 16 16 16 17 17 18 19 19 20 21 23 25 26 28 29 30 31
7 9 10 12 13 14 15 16 16 16 15 14 14 15 17 18 19 20 20 20 21 21 20 18 17 16 16 16 15 15 16 16 16 15 16 16 17 18 20 22 24 26 28 29
5 7 8 9 11 12 13 13 13 13 13 13 13 14 16 18 18 18 18 19 19 19 19 18 18 17 17 17 17 16 16 15 14 14 14 13 13 14 14 16 18 21 24 26
2 3 5 7 9 11 12 13 13 13 14 14 14 15 16 16 16 17 17 17 18 18 18 18 18 18 18 17 17 17 16 16 14 13 13 12 11 10 10 11 13 15 18 21
2 2 5 7 9 11 12 13 13 13 14 14 15 14 15 15 16 17 17 18 18 18 18 18 19 19 18 18 18 17 17 17 15 14 13 12 10 10 8 7 8 10 12 15
4 5 7 8 9 11 12 12 13 13 14 14 15 15 15 15 16 17 18 18 18 19 19 19 20 20 19 18 18 17 17 17 16 15 14 12 12 10 8 7 7 7 9 11
6 6 7 8 9 10 11 12 13 14 14 15 15 15 15 15 16 17 18 19 19 20 21 21 20 21 21 21 20 19 18 19 18 18 17 14 13 12 10 9 7 7 7 8
6 7 7 8 9 10 11 12 13 14 14 15 15 15 15 15 16 17 18 18 19 21 21 21 21 21 21 22 22 21 20 19 19 19 18 16 15 14 13 11 10 9 7 7
7 7 7 8 9 11 11 12 13 14 14 14 14 14 15 16 16 17 18 18 19 20 21 21 22 22 22 22 22 22 21 21 20 20 19 18 16 16 15 14 13 11 9 7
8 7 8 9 10 10 11 11 12 13 14 13 13 14 15 16 16 17 17 17 18 20 20 21 21 22 22 22 23 23 22 22 22 21 20 19 18 17 16 15 14 13 11 9
8 7 7 8 9 10 11 11 12 13 13 13 13 13 14 15 16 17 17 17 18 19 20 21 22 22 22 22 22 23 23 23 23 23 22 21 20 18 17 17 16 15 13 11
8 7 7 7 8 9 10 11 11 12 12 13 13 13 13 14 15 16 17 17 18 18 19 20 21 22 22 22 23 23 23 23 23 23 23 23 22 21 20 19 18 17 15 14
6 7 7 7 7 8 9 10 10 11 11 12 12 13 13 13 15 15 16 17 17 18 18 19 20 21 22 22 23 23 23 23 23 23 23 23 23 22 21 21 20 18 17 16
4 5 6 6 6 7 8 9 10 10 11 11 12 12 13 13 14 15 16 16 17 17 17 18 19 20 21 21 22 23 23 23 23 24 24 24 23 23 22 22 21 21 19 18
2 3 4 5 5 6 7 8 8 9 10 11 11 11 12 13 14 14 15 16 16 17 17 17 18 19 19 20 21 22 23 23 23 24 24 25 24 24 23 23 22 22 21 20
1 1 2 3 4 5 6 7 8 8 9 10 11 11 12 12 13 13 14 15 15 16 16 16 17 18 18 19 19 20 21 22 23 24 24 25 25 24 24 23 23 22 22 22
4 3 3 3 4 4 5 6 6 7 8 9 10 10 11 12 12 12 13 13 14 14 15 15 16 16 17 18 18 19 19 20 21 22 24 25 25 24 24 24 24 23 23 23
7 6 6 6 6 6 6 6 6 7 8 9 9 10 10 11 12 12 12 12 13 13 14 14 14 15 15 16 16 17 18 18 19 20 22 23 23 24 24 24 24 24 24 23
10 10 9 9 9 9 9 9 8 8 9 9 10 10 10 11 11 12 12 12 12 13 13 13 14 14 14 15 15 15 16 16 17 18 19 20 21 22 23 24 24 24 24 24
13 13 12 12 11 11 11 11 12 11 11 11 11 11 11 12 12 12 12 13 13 13 13 13 13 13 14 14 14 14 14 14 15 16 17 17 18 19 21 22 23 23 23 23
17 16 15 14 14 13 14 14 14 14 14 14 14 13 13 13 13 14 14 14 13 13 13 14 14 13 13 13 13 13 13 13 13 14 14 15 15 16 17 19 20 21 21 21
20 18 17 16 16 16 16 16 16 16 16 16 16 16 16 15 15 15 15 15 15 14 14 14 14 14 14 13 13 13 13 12 12 12 12 13 13 14 14 15 16 17 19 19

GEFSCGP_500_meanwind_072.txt.gz
Wind_Speed
19 18 18 18 19 20 20 21 23 23 24 24 23 23 23 22 22 22 22 23 23 24 24 24 24 23 23 23 22 22 22 23 23 24 25 26 27 29 30 32 33 36 37 38
18 17 17 17 18 18 19 21 22 22 22 22 21 20 19 19 20 20 21 21 21 22 22 22 21 21 20 19 19 18 18 19 20 21 22 23 24 25 27 28 30 33 35 37
16 15 15 15 16 17 18 20 20 20 20 19 18 17 17 17 18 18 19 19 19 20 20 20 20 19 19 18 17 17 17 17 18 18 19 19 20 21 22 24 25 28 30 33
14 14 13 14 14 16 17 18 18 17 17 16 16 15 15 16 16 17 17 18 18 19 20 20 20 19 18 18 17 17 16 16 16 16 17 17 18 19 20 21 22 24 26 29
12 11 11 11 12 13 14 15 15 14 14 13 13 14 14 14 15 16 17 18 18 19 19 20 20 19 19 18 17 17 17 16 16 15 15 15 16 17 18 19 20 22 24 26
10 9 8 8 9 10 12 13 12 12 12 12 13 13 13 14 15 16 17 18 18 19 20 20 20 20 20 19 18 17 17 17 16 15 15 14 14 14 15 16 17 19 21 23
8 6 5 5 7 9 10 11 10 10 11 11 12 13 13 14 16 17 18 18 19 20 20 21 20 21 21 20 18 18 18 18 16 15 15 14 13 13 14 14 15 17 19 20
6 3 3 3 5 7 8 9 9 9 10 11 12 12 13 14 16 17 18 18 19 20 20 20 20 21 21 20 20 19 19 19 18 16 16 14 13 13 13 13 14 15 16 17
4 2 0 2 4 5 6 7 8 9 9 10 12 12 13 15 16 16 17 18 20 21 21 21 21 21 22 21 20 20 19 19 18 18 18 16 15 14 13 12 12 12 13 14
4 2 1 2 3 5 6 7 8 9 10 11 12 13 14 15 15 16 17 19 20 21 21 21 21 22 22 21 21 20 20 20 19 19 19 18 17 15 14 13 12 11 11 12
5 3 3 3 4 5 5 6 7 8 10 11 12 13 14 15 15 16 17 19 20 21 21 21 22 22 23 23 22 21 21 21 21 21 20 20 18 17 16 15 13 12 11 12
5 4 4 3 4 5 5 6 7 8 9 11 12 13 14 14 15 16 17 18 19 20 21 21 21 22 22 23 23 22 23 23 22 22 22 21 19 18 17 16 15 14 12 11
5 5 4 4 4 5 5 6 7 8 9 10 11 12 13 14 15 16 17 18 19 19 20 21 21 21 22 22 22 23 23 24 24 23 23 23 22 20 19 18 17 16 14 12
6 5 4 4 5 5 5 5 6 7 8 9 11 12 13 14 15 16 16 17 18 19 19 20 21 21 22 22 22 22 23 24 24 25 25 24 24 22 21 20 20 18 16 14
5 4 4 4 4 5 5 6 6 7 8 9 10 11 12 13 14 15 16 17 17 18 19 20 20 21 22 22 22 22 22 23 24 25 25 25 25 24 23 22 21 20 19 17
5 4 4 4 4 4 5 5 6 7 8 9 10 11 12 13 14 15 15 16 17 18 18 19 20 20 21 22 22 23 23 23 24 24 25 25 25 26 25 24 23 22 21 19
4 3 3 3 3 3 4 4 5 7 8 9 10 11 12 12 13 14 15 16 17 17 18 18 19 19 20 21 22 23 23 23 24 24 24 25 26 26 26 26 25 23 22 21
3 2 1 1 1 2 3 4 5 6 7 8 9 10 11 12 13 14 15 15 16 17 17 18 18 19 19 20 21 22 22 23 23 24 24 24 25 26 27 26 26 26 24 22
3 3 2 1 1 2 3 4 5 6 7 8 9 10 11 12 12 13 14 15 15 16 17 17 18 18 18 19 19 20 21 22 22 23 23 24 24 25 26 27 27 27 26 24
5 5 4 4 4 4 4 5 5 6 7 8 9 10 11 11 12 13 13 14 15 15 16 17 17 17 18 18 18 19 20 20 21 21 22 23 24 24 25 26 27 27 27 26
8 7 7 7 7 7 7 7 7 8 9 9 10 10 11 12 12 13 13 14 14 15 16 16 17 17 17 18 18 18 18 19 19 20 21 21 22 23 24 25 25 26 26 26
11 10 10 10 10 11 10 10 10 11 11 12 12 12 13 13 13 14 14 15 15 15 16 16 16 17 17 17 17 18 18 18 18 19 19 20 20 21 22 23 23 24 25 25
13 13 13 13 13 13 13 13 13 14 14 14 15 15 15 15 15 15 16 16 16 16 17 17 17 17 17 17 17 17 17 17 17 18 18 18 19 19 20 20 21 22 23 23
16 16 16 16 16 16 15 16 16 16 17 17 17 17 17 17 17 17 17 17 18 18 18 18 18 18 18 18 18 18 18 18 17 18 18 18 18 18 18 18 19 19 20 20
18 18 18 18 18 18 18 18 18 18 18 18 18 19 19 19 19 20 20 20 20 20 20 19 19 19 19 19 19 18 18 18 18 18 18 18 17 17 17 17 16 16 17 17
20 20 20 20 20 20 20 21 21 21 21 21 21 21 21 22 22 22 22 22 22 22 22 22 21 21 21 21 20 20 20 19 19 19 18 18 18 17 17 16 16 15 14 14

GEFSCGP_500_meanwind_078.txt.gz
Wind_Speed
18 18 17 17 16 17 17 17 18 18 18 18 18 18 17 17 16 17 18 19 19 20 20 20 20 20 20 20 20 18 17 17 17 17 18 19 21 23 25 27 29 30 32 34
19 18 16 16 16 15 15 16 16 16 16 15 15 15 14 14 15 17 17 17 18 19 20 20 20 20 20 20 18 17 15 15 15 15 16 17 18 19 20 22 25 28 30 32
19 17 15 15 14 14 13 14 14 14 13 12 12 12 12 13 14 15 16 17 18 19 19 20 20 20 19 18 17 16 15 15 14 14 15 15 16 16 17 19 21 23 26 29
18 15 14 13 12 12 12 11 11 10 10 10 10 10 12 13 14 15 16 16 18 18 18 19 20 19 18 18 18 17 16 15 14 14 14 14 14 14 15 17 18 20 22 26
16 14 12 11 10 10 9 8 8 7 7 7 8 10 11 13 14 14 16 16 17 17 18 19 19 19 18 18 18 18 16 15 15 14 13 12 13 13 13 14 16 18 20 23
14 12 11 9 8 7 6 5 4 5 6 7 8 10 11 12 13 14 15 17 17 18 18 19 19 19 19 19 19 19 18 17 16 15 14 13 13 13 13 13 14 15 17 20
13 11 9 7 6 4 3 2 3 5 6 7 8 10 11 12 13 14 15 17 17 18 18 19 19 20 20 19 20 19 19 18 17 17 16 15 14 13 12 12 12 13 15 17
11 10 8 6 4 2 1 2 3 4 5 7 8 10 11 12 13 14 15 16 17 18 18 18 19 20 20 20 21 20 20 20 19 19 18 17 16 15 14 13 13 13 14 15
11 9 7 5 4 3 3 4 4 5 5 7 8 9 10 12 13 14 15 16 17 17 18 18 19 19 20 20 21 22 21 21 21 21 20 19 19 17 15 14 12 12 12 14
9 8 7 6 5 4 5 5 5 5 5 7 8 10 11 12 13 14 15 16 17 17 18 18 19 19 19 20 21 22 23 23 23 22 22 21 20 19 18 16 14 13 12 12
9 9 7 6 6 5 5 5 5 5 5 6 7 9 10 11 12 14 15 16 17 18 18 19 19 19 19 20 20 22 23 24 23 23 23 23 22 21 20 18 16 15 13 12
10 9 8 7 6 6 6 5 5 5 5 6 7 8 9 11 12 13 14 16 17 18 18 19 19 19 19 20 20 21 22 23 24 24 24 24 24 24 22 20 19 18 16 14
11 10 9 7 6 6 5 4 4 4 5 6 7 8 8 10 11 12 14 15 16 17 17 18 18 19 19 20 20 21 21 22 23 24 25 25 25 25 24 23 21 20 19 16
10 9 8 7 6 5 5 4 4 4 5 6 7 7 8 9 11 12 13 14 15 16 16 17 17 18 19 19 20 21 21 22 22 23 24 25 25 25 25 25 24 22 21 20
10 9 8 7 6 5 5 5 5 5 5 5 6 7 8 9 10 11 12 13 14 15 16 16 17 17 18 19 19 20 21 21 22 22 23 24 25 25 26 25 25 24 23 22
10 9 8 7 6 5 5 4 4 4 4 5 6 7 8 9 10 11 12 12 13 14 15 16 16 17 17 18 19 20 20 21 22 22 23 23 24 25 25 26 26 25 24 23
10 9 7 6 5 5 4 3 2 2 3 4 5 6 7 8 10 11 11 12 13 14 14 15 16 16 17 18 18 19 20 21 21 22 22 23 23 24 25 26 26 26 25 25
9 8 7 6 5 3 2 1 1 1 2 3 4 5 7 8 9 10 11 12 13 14 14 15 16 16 17 17 18 19 19 20 21 21 22 22 23 23 24 25 25 26 26 25
8 7 6 5 5 4 3 2 2 2 3 4 5 6 7 9 10 11 12 12 13 14 15 16 16 17 17 17 18 18 19 19 20 21 21 21 21 22 23 24 24 25 25 25
8 8 7 6 6 6 5 5 5 5 5 6 7 8 9 10 11 12 13 13 14 14 15 16 16 17 17 18 18 18 19 19 19 20 20 21 21 21 21 22 23 24 24 24
10 9 9 8 8 7 7 7 8 8 8 9 9 10 11 12 12 13 14 14 15 15 16 16 17 17 17 18 18 18 19 19 19 19 20 20 20 20 20 21 21 22 23 22
12 11 11 11 11 10 10 10 11 11 11 12 12 12 13 13 14 14 15 15 16 16 17 17 18 18 18 18 18 19 19 19 19 19 19 19 19 19 20 19 20 20 21 21
15 14 14 14 13 13 13 13 14 14 14 14 14 14 15 15 15 15 16 16 17 17 18 18 19 19 19 19 19 19 19 19 19 19 19 19 19 19 19 19 19 18 19 19
18 17 17 17 16 16 16 16 16 16 16 16 16 16 16 17 17 17 18 18 19 19 20 20 20 20 20 20 20 20 20 20 20 20 20 20 20 20 19 19 18 18 17 17
20 19 19 19 19 19 19 19 18 18 18 18 18 18 18 19 19 20 20 20 21 21 22 22 22 22 22 22 22 22 21 21 21 21 20 20 20 20 20 19 19 18 17 17
22 22 22 21 21 21 21 21 21 20 20 20 20 20 21 21 22 22 22 23 23 23 24 24 25 25 25 25 24 23 23 23 22 22 22 21 21 20 20 20 20 19 19 18

GEFSCGP_500_meanwind_084.txt.gz
Wind_Speed
18 17 15 14 15 14 14 15 14 18 19 19 18 18 18 17 18 19 19 19 19 20 19 19 19 20 20 20 20 20 19 18 17 15 15 15 15 16 16 18 20 22 23 26
18 16 15 15 15 13 13 14 13 17 16 14 14 14 15 16 17 17 17 18 18 18 18 18 19 19 20 20 20 20 19 18 17 15 14 14 14 15 15 16 17 19 21 23
16 15 14 14 14 13 13 13 13 14 14 13 12 12 13 14 15 15 16 17 17 17 17 18 19 19 20 20 20 20 19 18 17 15 15 14 14 14 14 15 15 17 18 20
18 16 14 14 14 13 13 12 11 10 10 10 11 11 13 15 15 15 15 15 16 16 17 18 18 19 20 20 20 20 20 19 18 17 16 15 14 14 13 14 14 15 16 17
18 15 14 14 14 12 12 9 8 7 7 7 8 10 13 14 15 15 15 15 15 15 16 17 18 19 20 20 20 20 20 20 19 19 18 16 15 14 13 13 14 14 15 15
16 13 13 14 11 10 9 7 5 4 5 6 7 9 11 13 14 14 14 14 14 15 16 16 17 18 19 20 21 21 21 21 20 20 19 18 17 16 15 14 14 13 14 14
13 13 12 11 11 9 7 6 3 3 6 7 7 8 9 11 12 12 13 13 14 15 15 16 17 18 19 20 21 21 22 22 21 21 21 20 19 18 17 16 15 14 13 13
8 10 10 10 9 8 7 6 5 5 3 6 6 7 8 9 10 11 12 13 14 14 15 16 17 18 19 19 21 22 22 23 23 22 22 21 20 20 19 18 17 15 14 14
9 12 8 9 9 8 7 6 5 5 4 1 7 7 6 8 8 10 11 12 13 14 15 16 16 17 18 19 20 21 22 23 23 23 23 22 22 21 21 20 19 17 16 15
12 12 8 8 8 8 7 6 6 6 5 3 6 7 7 7 8 9 11 12 13 14 15 15 16 17 18 19 20 21 22 23 23 24 24 24 23 22 21 21 21 19 17 15
12 8 7 7 8 7 7 6 6 5 4 5 4 4 5 6 7 9 10 11 12 13 14 15 16 17 18 18 19 21 22 23 24 24 24 24 25 24 23 22 21 21 19 17
12 10 7 6 6 7 7 6 6 5 5 3 2 2 4 5 7 8 9 10 11 13 14 15 15 16 17 18 19 20 21 22 23 24 24 24 25 25 25 24 23 22 21 19
13 12 9 5 7 8 7 7 6 5 4 2 2 2 2 4 6 7 8 10 11 12 13 14 15 16 17 18 19 20 21 22 22 23 24 24 24 25 26 26 25 24 23 22
12 13 12 10 9 9 8 7 6 5 4 3 2 2 2 4 5 6 8 9 11 12 13 14 15 16 17 18 19 20 20 21 22 22 23 23 24 25 26 26 26 25 24 23
12 12 12 10 8 8 8 7 6 5 4 2 2 1 2 4 5 7 8 10 11 12 13 14 15 16 17 17 18 19 20 21 21 21 22 22 23 24 25 25 25 25 25 24
12 12 11 9 8 8 8 7 6 5 4 3 2 1 2 4 5 7 8 10 11 12 13 14 15 16 17 17 18 19 20 20 21 21 21 22 22 23 24 24 25 25 25 24
12 12 11 10 9 8 8 7 6 5 4 3 3 3 3 5 6 8 9 10 11 13 14 15 16 17 17 18 19 19 19 20 20 21 21 21 21 22 23 23 24 24 24 24
12 12 11 10 9 8 7 7 6 6 5 4 4 4 5 6 7 9 10 11 12 13 14 15 16 17 18 18 19 19 19 20 20 20 21 21 21 21 22 22 23 23 23 23
12 12 11 11 10 8 8 7 7 7 6 6 6 6 7 8 9 10 11 12 12 14 14 15 16 17 18 18 19 19 19 19 20 20 20 20 20 20 21 21 21 22 22 22
13 13 12 12 11 10 9 9 9 8 8 8 8 9 10 10 11 11 12 13 14 14 15 16 17 18 18 19 19 19 19 19 20 20 20 20 20 20 20 20 20 20 21 20
15 15 14 14 14 13 10 11 11 11 9 10 11 11 12 13 13 14 14 14 15 16 16 17 18 18 19 20 20 20 20 20 20 20 20 20 20 20 20 20 20 20 20 20
17 17 16 17 16 15 12 14 14 13 13 13 14 14 14 15 15 15 16 16 16 17 18 18 19 19 20 20 21 21 21 21 21 21 21 21 21 21 20 20 20 20 20 19
20 19 19 19 18 16 16 17 17 17 16 16 16 16 17 17 17 17 17 17 18 18 19 19 20 21 21 22 22 23 23 23 23 23 23 22 22 22 21 21 20 20 20 19
23 23 22 22 21 20 20 20 20 20 19 19 19 19 19 19 18 18 18 19 19 20 20 21 22 22 23 24 24 25 25 25 25 24 24 24 23 23 22 22 21 21 20 20
26 25 25 25 24 23 23 23 23 23 22 22 21 21 21 21 20 20 20 21 21 22 22 23 24 25 25 26 27 27 27 27 27 26 26 25 25 24 24 24 23 23 22 22
28 28 28 27 27 26 25 25 25 25 25 24 24 23 23 23 23 22 23 23 23 24 25 25 26 27 28 29 29 29 28 28 28 28 28 27 27 26 25 25 25 24 24 24

GEFSCGP_500_meanwind_090.txt.gz
Wind_Speed
24 22 19 17 16 14 13 13 12 11 10 10 9 9 9 10 11 12 13 15 15 16 16 17 17 18 18 19 19 18 18 18 17 16 15 13 12 11 10 10 10 12 14 17
23 20 18 17 15 13 11 10 10 9 8 8 8 7 7 8 9 10 12 14 14 15 16 17 18 18 19 19 19 19 19 19 18 17 16 14 13 12 11 10 10 11 12 14
19 17 18 16 14 12 10 9 8 8 7 6 7 6 6 7 8 10 12 13 14 15 15 16 17 18 18 18 19 19 19 19 19 19 18 17 15 14 13 11 10 10 11 13
20 19 17 14 13 10 8 8 7 7 6 5 5 4 5 6 8 9 11 12 13 14 14 15 16 16 17 18 19 20 20 20 20 19 19 18 17 16 15 13 12 11 11 12
18 16 14 12 11 10 8 7 6 5 5 4 3 2 4 6 8 9 10 11 11 12 13 14 15 16 17 19 20 20 20 20 21 20 19 18 18 17 16 15 14 13 12 12
17 15 12 11 10 9 7 7 6 6 5 3 1 2 4 6 7 8 9 10 11 12 12 13 14 15 16 18 20 21 21 21 21 21 20 19 18 18 17 16 15 14 13 12
15 14 12 10 9 9 8 7 7 7 6 4 2 3 4 5 6 7 8 9 10 11 12 12 14 15 16 18 19 20 21 21 21 21 20 20 20 19 19 18 16 15 13 12
15 13 12 10 9 8 8 7 8 8 7 4 3 3 3 4 5 6 7 8 9 10 11 12 13 15 16 17 18 20 21 22 22 21 21 21 21 21 21 20 18 16 14 12
14 13 12 10 9 8 8 8 7 7 6 5 5 3 3 3 4 5 6 7 8 10 11 12 13 14 16 17 18 19 21 21 22 22 21 21 22 22 22 21 19 18 16 14
11 11 10 9 9 8 8 8 7 7 6 5 5 4 3 2 3 4 6 7 8 9 10 11 13 14 15 16 17 19 20 21 21 22 22 22 22 22 22 22 21 19 18 15
11 10 9 9 9 8 8 8 7 7 6 5 4 4 3 2 2 3 4 6 7 8 10 11 12 14 15 16 17 18 20 20 20 21 22 22 22 22 22 22 22 21 19 17
10 10 9 9 9 9 9 8 7 7 6 5 4 3 2 2 1 2 3 5 7 8 9 11 12 13 15 16 17 18 19 20 20 21 21 22 22 22 22 22 22 21 20 19
10 10 9 9 9 9 9 8 8 7 6 5 3 3 2 2 1 1 3 5 6 8 9 10 12 13 14 16 17 18 18 19 20 20 21 21 22 22 22 21 21 22 21 21
11 10 10 10 10 10 10 9 9 8 7 5 4 3 3 2 1 1 3 4 6 8 9 10 11 13 14 15 16 17 18 18 19 20 20 21 21 21 21 21 21 21 21 21
12 12 12 11 11 10 10 10 9 8 7 6 5 4 4 3 1 1 3 4 6 7 9 10 11 12 14 15 16 17 18 18 19 19 20 20 21 21 21 20 20 20 20 20
11 11 11 11 11 10 11 11 10 9 8 6 5 5 4 3 2 2 3 5 6 8 9 10 11 13 14 15 16 17 17 18 18 19 19 20 20 20 20 20 19 19 19 19
11 12 12 11 12 11 10 11 11 10 8 7 6 5 4 3 3 3 4 6 7 8 9 10 11 12 14 15 16 17 17 18 18 18 19 19 19 19 20 19 19 18 18 18
12 13 12 12 12 11 11 12 11 10 9 8 7 6 5 5 5 5 6 7 8 9 10 11 12 13 14 15 16 17 18 18 19 19 19 19 19 19 19 19 18 18 18 18
14 14 14 13 13 11 11 12 12 11 10 9 8 7 7 6 6 7 8 8 9 10 11 12 13 14 15 16 16 17 18 19 19 19 20 20 19 19 19 19 18 18 17 17
15 15 15 14 14 13 12 13 13 12 11 11 10 9 8 8 9 9 9 10 11 11 12 13 13 14 15 16 17 18 19 20 20 20 21 20 20 20 19 19 18 18 17 17
17 17 17 16 16 14 14 14 14 14 13 12 12 11 11 11 11 12 12 12 13 13 13 14 14 15 16 17 18 19 20 21 22 22 22 21 21 20 20 19 19 18 18 18
19 19 19 18 18 15 16 16 16 15 15 14 14 14 13 13 13 13 14 14 14 14 15 15 15 16 17 18 19 20 21 22 23 23 23 22 22 21 21 20 20 19 19 19
21 21 22 21 20 19 19 18 18 18 18 17 17 17 16 16 15 15 16 15 15 16 16 16 17 17 18 19 21 22 23 23 24 24 24 24 24 23 23 22 21 21 20 20
24 24 24 24 22 22 22 21 20 20 20 20 19 19 18 18 18 18 17 17 17 17 17 18 18 19 20 21 22 23 24 25 25 25 25 25 25 25 24 24 23 23 22 21
26 26 27 26 25 25 25 24 24 23 23 22 21 21 21 20 20 20 19 19 19 19 19 20 20 21 22 23 24 25 26 26 27 27 27 27 26 26 25 25 24 24 23 22
27 29 29 28 27 28 27 27 27 26 25 25 24 24 23 23 22 22 22 21 21 22 22 22 22 23 24 25 25 26 27 27 28 28 28 28 28 27 26 25 25 25 24 24

GEFSCGP_500_meanwind_096.txt.gz
Wind_Speed
25 22 19 17 16 15 14 12 12 11 10 10 9 9 7 6 5 5 5 5 6 7 9 11 12 14 15 16 18 18 19 18 18 18 18 18 17 16 14 13 12 12 12 13
22 19 17 17 16 14 13 12 11 11 10 10 9 8 7 5 5 5 4 5 5 6 8 10 11 13 15 16 18 19 19 19 19 18 19 18 17 16 15 14 13 13 12 12
18 17 17 16 14 13 12 12 12 11 10 10 9 7 6 4 4 3 3 4 5 6 7 9 11 13 15 16 18 19 20 20 19 19 19 19 19 18 17 16 14 13 12 12
19 18 16 15 14 13 13 12 12 12 10 9 8 7 6 4 3 2 2 3 4 5 7 9 10 12 14 16 18 19 20 20 20 20 20 20 19 19 18 17 15 14 13 12
17 16 15 14 14 14 13 12 12 11 10 9 8 7 5 4 3 1 2 3 4 5 7 9 10 12 14 16 17 19 20 20 20 20 20 20 20 19 19 18 16 15 13 12
17 16 15 14 14 14 13 12 12 12 10 9 8 6 5 4 3 1 2 2 3 5 7 8 10 12 14 15 17 19 20 20 20 21 20 20 20 20 20 19 17 15 14 12
16 15 14 14 13 13 13 12 12 11 10 8 7 6 5 5 3 2 2 2 3 5 6 8 10 12 13 15 17 18 19 20 20 20 21 21 20 21 20 20 19 17 15 14
13 13 13 13 13 12 12 12 12 11 9 8 7 6 6 5 3 2 2 2 3 4 6 8 9 11 13 14 16 18 19 20 20 20 21 21 21 21 21 20 19 18 16 15
12 12 12 12 12 12 12 12 11 11 9 8 7 6 6 6 4 3 2 2 3 4 6 7 9 10 12 14 16 17 19 19 20 21 21 21 21 21 21 20 20 19 17 15
11 11 11 11 11 11 11 11 11 10 10 8 7 7 7 7 6 4 2 2 2 4 5 7 9 10 12 13 15 16 18 19 20 20 21 21 21 21 21 20 20 19 18 16
10 10 10 11 11 11 11 11 11 10 10 9 8 7 8 7 6 5 3 2 2 3 5 7 8 10 11 13 14 15 17 18 19 20 20 20 20 20 20 20 20 19 19 17
9 9 10 10 11 11 10 10 11 11 10 9 8 7 8 8 7 5 4 2 2 3 5 7 8 9 11 12 14 15 16 17 18 19 20 20 20 20 20 20 20 19 19 18
9 9 10 11 11 11 11 11 11 11 10 10 8 8 9 8 7 6 4 3 3 3 5 6 8 9 11 12 13 14 15 17 18 19 19 20 19 19 19 19 19 19 19 18
10 10 11 11 11 12 12 12 12 11 10 10 9 9 10 9 8 7 5 4 4 4 5 6 8 9 10 11 12 14 15 16 17 18 19 19 19 19 19 19 19 19 19 19
12 12 12 13 13 13 12 12 12 11 11 10 10 10 10 10 8 7 6 5 4 5 5 6 7 9 10 11 12 13 14 16 17 18 18 19 19 19 18 18 18 18 18 18
13 14 14 13 14 14 13 12 12 12 12 11 11 10 11 10 9 8 7 6 6 6 6 7 8 9 10 11 12 13 14 15 16 17 18 18 18 18 18 18 18 18 18 18
15 15 14 14 15 15 12 12 14 13 12 12 12 11 12 11 11 10 9 8 7 7 7 8 8 9 10 11 12 13 14 15 16 17 18 18 17 17 17 18 17 17 17 17
15 15 15 15 15 15 12 14 14 14 13 13 13 13 13 13 12 11 10 10 9 9 8 9 9 10 10 11 12 13 14 15 16 17 17 18 18 17 18 18 17 17 17 16
16 16 16 16 16 14 13 14 15 14 13 14 14 14 14 14 13 13 12 11 11 10 10 10 10 10 11 11 12 13 14 15 16 17 17 18 18 18 18 18 18 17 17 16
18 18 18 18 17 15 14 16 16 15 14 15 16 15 15 15 14 14 14 13 13 12 12 11 11 11 12 12 13 13 14 15 16 17 18 18 18 19 19 19 18 17 17 16
20 20 20 20 19 16 16 18 17 17 16 18 17 17 17 16 16 16 15 15 15 14 13 13 13 13 13 13 14 14 15 16 17 17 18 19 19 19 19 19 19 18 17 17
22 22 22 22 21 18 19 19 20 20 20 20 19 19 19 19 19 18 17 17 16 16 16 15 15 15 15 15 15 16 16 17 17 18 19 19 20 20 20 21 20 19 18 17
25 24 24 24 23 22 22 23 22 22 22 22 22 22 22 21 21 21 20 19 19 18 18 17 17 16 16 16 17 17 18 18 19 19 20 21 21 21 21 22 22 21 19 18
28 28 29 27 25 25 25 26 26 26 26 25 25 25 24 24 23 23 22 22 21 20 20 19 19 18 18 18 19 19 19 20 20 21 21 22 22 22 23 23 23 22 21 20
32 33 33 32 29 30 29 29 29 29 29 28 28 28 27 26 26 25 25 24 23 23 22 22 21 21 21 20 21 21 21 21 22 22 23 23 23 23 24 24 24 23 23 22
35 36 37 36 34 35 33 33 33 33 32 31 31 30 29 28 28 27 27 26 26 25 25 24 24 23 23 23 23 23 23 23 23 24 24 24 24 25 25 25 25 24 24 23

GEFSCGP_500_meanwind_102.txt.gz
Wind_Speed
21 20 18 15 15 15 13 12 12 12 10 9 9 10 9 7 6 5 4 4 4 4 4 4 5 6 8 9 11 13 14 15 15 15 15 16 16 15 14 13 12 11 11 11
19 18 17 17 15 14 13 12 12 11 11 10 9 9 8 6 5 5 4 4 3 3 3 4 5 6 8 10 12 13 14 15 15 16 16 16 16 16 15 14 13 12 11 10
18 18 17 16 14 13 13 12 12 11 10 9 8 8 7 6 5 5 4 3 3 3 3 4 5 6 8 10 12 13 14 15 15 16 16 16 16 16 16 15 14 12 11 10
19 19 17 15 14 13 12 12 11 10 9 8 8 7 7 6 5 5 4 3 3 3 3 4 5 6 8 10 12 13 14 15 15 16 16 17 17 17 16 16 14 12 11 10
18 17 16 15 14 12 11 11 10 9 8 8 8 7 7 6 5 5 4 4 3 3 3 4 5 6 7 10 11 13 14 15 15 16 16 17 17 17 16 16 15 13 12 10
16 15 15 13 12 11 10 10 9 9 9 9 9 8 6 6 6 5 5 4 4 3 3 3 4 6 7 9 11 12 13 14 16 16 16 17 17 17 16 16 15 14 13 11
14 13 12 11 10 10 9 9 9 9 9 10 9 8 7 6 6 6 6 5 4 4 3 3 4 5 7 8 10 11 13 14 16 16 17 17 17 17 16 15 15 15 14 12
12 11 10 10 9 9 9 9 9 10 10 10 9 8 7 7 6 6 6 5 5 4 4 3 4 5 6 8 9 10 12 14 15 16 16 17 17 17 17 16 15 15 15 14
10 9 8 7 7 8 8 9 9 10 9 8 8 8 8 8 7 7 6 6 5 4 4 3 3 4 6 7 9 10 11 13 15 15 16 16 17 17 17 17 16 15 14 14
7 6 6 6 7 7 8 9 9 9 8 8 8 9 9 9 9 8 7 6 5 5 4 3 3 4 5 7 8 9 11 12 14 15 15 16 16 17 16 17 17 16 15 14
5 5 6 7 7 8 9 9 9 9 9 8 8 9 10 10 10 9 8 7 7 5 4 4 3 4 5 6 7 8 10 12 13 14 15 15 15 16 16 16 16 17 16 15
5 6 7 8 8 9 10 10 10 10 9 9 9 9 11 11 10 10 10 9 8 7 5 4 4 4 5 6 7 8 9 11 12 13 14 15 15 15 16 16 16 16 16 16
5 6 7 9 10 10 10 10 10 10 10 10 10 10 11 12 11 11 11 10 9 8 7 6 5 5 5 5 6 7 8 10 11 12 13 14 14 15 15 16 16 16 16 16
7 8 9 10 11 11 11 12 12 12 12 11 11 11 11 12 12 12 11 11 10 9 8 7 6 5 5 5 6 6 8 9 10 11 12 13 13 14 15 15 15 16 16 16
9 10 11 12 13 13 13 13 13 13 13 12 12 12 12 13 13 13 12 12 11 10 9 8 7 7 6 6 6 6 7 8 9 11 11 12 13 13 14 14 15 15 15 15
11 12 12 13 13 14 13 13 14 14 14 14 13 12 13 15 14 13 13 12 12 11 10 9 9 8 7 7 7 7 7 8 9 10 11 12 12 13 13 14 14 14 14 14
13 13 14 14 15 15 14 14 15 15 14 15 14 13 15 15 15 14 14 13 13 13 12 11 10 9 9 8 8 8 8 8 9 10 10 11 12 12 13 13 14 14 14 14
14 15 16 16 16 17 14 15 16 16 15 16 15 15 16 16 16 16 15 15 15 14 13 13 12 11 10 10 9 9 9 9 9 10 10 11 12 12 13 13 14 14 14 14
17 17 18 18 18 17 16 17 17 17 17 18 17 17 18 18 17 17 17 17 16 16 15 14 14 13 12 11 11 11 10 10 10 10 11 11 12 12 13 13 14 14 14 14
19 20 21 20 21 20 17 18 19 19 19 20 19 19 19 19 18 19 19 19 18 18 17 16 16 15 14 13 13 12 12 12 11 11 11 12 12 13 13 14 14 14 15 15
22 23 23 23 24 22 20 21 21 21 22 22 22 21 21 21 21 20 20 20 20 20 19 18 18 17 16 16 15 15 14 14 13 13 13 13 14 14 14 14 15 15 15 15
26 26 26 26 27 25 24 24 24 25 25 24 24 24 23 23 23 22 22 22 22 22 21 20 20 19 19 18 17 17 16 16 15 15 15 15 15 15 15 15 16 16 16 16
29 30 30 30 29 29 29 29 28 28 28 27 27 27 26 26 26 25 24 24 24 24 23 22 22 21 21 20 20 19 18 18 17 17 17 16 16 17 17 17 17 17 17 17
33 33 34 34 32 33 33 32 32 32 31 31 30 30 30 29 28 28 28 27 26 26 26 25 24 24 23 23 22 22 21 20 19 19 19 18 18 18 18 18 18 18 19 19
37 38 38 38 37 37 36 36 37 36 35 35 34 33 33 32 31 31 31 30 29 29 28 28 27 26 26 25 25 24 23 23 22 22 21 20 20 20 20 20 20 20 20 21
40 41 43 42 41 42 40 40 40 40 39 39 38 37 36 36 34 34 34 33 33 32 31 30 30 29 28 28 27 27 26 25 25 24 23 23 23 22 22 22 22 22 22 22

GEFSCGP_500_meanwind_108.txt.gz
Wind_Speed
19 19 18 17 16 15 13 12 11 12 11 8 9 10 10 9 8 8 8 8 7 6 5 6 7 8 9 11 12 14 15 16 18 18 19 19 19 18 18 18 18 17 16 15
17 16 15 16 16 14 13 11 11 12 10 8 9 9 9 9 8 8 8 8 7 6 5 6 7 8 9 11 12 14 15 16 17 18 19 19 19 18 18 18 18 17 16 15
15 15 16 15 14 13 12 11 10 9 7 7 7 7 9 8 7 8 8 7 7 7 6 5 7 8 9 11 12 13 15 16 17 18 19 19 19 18 18 18 18 17 16 15
15 15 14 13 12 12 11 10 9 8 7 6 7 7 8 9 7 8 8 7 7 7 7 7 8 8 9 10 12 13 14 16 17 18 18 19 19 18 18 18 18 17 16 14
12 13 13 12 11 10 9 8 7 7 6 6 6 6 8 11 10 8 7 7 7 8 8 8 8 9 9 10 12 13 14 15 16 17 18 18 18 18 19 18 17 16 16 14
9 10 10 10 10 8 7 6 4 3 3 5 6 7 7 9 10 9 8 8 8 8 9 9 9 9 9 10 11 12 13 15 16 17 17 18 18 18 18 18 17 16 16 14
5 6 7 7 7 6 6 5 3 1 3 5 8 10 9 10 10 11 9 8 8 8 9 9 8 8 9 10 11 12 13 14 15 16 17 17 18 18 18 18 17 16 16 15
2 3 5 5 6 5 5 5 4 3 3 6 8 10 11 11 11 11 10 10 10 9 9 8 8 8 8 9 10 11 12 13 14 15 16 17 18 18 18 18 17 16 15 15
2 2 3 4 5 6 5 5 7 6 4 4 5 10 13 12 11 11 10 10 10 10 9 9 8 8 8 9 10 11 11 12 13 14 15 17 18 18 19 18 17 16 15 15
3 2 3 3 4 5 5 6 6 6 5 3 3 8 14 13 12 11 11 11 11 10 10 9 8 8 8 9 10 10 11 12 13 13 15 16 17 18 18 18 17 16 15 15
2 2 4 5 5 5 6 7 7 7 6 6 8 9 14 15 14 13 12 12 12 11 11 10 9 9 9 9 9 10 10 11 12 13 14 15 16 17 18 18 18 17 16 16
3 2 4 6 7 8 9 9 9 10 9 10 12 12 14 15 15 14 13 13 12 12 11 11 11 10 10 9 9 10 10 11 11 13 14 15 15 16 17 18 17 17 16 16
2 2 3 6 10 10 10 10 11 11 11 11 12 13 15 15 15 15 14 13 13 13 12 12 12 11 11 10 10 10 10 11 11 12 13 14 14 15 16 17 17 17 16 16
4 4 6 8 11 12 13 13 14 14 14 13 13 15 16 17 16 16 16 15 14 13 13 13 13 12 12 11 11 11 10 11 11 11 12 13 14 14 15 16 16 16 16 16
7 8 10 10 12 14 15 15 15 15 16 17 15 16 17 18 17 17 17 16 15 14 14 14 14 14 13 13 12 11 11 11 11 11 11 12 13 14 14 15 15 16 16 15
10 11 12 12 13 15 15 15 16 17 17 17 17 17 18 19 18 17 17 17 17 16 15 15 15 15 15 14 13 13 12 11 11 11 11 12 12 13 14 14 14 15 15 15
13 14 14 14 15 16 16 16 17 18 18 19 19 19 19 19 19 18 19 18 18 17 17 17 17 17 17 16 15 14 14 13 12 12 11 12 12 13 13 13 14 14 14 14
15 16 17 17 17 18 17 18 19 20 20 21 21 21 20 20 20 20 19 19 19 19 19 18 18 19 18 18 17 16 15 14 14 13 13 13 13 13 13 13 14 14 14 14
17 19 20 20 20 21 20 20 20 21 22 23 23 23 22 22 21 21 21 20 20 20 20 20 20 20 20 20 19 18 17 16 16 15 14 14 14 14 14 14 14 14 14 14
20 21 22 23 24 24 23 24 22 23 25 26 26 25 24 24 24 24 23 22 22 22 22 23 22 22 22 22 21 20 20 19 18 17 17 16 16 15 15 15 15 15 15 15
24 25 25 26 27 27 28 28 27 27 29 29 29 28 27 27 27 27 26 26 25 25 25 25 24 24 24 24 23 23 22 21 20 20 19 18 17 17 17 16 16 16 16 16
27 28 29 30 30 31 32 32 31 32 33 33 33 32 32 31 30 30 29 29 28 27 27 27 27 27 26 26 25 25 24 24 23 22 21 20 19 19 18 18 18 17 17 17
30 31 33 33 34 35 36 36 36 36 38 38 38 37 36 35 34 33 33 32 32 31 30 30 30 29 29 28 28 27 26 26 26 25 24 23 22 21 20 20 19 19 19 18
34 35 36 37 37 38 39 40 41 41 42 42 41 41 40 39 38 37 36 36 35 34 33 33 32 32 31 31 30 29 29 29 28 27 26 25 24 24 23 22 21 21 20 20
38 39 40 41 41 43 44 44 44 44 45 45 45 44 44 43 42 41 40 39 38 38 37 36 35 34 33 33 33 32 31 31 30 29 28 28 27 26 25 24 24 23 22 22
41 43 44 44 45 46 46 47 48 48 48 48 48 47 47 46 45 44 43 43 42 41 40 39 38 38 37 36 35 34 34 33 32 32 31 30 29 28 27 27 26 25 25 24

GEFSCGP_500_meanwind_114.txt.gz
Wind_Speed
17 16 15 15 14 14 11 10 10 8 6 4 4 4 4 4 4 3 2 3 3 3 3 3 3 4 6 7 9 10 12 13 15 16 17 18 18 19 19 19 19 18 18 17
16 15 14 13 12 11 9 7 7 7 5 4 2 2 2 3 3 3 2 2 2 2 3 3 4 5 5 7 9 10 12 13 14 16 17 18 18 19 20 19 19 18 17 17
14 13 12 11 10 9 7 6 4 3 3 2 1 1 1 2 2 2 2 2 2 2 3 4 4 5 5 7 9 10 12 13 14 15 16 17 18 19 20 20 19 18 17 17
15 13 12 10 8 7 5 5 3 3 3 2 1 1 1 1 2 2 2 3 2 2 3 4 5 5 6 7 9 10 11 12 13 15 15 17 18 19 20 20 19 18 17 16
13 12 10 9 8 5 5 4 4 3 2 1 1 1 1 0 1 2 3 3 3 3 3 4 5 5 6 7 8 10 11 12 13 14 15 16 17 18 19 20 19 18 18 17
12 11 9 9 7 5 4 4 3 2 1 2 1 0 1 2 3 3 3 4 4 4 4 4 5 5 6 7 8 9 10 11 12 13 14 16 17 18 19 19 18 18 18 17
13 11 9 8 6 5 4 3 2 2 3 2 1 1 2 3 4 4 4 5 5 4 5 5 5 5 6 7 8 9 10 11 12 13 14 15 16 17 18 18 18 18 17 17
11 10 8 7 5 4 3 2 2 3 3 3 2 1 2 3 4 5 6 5 5 5 5 5 6 6 6 7 7 8 9 10 11 12 13 14 15 16 17 18 18 17 17 17
9 9 8 6 5 3 2 1 0 1 2 3 3 3 3 4 6 6 7 7 7 6 6 6 6 7 7 7 7 8 9 10 11 12 13 14 14 15 16 17 17 17 17 17
8 7 6 5 4 3 1 1 1 2 3 3 4 4 6 7 8 8 8 8 8 7 7 7 7 8 8 8 8 8 9 10 10 11 12 13 14 14 15 16 16 16 17 17
6 5 4 3 2 1 0 2 2 3 4 5 5 5 8 9 10 10 9 9 9 8 8 9 9 9 9 9 9 9 9 9 10 10 11 12 13 14 14 15 15 15 16 16
4 3 2 1 1 0 1 3 4 4 5 6 8 7 9 11 11 11 10 10 10 10 9 9 10 10 10 10 10 10 10 10 10 10 11 11 12 13 13 13 14 14 14 15
3 2 2 2 2 3 3 5 6 7 7 9 10 10 11 13 12 12 11 11 11 11 11 11 11 11 11 12 12 11 11 11 10 10 10 11 11 12 12 12 13 13 13 13
4 4 4 4 5 5 6 7 8 9 10 11 12 13 13 14 14 14 13 13 13 13 13 13 13 13 13 13 13 13 13 12 12 11 11 11 11 11 11 11 12 12 12 12
6 7 7 7 7 8 9 10 11 12 12 13 14 14 15 15 16 16 16 15 15 14 14 14 14 14 14 15 15 15 15 14 13 13 12 11 11 11 11 11 11 11 11 11
7 7 8 8 9 10 11 12 12 14 15 15 16 16 17 17 17 17 17 17 16 16 16 16 16 16 16 16 16 17 16 16 15 15 14 13 12 11 11 11 10 10 10 10
9 9 9 9 10 11 13 13 14 15 16 17 17 17 18 18 18 18 18 18 18 18 18 18 18 18 18 18 18 18 18 18 17 17 16 15 14 13 12 12 11 10 10 10
11 11 12 12 12 13 14 15 16 17 18 18 18 19 20 20 20 20 20 20 20 20 20 20 20 21 21 21 21 21 20 20 19 19 18 17 16 15 14 13 12 11 11 10
14 14 15 15 16 16 17 17 18 19 20 20 20 21 22 22 23 23 23 23 23 23 23 23 23 23 23 23 23 23 22 22 22 21 21 20 19 18 17 15 14 13 12 12
16 17 18 18 19 20 20 20 21 22 23 23 23 24 25 25 25 25 26 26 27 27 26 25 25 25 26 26 25 25 25 24 24 24 23 22 21 20 19 18 17 16 14 13
20 20 21 22 23 24 24 24 25 26 27 27 27 28 29 29 30 29 28 29 29 30 30 29 28 28 28 28 28 28 27 27 26 26 26 25 24 23 22 21 19 18 17 16
23 24 25 26 27 27 28 28 28 29 31 31 32 32 32 33 33 33 33 33 32 33 33 33 32 32 31 31 31 30 30 30 29 29 28 27 26 25 25 23 22 21 19 18
26 27 28 29 30 31 31 32 32 33 34 35 36 36 37 37 37 37 37 36 37 37 37 37 36 35 35 35 35 34 33 33 32 31 31 30 29 28 27 26 25 23 22 21
29 31 31 32 33 34 34 35 36 37 38 39 40 40 40 41 41 41 41 40 40 40 40 40 40 39 38 38 38 38 37 36 35 34 33 33 31 31 30 29 28 26 25 23
32 33 34 35 36 37 38 39 40 40 41 42 43 43 44 44 44 44 45 44 44 43 43 43 43 42 42 41 41 41 40 40 39 37 36 35 34 33 32 32 30 29 28 26
35 36 37 37 38 40 41 42 43 44 44 45 46 46 47 48 48 47 47 47 47 47 46 46 46 45 45 44 43 44 43 43 42 41 39 38 37 36 35 34 33 32 30 29

GEFSCGP_500_meanwind_120.txt.gz
Wind_Speed
17 16 16 15 14 12 11 11 10 9 8 7 6 6 5 5 6 6 7 7 7 6 5 5 5 5 5 5 5 6 8 9 10 12 13 14 15 17 17 18 19 19 19 18
16 14 14 13 12 11 11 10 9 8 7 6 5 4 4 4 4 5 6 6 6 5 5 5 5 5 5 5 6 7 8 9 10 12 13 14 15 17 17 18 19 19 19 19
14 13 13 13 11 11 10 8 8 7 6 5 4 3 3 3 3 4 4 5 5 4 4 5 5 5 6 6 7 7 8 9 10 12 13 14 15 17 17 18 19 19 19 19
15 14 13 12 11 10 9 8 7 6 4 4 4 2 2 2 3 3 4 4 3 3 4 5 6 6 6 6 7 7 8 9 10 12 13 14 15 17 17 18 19 19 19 19
15 14 14 13 11 10 9 8 6 5 5 4 4 3 2 2 3 3 4 4 4 4 4 5 5 6 6 6 7 7 8 9 10 12 13 14 15 16 17 18 18 18 19 18
15 14 13 12 11 9 8 7 6 6 5 4 3 2 2 2 2 3 4 4 4 4 4 5 5 6 6 7 7 7 8 9 10 11 13 14 15 16 16 17 18 18 18 18
14 13 11 10 9 8 7 6 6 5 4 3 2 2 1 2 3 4 4 4 5 5 5 6 6 6 7 7 8 8 8 9 10 11 13 14 15 16 16 16 17 17 17 17
12 11 10 9 7 6 5 5 4 3 2 2 2 2 2 3 4 5 5 5 6 6 6 7 7 8 8 8 8 9 9 10 10 11 12 13 15 15 15 16 16 16 17 17
10 9 8 7 6 5 4 3 2 1 1 2 2 3 4 5 5 6 6 7 7 7 7 8 8 8 9 9 9 10 10 10 11 12 12 13 14 15 15 15 15 16 16 16
8 7 6 6 5 4 3 2 0 0 1 1 2 4 4 5 6 7 7 8 9 9 9 10 10 10 10 10 11 11 11 11 12 12 13 13 14 14 14 15 15 15 15 15
7 5 5 4 3 2 2 1 1 2 2 2 2 4 5 6 7 8 9 9 10 11 11 11 11 11 12 12 13 12 12 13 13 13 13 14 14 14 14 14 15 15 14 14
5 4 4 3 3 2 2 2 2 3 3 4 5 5 6 7 7 9 10 10 11 12 12 13 13 13 14 14 15 15 14 14 14 14 14 14 14 14 14 14 14 14 14 14
4 4 3 2 2 3 3 3 4 5 5 6 7 7 8 8 9 10 11 12 12 13 13 14 14 15 15 16 16 16 16 16 16 16 16 15 15 15 15 14 14 13 13 13
3 2 2 3 3 4 4 5 5 6 7 8 8 8 9 10 11 12 13 13 14 14 14 15 16 16 17 17 17 18 18 18 18 18 18 17 17 16 15 15 15 14 13 13
2 3 3 4 5 5 6 6 7 7 8 9 9 10 10 11 12 14 14 15 15 16 16 17 17 18 19 19 19 19 19 19 19 19 19 19 19 18 17 16 16 15 14 13
4 4 5 6 6 7 7 7 8 9 10 11 11 12 13 14 15 16 16 17 17 18 19 19 19 20 20 21 21 21 21 21 21 21 21 21 20 19 19 18 17 16 15 14
6 6 7 7 8 9 9 10 11 11 12 13 14 14 15 16 17 18 19 20 20 21 22 22 23 23 23 23 23 23 24 23 23 23 23 23 22 21 21 20 19 18 17 16
7 8 9 10 10 11 11 12 13 14 14 15 16 17 18 19 20 21 22 23 24 24 24 25 25 26 26 26 26 27 27 26 26 26 26 25 25 24 23 22 21 20 19 18
10 10 11 12 12 13 13 14 16 17 17 18 19 20 21 22 23 24 26 27 27 28 28 29 29 30 30 30 30 30 30 30 29 29 29 28 28 27 26 25 24 23 22 21
12 13 14 15 16 16 16 17 18 20 20 22 23 24 25 26 27 28 29 31 32 32 33 33 34 34 34 34 34 33 33 33 33 32 32 31 30 30 29 28 27 25 25 24
15 16 16 18 19 19 20 21 22 23 24 25 26 28 29 30 31 32 33 34 35 36 36 37 38 38 38 38 37 36 36 36 36 35 34 34 33 32 32 31 30 29 27 26
18 19 20 21 22 22 23 24 24 26 27 28 29 31 33 34 35 36 37 38 39 40 41 41 41 41 42 42 41 40 39 39 39 39 37 36 36 36 34 34 33 32 31 29
21 22 23 24 25 26 27 27 28 29 30 32 33 35 36 37 38 40 41 42 42 43 44 44 44 44 44 44 44 43 42 41 41 41 40 40 39 39 38 37 36 35 34 32
25 26 27 27 28 29 29 30 31 32 34 35 37 38 40 41 42 43 44 45 46 47 47 47 47 47 46 46 46 46 45 45 44 44 43 42 42 42 41 40 39 38 37 35
29 30 30 30 31 32 32 33 35 36 37 39 40 41 43 44 45 46 47 48 49 49 49 49 49 49 48 48 47 48 47 47 46 45 45 44 44 44 43 42 42 41 39 38
32 33 33 33 34 35 35 37 38 39 40 41 43 44 45 46 48 49 50 51 51 51 51 51 51 51 50 49 49 48 48 48 47 46 45 45 44 44 44 44 44 44 42 41

GEFSCGP_500_meanwind_126.txt.gz
Wind_Speed
18 18 18 18 17 15 14 13 12 11 9 8 8 7 7 6 6 5 6 6 7 7 6 6 7 7 7 7 7 8 9 10 11 11 12 13 14 15 16 16 17 18 19 19
18 17 17 17 16 14 13 13 12 10 8 7 7 6 6 5 5 4 4 5 6 6 5 6 6 7 7 7 8 8 9 10 11 12 12 13 14 15 15 16 17 18 19 19
17 16 16 15 15 14 13 12 10 9 8 7 6 5 5 4 4 3 4 4 5 5 5 6 6 7 7 7 8 8 9 10 11 12 13 13 14 15 16 16 17 18 18 19
16 16 16 15 14 13 12 11 10 9 8 7 6 4 4 3 3 3 4 4 4 4 5 5 5 6 7 8 8 9 9 11 11 12 13 13 14 15 16 17 17 18 18 19
16 16 15 14 12 12 12 11 9 9 8 6 6 4 3 3 3 3 3 3 3 4 5 5 6 6 7 8 8 9 10 11 12 12 13 14 14 15 16 17 17 18 18 18
15 14 14 13 12 11 11 11 9 8 7 6 6 5 4 3 2 2 2 3 4 4 5 6 6 7 8 8 9 10 11 12 13 13 14 14 15 16 16 17 17 17 18 18
13 13 12 12 12 11 10 10 9 7 7 6 5 4 3 2 1 1 2 4 4 5 6 6 7 8 9 10 11 11 12 13 14 14 15 15 16 16 17 17 17 17 18 18
13 12 11 11 10 10 9 9 9 8 7 6 5 4 2 1 1 2 4 5 5 6 7 8 8 9 10 11 12 13 13 14 15 15 15 16 16 17 17 17 17 18 18 18
12 10 10 10 10 9 8 7 8 7 6 5 4 3 2 1 2 3 5 6 7 8 9 9 10 10 11 12 13 14 14 15 15 16 16 16 17 17 18 17 18 18 17 17
12 10 10 10 9 8 8 7 7 6 5 4 3 2 2 3 3 4 5 6 7 8 9 10 11 11 12 12 13 14 15 16 16 17 17 17 18 18 18 18 18 18 18 17
10 9 8 8 7 7 7 6 6 5 5 4 4 3 3 4 4 5 6 6 7 8 9 10 11 12 13 14 15 15 16 16 17 18 18 19 19 19 19 19 19 19 18 18
7 7 6 6 6 6 5 5 4 4 4 3 4 4 4 5 5 5 6 7 8 9 10 11 12 13 14 15 16 16 17 18 18 19 19 20 20 20 20 20 20 19 19 19
6 6 5 4 4 4 3 3 2 2 2 2 3 4 4 5 6 6 7 9 10 11 12 12 13 14 15 16 17 18 19 20 20 21 21 21 21 21 21 21 21 20 20 19
4 4 4 3 3 2 2 2 2 2 3 3 4 5 6 6 7 8 9 11 11 12 13 15 16 16 17 18 19 20 21 22 22 22 23 23 23 23 23 22 22 22 21 20
3 3 2 2 2 2 2 3 3 4 4 5 6 7 7 8 9 10 11 12 13 14 16 17 18 19 20 21 22 22 23 24 24 25 25 25 26 26 25 24 24 23 22 22
3 3 3 4 4 4 4 4 5 5 6 6 8 8 9 10 11 12 13 14 15 17 18 19 20 21 22 23 24 25 26 27 27 27 28 28 28 28 28 27 26 25 24 23
5 5 5 5 5 6 5 6 7 7 8 9 9 10 11 12 14 15 16 17 18 19 20 21 22 23 24 25 26 28 29 29 30 30 30 30 30 30 30 29 29 28 27 25
6 7 7 7 7 7 8 8 9 10 11 11 12 13 14 15 17 18 19 20 21 22 23 24 25 26 27 29 29 30 31 31 32 33 33 33 33 33 32 31 31 30 29 28
8 8 9 9 9 10 10 11 12 12 13 14 15 16 17 18 20 21 22 24 25 26 27 28 29 30 31 32 32 33 34 34 34 35 35 35 35 35 34 34 33 33 32 30
11 11 11 11 12 13 13 14 15 16 16 17 18 19 19 21 23 24 25 27 28 30 31 32 32 33 34 35 35 36 36 37 37 37 37 37 37 37 37 37 36 36 35 33
14 14 14 15 16 16 16 17 17 18 19 19 20 21 22 23 25 27 28 29 31 32 33 35 36 36 37 38 38 39 39 40 40 40 40 39 39 39 39 39 39 39 38 36
16 17 17 18 19 19 20 20 21 21 22 22 23 24 25 26 28 29 31 32 33 34 36 37 38 38 39 40 41 41 42 43 43 43 43 42 42 41 40 40 41 40 40 39
20 20 20 21 21 22 22 23 24 24 25 25 26 27 28 29 30 32 33 35 36 36 38 39 40 40 41 42 43 44 45 46 46 46 45 44 44 43 42 41 41 40 40 40
23 23 24 24 24 24 25 26 26 27 28 28 29 29 30 32 33 34 35 36 37 39 40 41 42 43 43 44 46 47 47 48 48 47 47 46 45 44 43 42 42 41 40 41
26 27 27 27 27 27 28 29 29 30 30 31 31 32 33 34 35 36 37 38 40 41 42 43 44 45 46 47 48 49 49 49 49 48 48 47 47 46 45 43 42 41 41 41
29 30 30 30 30 30 30 31 32 32 33 33 34 35 36 37 38 39 40 41 42 43 45 46 47 48 49 49 50 50 49 49 49 48 48 47 46 45 45 44 43 42 42 42

GEFSCGP_500_meanwind_132.txt.gz
Wind_Speed
18 18 18 17 15 14 13 12 10 8 6 6 6 6 5 4 5 5 5 5 6 6 6 5 3 4 5 6 7 7 8 9 10 12 13 15 15 16 16 17 18 19 19 20
17 17 16 16 14 13 13 12 10 8 6 5 5 5 5 5 5 5 5 5 5 5 5 4 4 5 5 5 6 7 9 10 11 13 14 15 16 16 16 17 18 19 19 20
15 16 16 14 13 13 12 11 10 7 6 4 4 4 5 5 5 4 4 4 4 4 4 3 4 5 5 5 6 7 8 10 12 13 14 15 16 16 17 17 18 19 20 20
14 15 15 14 13 12 11 10 8 6 6 4 3 4 4 4 3 3 3 4 3 3 4 4 4 4 4 5 7 8 10 11 12 14 15 15 16 16 17 17 18 19 19 20
12 13 14 14 13 12 11 9 9 7 6 4 3 5 4 4 4 3 4 4 3 3 4 4 4 5 5 6 8 9 11 12 14 15 15 16 17 17 18 18 19 19 19 20
11 11 12 12 11 11 11 10 9 9 9 7 5 6 4 5 5 4 4 4 3 3 3 4 4 5 6 7 9 10 11 13 14 15 16 17 17 18 18 19 19 19 19 20
10 9 10 12 12 12 13 12 10 8 6 6 6 7 7 7 6 5 5 4 4 4 4 4 5 6 7 8 10 11 12 13 14 15 16 17 17 18 19 19 20 20 20 20
9 9 9 12 14 15 13 12 10 7 5 4 6 7 7 7 7 6 6 5 4 4 4 5 6 7 8 9 10 11 13 13 14 15 16 17 18 19 19 20 20 20 21 20
8 7 8 10 11 12 11 9 8 7 6 6 7 7 7 7 7 6 6 5 5 5 5 6 7 8 9 10 11 12 13 14 15 16 17 18 19 20 20 21 21 21 21 21
8 7 7 8 9 9 9 9 9 9 8 8 8 8 6 7 6 6 6 6 6 6 6 7 8 9 10 11 12 13 14 15 16 17 18 20 21 21 22 22 22 22 22 22
6 5 5 6 7 8 8 9 11 12 10 8 9 10 8 7 7 7 6 6 7 7 7 8 8 10 10 12 13 14 15 17 18 19 20 21 22 22 22 23 23 23 23 23
8 5 2 3 4 6 8 7 8 9 9 9 9 9 10 9 9 8 8 8 8 8 8 9 10 11 12 13 15 16 17 19 20 21 22 23 23 24 24 24 24 24 24 24
9 7 3 2 3 5 6 6 7 7 7 9 10 10 10 10 10 10 9 9 9 10 10 11 12 13 14 15 17 18 19 20 21 23 24 24 25 26 26 26 25 25 25 24
8 8 6 6 6 6 7 6 7 8 8 9 10 11 11 11 11 11 11 11 12 12 12 13 13 15 16 17 19 20 21 22 23 24 25 26 27 27 27 27 27 27 26 25
8 8 8 9 8 8 7 7 8 8 9 9 9 11 9 10 11 12 12 12 13 13 14 15 16 17 18 19 21 22 23 24 25 26 27 28 29 29 29 29 29 28 28 27
8 8 8 8 8 8 8 8 8 9 10 10 11 11 11 11 12 13 13 14 14 15 16 17 18 19 21 22 23 24 26 27 28 29 30 30 31 31 31 31 31 31 30 29
9 8 9 9 9 9 9 9 10 10 11 12 12 12 13 13 14 14 15 16 16 17 18 19 21 22 23 25 26 27 28 29 30 31 31 32 32 32 32 33 33 33 32 32
11 10 10 10 10 11 10 10 11 12 13 14 14 15 15 15 16 16 17 18 18 20 21 22 24 25 27 28 29 29 30 31 32 32 33 33 33 33 34 34 34 34 34 34
13 13 13 12 13 13 12 12 14 14 14 15 16 16 16 17 18 18 18 20 21 22 24 25 26 28 29 30 31 32 33 33 34 34 34 35 35 35 36 36 37 37 36 36
15 15 15 15 16 17 15 13 16 17 17 16 18 18 19 20 21 20 21 23 24 26 27 28 29 30 31 32 33 34 35 35 35 36 36 37 37 38 38 39 39 39 39 39
17 18 18 18 18 20 17 17 19 20 19 19 20 21 22 23 24 24 25 26 27 28 29 30 31 32 33 34 35 36 37 37 38 38 39 39 40 40 41 42 42 42 42 42
20 20 21 21 22 23 20 21 22 23 23 23 23 24 25 26 27 27 28 29 30 31 31 32 33 34 35 36 37 38 39 39 40 40 41 42 42 42 43 44 45 45 45 44
23 23 24 24 25 24 24 25 25 26 26 26 27 27 28 29 29 30 31 32 32 33 34 35 36 36 37 38 39 40 41 41 42 42 43 43 44 45 46 46 46 46 46 45
26 26 27 28 28 28 28 28 28 29 29 29 30 30 31 31 32 33 34 35 36 36 37 38 38 39 40 40 41 42 43 44 44 44 45 45 46 46 47 47 47 46 46 45
29 29 29 30 31 31 31 32 32 32 33 33 33 34 34 35 36 36 37 37 38 39 39 40 40 41 42 43 44 44 45 46 46 47 47 47 47 47 47 47 47 47 46 45
32 32 33 34 34 34 34 35 34 35 35 36 36 37 37 38 38 39 39 40 40 41 41 42 42 43 44 45 46 47 47 48 49 49 49 49 48 48 48 47 47 47 46 45

GEFSCGP_500_meanwind_138.txt.gz
Wind_Speed
20 19 17 17 16 15 15 14 13 12 11 9 9 8 7 6 5 4 4 4 3 3 2 2 2 2 2 1 1 1 2 4 6 7 8 9 10 11 12 12 13 14 15 15
19 18 17 16 15 14 14 13 12 12 11 10 9 7 6 6 5 4 3 4 4 3 3 3 3 2 2 1 1 2 3 5 6 7 8 9 11 11 13 13 14 15 15 16
17 17 16 15 14 14 12 13 12 12 11 10 8 6 6 5 4 3 3 4 4 3 3 3 3 3 3 1 1 2 3 5 6 7 9 10 11 12 13 14 15 16 16 16
18 17 16 15 14 14 12 12 12 11 10 8 7 5 5 5 4 4 3 3 3 4 3 3 3 3 2 1 1 2 4 5 7 8 9 10 11 12 13 15 15 16 17 17
16 16 15 14 14 14 13 12 12 11 9 8 7 6 5 5 4 4 3 3 4 4 4 3 3 3 2 2 2 3 4 6 7 8 9 10 12 13 14 15 16 16 17 18
15 15 15 15 14 15 14 13 12 11 9 8 7 6 5 4 3 3 3 3 3 3 3 3 3 2 2 2 3 3 5 6 7 8 10 11 12 14 15 15 16 16 17 18
15 14 14 14 14 14 14 13 13 11 10 8 6 5 5 4 3 2 2 2 2 2 3 3 2 2 3 3 3 5 6 7 8 9 11 12 14 15 16 17 17 17 18 19
13 13 13 12 12 12 12 11 11 10 9 7 6 4 5 4 3 2 2 2 2 3 3 3 3 3 3 4 5 6 7 8 9 11 12 14 15 16 17 17 18 19 19 20
12 13 13 12 12 12 11 11 10 10 9 8 6 4 4 4 3 2 2 3 3 3 4 4 4 4 5 5 6 7 8 9 10 11 13 15 16 17 17 18 19 19 20 20
11 11 12 12 12 12 11 10 10 9 9 9 6 4 3 2 2 3 3 4 4 4 5 5 6 6 6 7 7 9 10 11 12 13 15 16 17 18 18 19 20 21 21 22
11 11 11 11 10 10 11 11 10 9 9 9 7 4 4 3 4 4 5 5 5 5 5 7 7 7 8 8 9 10 11 12 13 15 16 17 18 19 20 21 22 23 24 24
9 10 10 10 10 10 10 11 10 10 9 8 7 5 6 5 5 5 5 6 6 6 6 7 8 9 9 10 11 11 12 13 15 16 18 19 19 20 22 23 24 25 25 26
8 8 9 9 9 10 10 10 10 10 10 9 9 7 7 7 6 6 6 7 8 8 9 9 10 10 11 12 13 14 14 16 17 18 19 20 21 22 23 25 26 27 27 27
7 8 8 8 8 9 9 10 10 10 10 9 10 9 8 9 8 8 8 8 9 10 11 11 12 13 13 14 15 16 17 18 19 20 21 22 23 24 25 27 28 28 29 29
9 9 9 9 9 10 10 10 10 10 9 9 10 10 9 9 9 9 9 9 11 12 13 13 14 14 15 16 17 18 19 21 21 22 23 24 25 26 28 29 30 30 31 30
10 10 10 10 10 10 11 11 11 11 11 10 10 9 9 10 10 10 10 11 12 13 14 15 15 16 17 18 19 20 22 23 24 24 25 26 27 29 30 30 32 32 32 32
12 12 12 12 12 12 11 11 12 11 11 11 10 10 10 11 11 11 12 13 13 14 15 16 17 18 19 20 22 23 24 25 26 27 28 29 30 31 32 32 33 34 34 34
14 14 14 14 14 14 11 13 13 12 12 12 11 11 11 12 12 13 14 15 16 17 18 19 20 21 22 23 25 26 26 27 28 29 30 32 33 34 34 35 35 36 35 35
15 15 16 16 16 14 13 13 14 14 13 13 12 12 13 13 14 14 16 17 18 19 20 21 22 23 25 26 27 28 29 29 30 31 32 33 34 35 36 37 37 37 36 36
16 17 17 17 17 15 13 14 15 15 14 13 14 14 15 15 16 17 18 19 20 21 22 24 25 26 27 28 29 30 31 32 32 33 34 35 36 37 38 38 38 37 38 38
18 18 18 18 18 16 15 16 16 17 16 16 17 17 17 18 19 19 21 22 23 24 25 26 27 28 29 30 30 31 33 34 35 35 36 37 38 39 39 39 39 39 40 41
20 20 20 20 20 18 18 18 19 19 19 19 19 20 20 21 21 22 23 24 25 26 28 29 29 30 31 32 33 33 34 35 36 37 38 39 40 41 41 41 41 41 42 43
22 22 22 22 22 21 21 21 21 21 22 22 23 23 24 24 25 26 26 27 28 29 30 31 31 32 33 34 35 36 36 37 38 39 40 41 41 42 43 43 43 43 43 44
24 24 25 25 25 24 25 25 25 25 25 26 26 27 27 28 29 29 30 30 31 31 32 33 34 35 35 36 37 38 38 39 40 42 42 43 43 44 44 45 45 45 45 45
26 27 28 28 27 28 28 28 29 29 29 30 30 31 31 31 32 32 33 33 34 34 35 36 36 37 38 39 39 40 41 41 42 43 43 44 45 45 46 47 47 47 47 47
28 29 30 30 30 31 31 31 31 31 32 32 33 33 34 34 34 35 35 35 35 36 37 38 39 40 41 41 42 42 42 43 44 44 45 46 47 47 48 48 48 49 49 49

GEFSCGP_500_meanwind_144.txt.gz
Wind_Speed
16 16 16 15 15 15 14 14 13 12 11 11 11 10 10 10 10 9 9 8 8 8 8 8 7 6 5 4 4 2 2 3 4 5 6 7 8 9 10 11 12 13 13 14
16 15 15 15 14 14 14 13 12 12 11 10 10 9 10 10 9 9 9 9 8 8 8 8 7 6 6 5 4 3 2 3 4 5 6 7 8 9 11 12 13 14 14 15
15 15 15 15 14 14 14 13 12 11 11 10 9 9 9 10 9 10 9 9 9 8 8 9 7 6 6 5 4 3 3 3 4 5 6 7 8 10 11 12 14 14 15 16
15 14 14 14 13 13 13 12 12 11 11 10 10 9 9 10 9 9 9 9 9 8 9 8 8 7 6 6 4 4 3 4 4 5 6 7 9 10 12 13 14 15 16 17
14 13 12 11 12 12 12 12 12 12 11 10 9 8 9 10 10 9 9 9 8 9 9 8 7 7 6 6 5 4 4 4 5 6 7 8 9 11 12 13 15 16 17 18
13 13 12 12 12 12 12 11 11 11 10 9 9 8 8 9 9 10 9 9 8 9 8 8 8 7 6 6 5 4 4 5 6 6 7 8 10 12 13 14 15 17 18 19
11 12 12 13 13 12 11 11 10 10 9 8 8 7 7 8 9 9 9 9 8 9 8 8 8 7 6 6 5 5 5 6 7 7 8 10 11 12 14 15 16 17 18 19
10 11 12 13 12 12 11 9 9 9 8 7 8 7 7 7 8 8 8 8 8 8 8 8 8 7 7 6 6 6 7 7 8 9 10 11 12 13 15 16 17 18 19 20
11 10 12 13 13 12 11 10 9 8 8 7 7 7 7 7 8 7 7 7 7 8 8 8 7 7 7 7 7 7 8 9 9 10 11 12 13 15 16 17 18 19 20 21
11 11 12 12 13 12 11 10 10 9 8 8 7 7 7 8 7 7 7 7 7 7 7 7 7 8 8 8 9 9 10 10 11 12 13 14 15 16 17 17 19 20 21 22
9 10 11 11 11 11 11 11 10 9 9 8 7 7 7 8 8 8 8 7 8 8 8 8 8 8 9 9 10 11 11 12 12 13 14 15 16 17 18 19 20 21 22 23
9 9 10 10 11 12 12 12 11 10 10 9 8 7 8 8 8 8 8 8 8 9 9 9 9 9 10 10 11 12 12 13 14 15 16 17 18 19 19 20 21 22 23 24
9 9 9 9 10 10 10 11 11 11 11 10 9 8 9 9 9 9 9 9 9 10 10 10 10 10 11 12 13 13 14 15 16 17 18 19 20 21 22 22 23 24 25 26
9 9 9 9 9 10 10 10 11 12 11 10 9 9 10 11 11 11 11 11 11 11 11 12 12 12 13 13 14 15 15 16 18 19 20 21 22 22 23 24 25 26 27 28
9 10 11 11 12 12 11 11 11 11 11 11 11 11 11 12 13 13 13 13 13 13 13 13 13 14 14 14 15 16 17 18 19 20 21 23 24 24 25 26 27 27 28 30
12 12 12 12 13 14 13 12 12 12 12 12 12 12 13 14 14 14 14 14 14 14 14 14 15 15 16 16 17 18 19 20 21 22 24 25 25 26 27 28 29 29 30 31
14 13 13 13 14 14 13 13 14 14 13 13 13 13 14 15 15 15 15 15 15 15 15 15 16 17 17 18 19 20 21 22 24 25 26 26 27 28 29 29 30 31 32 32
15 15 15 14 15 15 13 14 15 15 15 15 15 15 16 16 16 16 16 16 16 16 16 16 17 18 19 20 21 22 24 25 26 27 28 28 29 29 30 31 32 32 33 34
16 16 17 16 16 15 14 15 16 17 16 16 17 17 17 16 16 16 17 16 17 18 18 18 19 20 22 23 24 25 26 27 28 29 30 30 31 31 32 32 33 34 34 35
18 18 18 18 18 17 15 17 18 17 17 17 18 18 17 17 17 17 18 18 19 19 20 21 21 22 24 25 25 27 28 29 30 30 31 31 32 33 33 34 35 36 37 37
20 20 19 19 19 17 17 18 18 18 17 18 19 19 19 19 19 19 19 20 21 21 22 23 24 25 26 27 28 29 30 31 31 32 33 33 34 35 35 36 37 38 39 39
20 21 20 20 20 18 19 19 20 19 20 20 20 20 20 20 21 21 22 23 23 24 25 25 26 27 28 29 29 30 32 32 33 34 34 35 36 36 37 38 39 40 40 40
21 21 22 22 21 21 21 22 22 22 22 22 23 23 23 23 23 24 24 25 26 27 27 28 29 29 30 31 32 33 34 34 35 36 36 37 38 39 40 40 41 41 42 42
23 24 24 24 23 24 24 24 25 25 25 25 25 25 26 26 26 26 27 27 28 30 30 31 31 32 32 33 34 35 35 36 37 38 39 39 40 41 42 43 43 44 44 44
26 26 27 26 26 27 27 27 28 28 28 28 29 29 29 29 29 30 30 31 31 32 33 33 33 34 35 35 36 37 38 39 39 40 41 42 43 44 44 45 45 46 46 46
27 29 30 29 29 30 29 30 30 31 31 31 32 32 32 32 32 32 33 33 34 34 35 35 35 36 37 38 38 39 40 40 41 42 43 43 44 45 45 46 46 47 48 48

GEFSCGP_500_meanwind_150.txt.gz
Wind_Speed
17 17 20 20 20 18 17 16 15 14 13 12 12 12 13 12 12 11 10 9 9 9 9 8 8 6 5 5 4 3 3 3 3 3 3 4 5 6 7 8 9 10 11 12
16 16 17 19 18 18 16 15 13 12 11 10 9 9 11 12 11 11 10 9 9 9 9 9 8 7 6 5 4 4 4 3 3 3 3 4 5 5 6 7 8 9 10 12
13 15 16 17 17 18 17 15 13 11 10 9 8 8 9 11 11 10 10 9 9 9 9 9 9 8 7 6 5 4 4 4 3 3 3 3 4 5 6 8 9 10 11 12
11 13 14 14 15 16 15 14 13 11 10 9 9 9 9 9 10 10 10 10 9 9 9 9 9 9 8 7 6 5 4 4 3 3 3 4 5 6 7 9 9 11 12 13
11 12 13 13 14 15 14 14 13 12 10 9 9 8 8 9 9 9 9 9 9 10 10 10 9 9 9 8 7 6 6 5 4 4 4 5 6 7 8 9 10 11 13 13
10 11 12 13 13 14 13 12 12 10 8 8 9 8 8 9 8 9 9 9 10 10 10 10 10 10 9 9 8 8 7 6 5 5 5 6 6 7 8 9 10 12 13 13
9 10 12 12 12 13 12 11 9 9 8 9 9 9 8 9 9 8 9 9 9 9 10 11 10 10 10 10 9 8 8 7 6 6 7 7 7 8 9 10 11 13 13 13
9 10 11 11 12 12 12 11 10 9 9 9 9 8 8 9 9 9 9 9 10 10 10 10 10 10 10 10 9 9 8 7 7 7 8 8 8 9 10 11 12 13 14 14
9 10 11 11 12 12 12 11 10 9 8 8 8 9 8 8 9 9 9 10 10 10 10 10 10 11 11 10 10 9 9 8 8 9 9 10 10 11 12 13 14 14 15 15
8 9 10 11 11 11 11 11 10 9 8 8 8 9 10 9 9 9 10 10 10 10 10 10 10 10 11 11 10 10 10 10 10 10 11 11 12 13 13 14 15 15 16 16
7 8 9 10 11 10 11 10 9 9 9 8 7 8 10 10 10 10 10 10 10 10 10 10 11 11 11 11 11 11 11 11 11 11 12 13 13 14 15 15 16 17 17 17
7 8 8 9 10 10 11 11 10 10 10 10 9 9 10 11 11 11 11 10 10 10 10 11 11 12 12 12 12 12 12 12 13 13 13 14 15 15 16 17 17 18 18 19
7 7 8 8 9 10 10 11 11 10 11 10 10 10 11 12 12 12 12 11 11 11 11 11 12 13 13 13 13 13 14 14 14 14 15 16 17 17 18 18 19 19 19 20
8 8 9 10 10 10 10 10 10 11 10 10 11 11 12 12 13 13 13 12 12 12 13 13 13 13 14 14 14 14 15 15 16 16 17 18 19 19 19 20 20 21 21 22
9 9 10 11 11 11 10 11 11 11 11 11 11 12 12 13 14 14 14 14 14 14 14 14 14 14 14 15 15 16 16 17 17 18 19 20 20 20 21 21 22 22 23 23
11 11 11 12 13 13 12 12 12 12 12 13 13 13 14 15 15 15 15 15 15 15 15 15 15 16 16 16 17 17 18 18 19 20 20 21 21 22 22 23 23 23 24 24
13 13 14 14 15 15 13 13 14 14 14 14 14 14 15 16 16 16 16 16 16 16 16 16 17 17 17 18 18 19 19 20 21 21 22 22 23 23 24 24 24 25 25 27
15 15 15 15 16 16 14 15 16 15 15 15 15 15 15 15 16 16 16 16 16 17 17 17 18 18 19 19 20 20 21 21 22 22 23 24 24 25 25 26 26 27 27 28
16 16 16 16 16 15 15 16 16 16 16 16 16 16 16 15 15 16 16 17 17 17 18 18 19 19 20 20 21 21 22 22 23 24 24 25 26 26 27 27 28 28 28 29
17 17 17 17 17 16 16 17 17 17 16 16 16 17 17 16 17 16 17 17 18 18 19 19 20 20 21 21 22 23 23 23 24 25 26 26 27 28 28 29 29 30 30 31
18 19 18 18 18 17 17 17 17 17 17 17 17 18 17 17 17 17 18 18 19 19 20 20 21 21 22 23 24 25 25 26 26 27 27 28 29 29 30 30 31 32 32 33
19 19 19 19 20 18 19 18 19 19 19 18 18 19 19 18 18 18 19 20 21 21 21 22 23 23 24 25 26 27 27 28 28 28 29 30 31 31 32 33 34 34 35 35
21 21 21 21 21 21 21 21 21 21 20 20 20 20 20 20 20 20 21 21 22 23 24 24 25 25 26 26 27 28 29 29 29 30 31 32 32 33 34 35 36 37 37 38
23 23 23 23 23 23 23 23 22 22 22 22 21 21 22 22 22 22 23 23 24 25 26 26 27 27 28 29 29 30 30 31 31 32 33 34 35 35 36 37 38 39 39 40
24 25 25 25 25 25 25 25 24 24 24 24 24 24 24 25 25 25 25 26 26 27 28 28 28 29 29 30 31 31 32 33 33 34 35 36 36 37 38 39 40 40 41 42
26 27 27 27 27 27 27 27 27 27 27 27 27 27 28 28 28 28 28 29 29 29 29 29 30 31 31 32 33 33 34 35 36 37 37 38 39 39 40 41 41 42 42 43

GEFSCGP_500_meanwind_156.txt.gz
Wind_Speed
16 16 15 14 13 13 13 13 14 15 13 12 11 11 12 11 10 10 10 10 10 9 8 7 6 6 5 4 2 1 2 2 3 3 4 4 5 6 7 8 9 11 12 13
15 15 14 14 13 12 12 11 12 14 13 11 10 9 10 10 11 10 10 10 9 9 8 7 6 6 5 4 3 2 2 2 2 3 3 4 5 6 7 9 10 10 12 13
13 13 12 12 12 13 12 11 11 11 11 9 8 7 8 9 9 10 11 10 10 8 8 7 6 6 5 4 4 3 3 2 3 3 4 4 6 7 8 9 9 10 11 12
11 11 11 12 13 13 12 11 10 10 10 8 7 6 8 8 9 10 10 9 8 8 7 7 6 6 6 5 4 4 3 3 3 3 4 5 6 7 8 9 10 10 11 12
10 10 11 12 13 13 12 11 10 9 8 6 5 5 6 7 8 10 10 9 7 7 7 7 6 6 6 6 5 5 4 4 4 4 5 6 7 7 8 9 10 11 11 12
9 10 10 12 13 12 12 11 9 8 7 5 5 5 6 7 8 9 9 8 8 7 7 7 7 7 7 7 7 6 6 6 6 6 6 7 8 8 9 10 10 11 12 13
7 8 8 9 12 12 12 12 10 7 5 3 5 5 7 7 8 8 8 8 7 7 7 7 7 7 8 8 8 7 7 7 7 7 8 8 9 9 10 11 11 12 13 14
3 5 6 8 10 11 11 10 9 7 6 5 4 5 7 7 7 7 8 8 8 8 8 8 8 8 8 8 8 8 8 8 9 9 9 10 10 11 11 12 12 13 14 14
4 4 6 7 9 10 10 10 9 7 6 5 5 6 7 7 8 8 8 8 8 8 8 8 9 9 9 9 9 9 9 10 10 10 11 11 11 12 12 13 13 14 14 15
6 6 6 7 9 10 10 10 10 8 7 6 5 6 9 8 8 9 9 9 9 9 9 9 9 10 10 10 10 10 11 11 12 12 12 12 12 12 13 13 14 15 15 15
6 6 7 8 9 9 11 11 11 11 9 7 7 8 10 9 9 9 9 9 9 10 10 10 10 10 11 11 11 12 12 12 13 13 13 13 13 14 14 15 15 16 16 16
7 7 7 7 7 9 9 11 12 11 10 10 7 7 10 10 10 10 10 10 10 10 11 11 11 11 12 12 12 12 13 14 14 14 14 14 15 15 16 16 17 17 18 18
7 6 6 6 7 8 10 10 10 10 9 10 10 9 10 11 12 12 11 12 12 11 11 11 12 13 13 13 13 13 14 14 15 15 15 16 16 17 17 18 18 19 19 19
7 6 6 6 7 9 10 10 10 11 10 10 11 10 11 12 13 13 12 12 13 12 12 12 13 13 14 14 15 15 15 15 16 16 17 17 18 18 19 19 20 20 20 20
8 8 8 8 9 10 11 11 11 12 12 12 12 13 13 15 16 15 14 13 14 14 13 14 14 14 15 15 15 16 16 16 17 17 18 18 19 20 20 21 21 21 21 21
10 10 10 9 10 11 11 12 13 13 13 14 15 15 15 16 17 16 16 15 15 16 16 15 15 15 16 16 16 16 16 17 18 18 19 20 21 21 22 22 22 23 23 23
11 11 11 10 10 12 12 12 13 14 15 16 17 16 17 17 17 17 16 17 17 17 18 17 16 16 17 17 17 18 18 19 19 20 20 21 22 22 23 23 24 24 24 24
13 13 13 13 12 13 13 15 15 16 16 17 17 17 18 18 18 18 18 17 17 17 17 17 17 17 18 18 19 19 20 20 20 21 21 22 23 23 24 24 24 24 24 25
15 16 16 16 16 15 15 16 16 17 16 17 17 18 19 19 19 19 19 18 18 18 18 18 18 19 19 20 20 20 21 21 22 22 23 23 24 24 24 25 25 26 26 27
17 18 18 18 18 17 18 18 18 17 18 17 18 18 19 20 20 20 19 19 19 19 19 19 19 20 20 21 21 21 22 22 23 24 24 25 25 25 25 26 27 28 28 28
18 18 19 19 19 20 20 20 18 19 19 19 19 19 19 20 21 20 20 20 20 20 20 20 21 21 21 22 22 23 23 23 24 24 25 26 26 26 27 28 29 29 30 30
21 20 20 20 21 22 22 21 21 21 21 21 20 20 20 21 22 21 21 22 21 21 21 22 22 22 23 23 23 24 24 25 25 25 26 27 28 28 29 30 31 31 32 32
22 22 22 23 24 24 23 23 23 23 23 23 22 22 22 22 22 23 23 23 23 23 23 23 23 24 24 24 25 25 25 26 27 28 28 29 30 30 31 32 32 33 34 34
24 25 24 24 25 26 25 25 25 25 25 25 24 24 24 24 24 24 25 25 25 25 25 25 25 25 26 26 27 27 27 28 29 30 30 31 32 32 33 34 35 35 36 37
27 27 27 26 26 27 27 26 26 27 27 27 27 27 27 26 26 26 27 27 27 27 27 27 27 28 28 28 29 29 30 31 31 32 32 33 34 34 35 36 37 37 38 39
27 28 29 28 28 29 28 27 27 28 28 29 29 28 28 28 28 28 28 28 28 29 29 29 29 30 30 30 31 31 32 33 33 34 34 35 36 37 38 38 39 39 40 41

GEFSCGP_500_meanwind_162.txt.gz
Wind_Speed
12 12 13 14 15 14 15 16 15 14 14 14 12 12 11 11 11 11 10 10 10 10 10 8 7 7 6 5 4 3 3 2 1 0 0 1 2 3 4 5 7 8 8 9
12 12 11 11 13 14 14 14 14 14 14 14 13 12 12 12 12 11 10 10 10 9 9 9 7 7 6 6 5 4 4 3 2 1 1 1 2 3 4 5 7 7 8 9
12 11 11 11 12 13 13 14 12 13 13 13 11 11 12 12 12 11 10 10 9 9 8 8 8 7 7 6 6 5 4 3 2 2 1 2 2 3 4 5 7 7 8 9
10 10 10 11 12 12 12 12 13 13 13 12 11 10 11 11 12 12 11 10 9 9 9 9 9 8 8 7 6 6 5 4 3 2 2 2 3 4 5 6 7 7 8 9
9 9 10 11 12 11 11 12 13 12 12 11 11 10 10 11 11 12 12 11 10 10 9 9 8 9 8 8 7 7 6 5 4 3 3 3 3 4 5 6 7 8 8 9
10 9 9 10 10 9 11 12 12 12 12 11 11 10 10 10 11 11 11 11 10 9 9 8 9 9 9 8 8 7 6 6 5 4 4 4 4 5 6 6 7 8 9 10
10 9 9 9 10 10 11 11 12 11 11 10 10 10 9 10 10 11 11 11 10 10 9 9 9 9 9 8 8 8 8 7 6 6 5 5 6 6 7 7 8 9 9 10
10 10 10 10 10 9 9 11 11 10 10 10 10 9 9 9 9 10 10 10 9 9 9 10 10 10 10 9 9 9 9 8 7 7 7 7 7 7 8 8 9 9 10 11
9 10 11 10 10 10 10 11 11 10 10 10 9 9 8 8 9 10 10 9 9 9 10 10 9 10 10 10 9 9 9 9 8 8 8 8 8 8 9 9 10 10 11 12
7 8 9 9 10 10 9 10 11 10 9 9 10 9 8 8 8 9 9 9 9 9 10 9 8 9 10 10 10 10 10 10 10 10 10 10 10 10 10 10 11 12 12 12
6 6 7 7 8 9 9 9 10 9 9 8 8 8 7 8 7 8 8 9 9 9 10 10 10 10 10 11 11 11 11 11 11 11 12 12 12 11 11 12 12 13 13 13
5 5 6 7 8 10 10 10 10 10 10 9 8 7 7 8 8 8 8 9 9 9 10 10 11 11 11 11 12 12 12 12 12 12 13 13 13 13 13 13 14 14 14 14
5 5 5 6 8 9 9 10 10 10 10 10 9 8 8 8 9 8 9 9 9 10 11 11 12 12 12 12 13 13 13 13 13 13 14 14 15 15 15 15 15 15 15 16
5 5 5 6 8 8 9 9 10 10 10 11 10 11 11 10 10 10 9 9 9 10 11 12 13 13 13 14 14 14 13 13 14 14 15 16 16 16 16 16 17 17 17 17
7 6 6 6 7 8 9 9 10 10 11 11 11 11 11 12 12 12 11 11 11 11 12 12 13 14 14 15 15 15 15 15 15 15 16 16 17 17 18 18 18 18 19 19
8 8 8 7 8 9 9 9 10 11 12 12 12 11 12 13 13 13 13 13 12 12 12 13 14 14 15 15 15 15 16 16 16 16 17 17 18 18 18 19 19 19 20 20
10 10 10 10 10 10 10 10 11 12 12 13 12 12 13 14 14 14 14 14 13 13 13 13 14 15 15 16 16 16 17 17 17 18 18 19 19 19 19 19 20 21 21 22
12 13 13 13 13 13 11 12 13 13 13 13 14 13 14 14 15 15 16 15 14 14 14 15 16 16 17 17 18 18 18 19 19 19 20 20 20 20 20 20 21 22 22 23
14 14 14 15 15 14 13 14 15 15 15 15 15 15 15 15 16 17 17 17 16 16 16 17 17 17 18 18 19 19 19 20 21 21 21 21 21 21 21 22 23 23 24 25
15 15 16 16 16 15 14 15 15 16 16 16 16 16 16 17 17 17 18 18 18 18 18 18 19 19 19 19 19 20 21 21 22 22 22 22 23 23 23 24 25 25 26 27
17 17 18 18 18 17 16 16 16 16 16 17 17 17 17 18 19 19 19 19 19 19 19 19 19 19 20 20 20 21 21 22 23 23 24 24 24 25 25 26 27 27 28 29
20 20 19 20 20 18 18 18 18 17 18 19 19 19 19 20 20 20 21 21 21 21 21 21 21 21 21 21 21 22 23 23 24 24 24 24 25 26 27 28 29 29 30 30
22 22 22 22 21 19 19 20 19 20 20 21 21 21 21 21 21 22 22 22 23 23 23 23 23 23 23 23 23 24 24 25 26 26 26 26 27 28 29 29 30 31 32 32
24 24 24 23 22 21 21 21 21 21 21 22 23 23 23 23 23 23 23 24 24 24 24 24 25 25 25 25 26 26 27 27 28 28 28 28 29 30 31 32 32 33 34 35
25 25 25 25 24 24 23 23 23 23 23 24 24 24 24 24 25 25 25 25 25 25 26 26 26 27 27 28 28 28 29 30 30 30 30 31 31 32 33 34 34 35 36 37
24 25 26 26 25 26 26 25 25 25 25 26 25 25 25 25 25 26 26 26 27 27 27 27 27 27 28 29 29 30 30 31 31 32 32 33 33 34 35 35 36 37 38 39

GEFSCGP_500_meanwind_168.txt.gz
Wind_Speed
10 12 13 13 12 14 15 15 15 16 17 17 16 15 15 14 14 14 13 13 12 11 12 11 11 10 9 8 6 5 4 3 2 2 1 1 2 3 3 4 5 6 7 7
9 11 12 12 13 13 14 14 14 15 15 16 16 15 15 13 13 14 14 14 12 12 11 11 11 10 9 8 7 5 4 4 3 3 2 2 2 3 3 4 5 6 7 7
8 10 11 11 12 13 12 14 14 14 13 13 13 14 14 13 14 14 14 14 13 12 11 11 11 10 9 8 7 6 5 5 4 3 3 2 3 3 4 4 5 6 7 8
8 9 10 11 12 12 12 13 14 14 14 13 13 13 13 13 14 14 14 14 13 12 12 11 11 10 9 8 8 7 6 5 5 4 4 3 3 3 4 5 5 6 7 8
8 9 10 11 12 12 11 12 12 12 13 13 13 13 14 14 14 14 14 14 13 12 12 12 11 10 10 9 8 7 7 6 6 5 5 4 4 4 5 5 5 6 7 8
7 9 9 10 11 12 12 11 11 12 12 12 12 12 13 13 13 14 14 14 13 12 12 12 11 10 10 10 9 9 8 7 7 6 6 5 5 5 5 6 6 7 7 8
6 8 9 10 10 11 12 11 11 11 11 10 11 12 11 13 13 13 13 13 13 12 12 12 12 11 11 10 10 10 9 9 8 8 7 6 6 7 7 7 7 7 8 8
6 8 9 9 9 10 11 11 11 10 9 9 10 11 11 12 13 13 13 13 12 12 12 12 12 11 11 11 11 11 10 10 9 9 9 8 8 8 9 9 9 9 9 9
5 7 8 8 8 9 9 10 10 10 9 9 9 9 10 10 12 12 12 12 12 12 13 12 12 12 13 12 12 12 11 11 11 11 10 10 10 10 10 10 10 10 10 10
6 7 7 8 8 8 7 8 9 9 10 10 9 9 10 10 11 11 12 12 12 13 13 13 13 13 13 14 13 13 12 12 12 12 11 12 12 12 12 12 12 12 12 12
7 7 8 8 8 8 8 8 8 8 9 9 9 9 10 10 10 10 11 12 12 12 13 13 13 13 13 14 14 13 13 13 13 12 12 13 13 13 13 13 13 13 13 13
6 7 7 8 9 8 8 8 9 9 9 8 8 8 10 11 11 10 10 11 12 12 12 13 13 13 14 14 14 14 14 14 14 14 14 14 14 15 15 15 15 15 15 14
5 7 7 7 8 8 8 8 9 10 10 9 9 9 10 10 11 11 11 11 12 12 12 13 14 14 14 14 14 14 15 15 15 15 15 15 16 16 15 16 16 16 16 16
6 7 7 7 8 9 9 9 9 10 10 10 10 10 10 11 12 12 12 12 12 12 13 14 14 14 15 15 15 15 15 16 16 16 16 16 16 16 16 17 17 17 17 18
8 8 8 8 7 8 8 8 9 10 10 10 10 11 11 12 12 13 13 13 13 14 14 15 15 16 15 16 15 16 16 17 17 17 17 17 17 17 18 18 18 18 19 19
9 9 9 8 8 9 9 9 9 10 11 11 11 11 12 13 13 13 13 13 14 14 15 15 15 16 16 16 16 16 17 18 17 18 18 19 19 18 18 18 19 19 20 20
11 11 10 10 10 10 10 10 11 11 11 12 12 12 13 13 13 14 15 15 15 15 15 15 15 16 16 17 17 17 18 18 19 19 19 19 20 20 20 20 21 21 21 21
12 12 12 12 12 12 10 12 12 12 12 13 12 13 14 14 15 16 16 16 16 16 16 17 17 17 18 18 18 19 19 20 20 21 21 21 22 22 22 22 22 22 23 23
14 14 14 14 14 13 12 13 14 14 13 14 14 14 15 16 17 17 18 18 18 18 18 18 19 19 19 19 20 20 20 21 22 22 22 23 23 23 23 23 23 24 24 25
16 16 16 16 15 14 13 14 15 15 15 15 16 16 16 17 17 18 18 18 19 19 20 20 20 20 21 21 21 22 22 22 22 23 23 24 24 24 24 25 25 26 27 27
18 18 18 17 17 15 14 15 16 16 16 16 17 17 18 18 19 19 20 20 20 21 21 22 22 22 22 22 23 23 23 23 23 24 24 25 25 25 26 26 27 28 28 28
20 20 20 20 19 16 16 17 17 18 18 18 19 19 20 20 21 21 21 22 22 22 22 23 23 23 23 23 23 23 24 24 25 25 25 25 26 27 27 28 29 29 30 30
22 21 22 22 21 20 20 19 19 20 20 20 21 21 22 22 22 23 23 23 23 24 24 24 24 24 24 24 25 25 26 26 26 26 27 27 28 29 30 30 31 31 32 32
24 24 24 24 23 23 22 22 22 22 22 22 23 23 24 24 24 25 25 26 25 25 25 26 26 26 26 26 27 27 28 28 29 29 29 30 30 31 32 32 33 33 34 34
24 25 26 26 25 25 25 25 24 24 24 24 25 25 26 26 26 27 27 26 26 27 27 27 28 28 28 28 28 28 29 29 30 30 31 31 32 32 33 34 35 35 36 36
24 25 26 26 26 27 26 26 26 26 26 27 27 27 27 27 27 28 28 29 29 29 29 29 29 29 29 29 29 29 30 30 31 31 32 33 33 34 35 35 36 37 38 38

GEFSCGP_500_meanwind_174.txt.gz
Wind_Speed
10 11 12 14 15 16 16 16 16 16 17 17 17 17 16 16 16 16 16 15 14 14 12 12 11 11 10 9 8 7 6 5 4 4 4 4 3 3 3 3 4 5 6 6
9 11 11 12 14 14 15 16 15 16 15 16 16 16 16 16 16 16 16 15 14 14 12 12 12 11 10 9 8 7 7 6 6 5 4 4 3 3 3 4 4 5 5 6
7 10 11 12 13 14 15 15 15 15 14 14 15 15 15 16 16 15 15 15 14 14 13 12 12 11 10 10 9 8 8 8 7 5 5 4 4 4 4 4 4 5 5 5
7 8 9 11 12 13 14 14 15 14 14 14 14 13 14 14 14 13 13 13 14 14 13 13 12 11 10 10 10 9 9 8 8 7 6 5 5 4 5 5 5 5 5 6
7 8 9 10 11 11 12 13 15 14 14 14 14 13 13 13 12 12 12 13 14 14 13 13 12 11 10 10 11 10 10 9 8 8 7 6 5 5 5 6 6 6 6 6
6 8 9 10 10 10 12 12 13 13 12 12 13 12 12 12 12 12 13 13 13 14 13 13 12 12 11 11 11 11 10 9 9 8 8 7 7 7 7 6 7 7 7 7
6 7 8 10 10 10 10 12 12 12 12 12 12 12 11 12 12 12 13 14 14 14 14 13 12 12 12 12 12 11 11 10 9 9 9 9 9 8 8 8 8 8 8 7
5 6 7 9 9 9 10 11 11 12 11 11 11 11 11 11 11 12 12 13 14 15 15 14 13 12 12 13 12 12 12 12 11 10 10 10 10 10 10 10 10 9 9 9
5 5 7 7 7 8 10 10 10 10 9 9 10 10 11 11 11 11 12 13 13 14 14 14 14 13 12 13 13 13 13 12 12 12 12 12 12 12 12 11 11 11 10 10
4 5 6 7 7 8 9 9 10 10 8 9 9 10 10 11 11 11 11 12 12 13 13 14 14 13 13 13 13 14 14 13 13 13 13 13 13 13 13 12 12 12 12 12
5 5 6 7 7 8 8 8 8 8 8 9 8 9 10 10 10 10 10 11 11 12 12 13 13 13 13 13 13 14 14 14 14 14 14 14 14 14 14 14 14 13 13 13
5 5 6 7 7 7 7 7 7 7 7 8 9 9 10 10 10 10 11 11 11 11 12 12 12 13 13 13 13 13 14 15 15 15 15 14 14 15 15 15 15 14 14 14
6 6 6 7 7 7 8 7 7 7 8 8 8 9 10 10 10 10 11 11 11 12 12 12 12 12 13 13 14 14 14 14 15 15 15 14 15 15 15 15 15 15 15 15
6 6 7 8 8 8 8 8 8 8 9 9 9 10 10 10 10 11 11 11 12 12 13 13 13 13 13 13 14 14 14 15 15 15 15 15 15 16 16 16 16 17 17 17
6 6 7 7 7 8 8 9 9 9 9 10 10 10 11 11 10 10 11 12 12 12 13 14 14 14 14 14 14 15 15 16 16 16 16 17 17 17 17 18 18 18 18 18
6 6 6 7 7 7 8 9 9 10 10 10 11 11 12 12 11 11 12 12 13 13 13 14 14 14 15 15 15 16 17 17 17 17 18 18 18 18 18 19 18 18 18 19
9 9 8 8 8 8 9 9 9 10 10 11 11 12 12 12 12 13 13 13 13 13 13 14 15 15 16 16 16 17 18 18 19 19 19 20 20 19 19 19 19 19 20 20
10 10 10 9 10 10 9 10 10 11 11 12 12 13 13 13 13 14 14 14 14 15 15 15 16 16 16 17 17 18 19 19 20 20 20 20 20 20 20 20 20 21 21 21
13 12 12 11 11 10 11 11 11 11 11 12 12 13 14 14 14 15 15 15 16 16 16 17 17 18 18 18 18 19 19 20 20 20 20 21 21 21 21 21 22 22 22 23
15 14 14 13 13 13 12 12 12 13 13 12 13 13 14 14 15 15 16 16 17 17 17 18 19 19 20 19 20 20 20 20 21 21 21 21 22 22 22 23 23 24 24 25
18 17 16 16 15 14 13 13 13 13 13 14 14 15 15 16 16 16 17 17 18 18 19 19 20 20 20 21 21 21 21 21 22 22 22 23 23 23 24 24 25 25 25 26
20 20 19 18 18 16 15 15 15 15 15 15 15 16 16 17 18 18 18 19 19 20 20 20 20 20 21 22 22 22 23 23 23 24 24 24 24 25 25 26 26 27 27 27
22 21 21 20 20 19 19 19 18 18 18 17 17 18 18 18 18 19 20 20 20 20 20 21 22 22 22 23 23 24 24 24 25 25 25 26 26 26 26 27 28 28 29 29
24 24 23 23 22 21 21 21 21 20 20 20 20 20 20 20 20 20 21 21 21 21 22 22 23 23 24 24 25 25 26 26 26 26 27 27 28 28 28 29 30 30 31 31
25 25 25 24 23 23 23 23 23 22 22 22 22 21 21 22 22 22 23 23 23 23 24 24 25 25 26 26 27 27 27 27 28 28 28 29 29 30 30 31 32 32 32 33
25 26 26 25 25 25 25 25 25 24 23 23 23 23 23 23 23 23 24 25 26 26 27 27 27 27 28 28 28 28 29 29 29 30 30 31 31 32 32 32 33 34 34 34

GEFSCGP_500_meanwind_180.txt.gz
Wind_Speed
8 10 11 12 13 12 13 13 13 14 14 14 15 15 14 14 14 14 13 13 13 12 12 11 11 11 10 8 7 6 5 4 4 4 4 4 4 4 4 5 5 6 6 7
8 9 11 12 12 12 13 12 12 14 13 13 14 14 14 15 15 15 15 14 13 13 12 11 11 11 10 9 8 7 5 4 5 4 4 4 4 5 5 5 5 6 7 7
7 8 8 9 11 11 13 12 11 12 12 12 13 13 13 14 14 14 14 13 12 12 12 12 12 11 10 9 8 7 6 5 5 5 4 4 5 5 5 5 6 6 7 7
6 7 8 9 10 11 11 11 11 11 11 11 11 11 13 14 14 13 13 13 12 12 12 12 12 11 11 10 9 8 7 6 6 5 5 5 6 6 6 6 7 7 7 8
6 6 7 8 9 10 11 11 10 10 10 10 10 10 11 12 13 12 12 12 12 12 12 12 12 12 11 10 9 8 8 7 6 6 7 7 7 7 7 7 7 8 8 8
5 5 6 7 8 8 10 10 9 9 9 9 9 9 10 10 10 11 11 12 12 12 12 13 13 12 12 10 9 9 8 8 8 8 8 8 8 8 8 8 8 8 8 9
3 4 5 6 7 8 9 8 7 7 7 7 7 10 10 9 9 10 11 12 12 12 13 13 12 12 12 11 10 9 9 9 9 9 9 9 9 8 8 8 9 9 9 9
2 2 4 6 7 7 7 7 7 6 5 6 8 11 10 9 9 10 11 12 12 13 13 13 13 12 12 11 11 10 10 9 9 10 10 10 10 9 10 10 10 10 10 11
1 2 3 4 5 6 7 7 7 7 6 7 8 9 10 9 9 9 10 11 12 13 14 14 13 13 13 12 11 11 11 11 11 11 11 10 11 11 11 12 12 12 12 12
3 3 4 4 5 6 7 7 8 8 8 7 7 8 9 9 9 9 10 11 12 12 13 13 13 13 12 12 12 12 12 12 12 11 11 11 11 11 11 13 13 13 14 13
3 3 4 4 5 6 7 7 8 9 9 8 8 9 10 8 9 9 10 11 12 13 13 12 12 12 12 12 12 11 12 12 12 12 12 12 12 13 13 13 14 14 15 15
6 4 4 4 4 6 7 8 9 9 9 9 9 9 10 9 9 10 10 11 12 13 12 12 12 12 12 12 12 12 12 11 11 12 12 13 13 14 14 15 15 16 16 16
7 6 5 5 5 5 7 8 9 9 10 9 10 9 11 11 10 10 10 10 11 12 12 12 11 12 12 12 12 12 12 11 12 13 13 14 14 15 16 16 17 17 17 17
8 7 8 7 7 7 7 8 9 10 10 11 11 10 11 11 12 11 11 11 11 11 11 11 12 12 12 12 13 13 13 13 13 14 15 15 15 16 17 17 17 17 17 18
8 7 8 8 8 7 8 9 10 11 10 10 10 11 11 12 12 12 12 13 13 13 12 13 13 13 13 14 14 14 14 14 14 15 15 15 15 15 16 17 17 18 18 19
8 7 7 7 8 8 9 10 11 12 12 10 11 11 11 11 12 12 13 14 13 13 13 14 14 14 15 15 15 14 14 15 15 15 16 16 16 17 17 17 18 19 19 19
10 9 8 8 8 9 10 10 11 11 12 13 13 13 12 13 12 13 13 13 13 13 13 14 14 15 15 16 15 15 16 16 16 17 17 17 18 18 19 19 20 20 20 21
11 11 11 10 10 11 10 10 11 12 12 12 13 13 12 12 13 13 13 12 13 13 14 14 15 15 16 16 16 17 17 18 18 18 18 18 19 20 20 20 21 21 21 21
13 12 12 12 12 13 12 11 11 12 12 12 13 13 13 13 14 14 13 13 13 14 14 15 16 17 17 17 18 18 18 19 20 20 19 20 20 21 21 21 22 22 22 22
15 14 14 14 14 15 15 13 13 13 13 13 14 15 15 15 15 15 15 15 16 16 17 18 18 19 19 19 19 19 19 19 20 20 21 21 21 22 22 22 23 23 23 23
17 16 16 16 16 17 16 16 15 15 15 15 15 16 16 17 17 17 18 18 18 18 19 20 20 20 20 20 20 21 21 21 21 21 21 22 22 22 23 23 24 24 24 25
19 19 19 18 18 20 18 18 18 17 16 17 18 18 17 18 19 19 19 19 19 20 20 20 21 21 21 21 21 22 22 22 22 22 23 23 23 24 24 25 25 25 25 26
22 21 21 21 21 21 21 20 20 19 18 18 19 20 20 20 20 20 20 20 21 21 21 21 21 22 22 22 22 23 23 24 24 25 25 25 25 26 26 26 26 27 27 27
24 23 23 23 23 23 23 22 22 21 21 21 21 21 21 21 21 21 21 21 22 22 22 23 23 22 23 23 24 25 25 26 26 27 27 27 27 27 27 28 28 29 29 30
25 25 25 25 25 25 24 23 23 23 22 22 22 22 22 22 22 22 23 23 23 23 23 23 24 24 24 25 25 26 26 27 27 28 28 29 29 29 29 30 30 31 32 33
27 27 27 26 26 27 26 25 24 25 24 24 23 24 23 23 23 23 23 23 23 23 24 25 25 25 26 26 27 27 28 28 28 29 30 30 31 31 31 31 32 32 33 34

GEFSCGP_500_meanwind_186.txt.gz
Wind_Speed
9 10 11 11 11 12 13 13 13 12 12 12 12 12 11 12 12 12 12 12 12 11 11 10 10 10 10 9 8 8 7 7 6 5 5 5 4 4 4 3 3 3 4 4
8 9 10 10 11 11 12 12 12 12 12 12 12 12 12 12 12 12 13 13 13 12 11 11 11 10 11 10 9 9 8 7 7 6 6 6 5 5 5 4 4 4 4 5
8 8 9 9 10 9 10 11 11 11 11 12 12 13 12 12 12 12 12 13 13 12 12 11 11 11 11 11 10 9 9 8 8 7 6 6 5 5 5 5 5 5 5 6
7 8 9 8 9 8 9 11 12 11 10 11 12 12 12 12 12 12 12 12 12 12 13 12 11 11 12 12 11 10 10 10 9 8 7 6 6 5 5 5 6 6 6 6
6 7 8 8 8 8 9 10 10 10 10 10 10 11 11 12 12 13 12 12 12 13 13 12 11 12 12 12 12 11 11 11 10 9 8 7 7 6 5 6 6 6 6 7
5 6 7 7 8 8 9 10 9 9 9 10 10 10 9 10 11 12 12 12 13 13 13 12 12 12 12 12 12 11 11 10 10 10 9 9 8 7 7 7 7 7 8 8
6 6 6 7 8 8 9 9 10 10 10 8 8 9 7 9 11 12 12 11 12 13 13 12 12 12 12 11 12 11 11 11 11 10 10 10 9 9 9 8 8 8 9 9
6 6 7 7 7 8 8 9 9 9 9 8 8 8 7 8 10 11 10 10 11 13 13 12 12 12 12 12 12 12 11 11 11 11 11 11 10 10 10 10 9 9 10 11
5 6 7 8 7 7 8 8 8 8 8 8 8 8 8 8 9 9 10 10 10 11 12 12 11 11 11 11 12 12 12 12 12 12 12 12 12 11 11 11 11 11 11 11
4 5 6 8 7 7 7 8 8 7 7 7 7 8 7 8 8 8 9 10 10 11 11 11 11 11 11 11 12 12 12 12 12 12 12 12 12 12 12 12 11 11 12 12
4 5 5 7 7 6 6 7 8 8 7 8 8 8 8 8 8 8 8 9 9 10 11 11 11 11 12 12 12 12 13 13 12 12 12 13 13 13 13 13 13 12 12 13
6 6 6 6 7 7 7 7 7 8 8 9 9 8 9 8 8 8 8 8 8 10 11 12 12 12 12 12 12 12 13 13 13 13 13 13 14 14 14 14 15 14 14 15
7 7 7 7 7 7 6 7 7 7 9 9 10 8 9 9 8 8 8 8 8 8 10 11 11 12 12 12 13 13 13 13 13 13 14 14 15 15 16 16 15 15 16 16
8 8 8 7 7 7 6 6 7 8 8 8 8 8 8 8 8 8 9 8 8 9 9 10 11 11 12 12 13 13 14 14 14 14 15 15 16 16 16 16 16 16 16 16
10 9 8 7 7 8 8 7 8 8 7 7 7 8 7 8 8 8 8 9 9 10 10 11 11 12 13 13 13 14 14 15 15 15 15 16 16 16 16 16 16 16 16 16
11 10 9 9 8 8 9 8 8 9 8 8 8 8 8 9 9 8 9 9 10 11 12 13 13 13 13 13 13 14 14 16 16 15 15 16 16 16 16 16 16 17 17 17
12 12 11 11 10 10 8 8 8 8 9 10 10 9 11 10 10 9 9 10 10 11 12 12 12 13 14 13 14 14 15 15 15 15 16 17 17 17 17 17 18 18 19 19
14 13 12 12 13 13 10 10 10 9 9 9 10 11 11 11 11 10 10 10 11 12 12 12 13 13 13 14 14 15 15 16 16 17 17 17 18 18 18 18 19 19 19 19
16 15 14 14 14 13 11 12 11 11 10 10 10 9 10 11 11 11 11 11 12 14 14 13 14 15 15 14 15 15 16 16 17 18 18 19 19 19 19 19 20 20 20 20
18 17 17 16 16 14 12 12 12 12 10 10 10 10 10 11 12 11 12 12 12 13 13 14 15 16 16 15 16 16 16 17 17 18 19 20 20 20 20 21 21 22 22 22
19 19 19 17 16 15 13 13 13 13 11 11 12 12 12 12 12 11 12 12 12 13 13 14 15 16 16 17 17 18 18 18 18 19 19 20 20 21 21 22 23 24 24 24
21 20 20 19 18 16 14 15 15 14 13 13 14 14 14 14 13 12 12 13 14 15 16 16 17 17 18 19 19 19 18 19 20 20 21 22 22 23 23 23 24 24 25 25
22 21 21 20 19 17 16 17 16 16 16 15 15 15 15 16 16 15 15 15 16 17 18 18 19 19 19 20 20 20 20 21 21 22 22 23 23 24 24 25 25 25 26 26
23 22 22 22 20 19 19 18 18 18 17 17 16 16 16 17 18 17 17 17 18 19 20 20 20 20 21 21 21 22 22 23 23 24 24 24 24 25 26 26 27 27 28 28
23 22 22 22 21 21 21 20 20 20 20 19 18 18 18 18 18 19 19 19 20 21 21 21 21 21 21 22 22 23 24 24 25 26 26 26 26 27 27 28 28 29 29 30
23 23 24 23 22 23 22 22 22 21 21 20 20 20 20 19 20 20 21 21 22 22 22 22 22 23 23 24 24 25 26 26 27 27 28 28 28 29 29 29 29 29 30 30

GEFSCGP_500_meanwind_192.txt.gz
Wind_Speed
9 10 11 11 11 12 12 12 12 12 12 13 14 14 13 13 14 14 14 14 15 14 13 12 12 11 11 11 11 10 9 8 8 8 7 7 6 6 6 6 6 6 6 6
8 9 10 10 11 12 11 12 12 13 12 12 13 14 14 13 13 14 14 15 15 15 14 13 12 12 12 12 12 11 10 9 9 8 7 7 7 7 7 6 6 6 6 7
7 8 9 10 10 11 12 11 11 12 12 12 13 13 14 14 14 14 14 15 15 15 16 15 15 14 13 13 12 12 11 10 9 9 8 8 7 7 7 6 6 7 7 7
7 7 7 8 9 10 11 11 11 12 11 11 12 12 13 13 14 14 14 14 15 15 16 15 15 14 14 13 13 12 11 10 10 9 9 9 8 8 7 7 7 7 7 7
8 8 8 8 9 10 10 10 10 11 11 12 12 13 12 13 14 14 14 14 15 15 15 15 15 14 14 13 12 12 12 11 11 10 10 9 9 9 8 8 8 8 7 7
7 8 8 9 9 10 10 10 10 10 11 12 12 13 12 12 13 14 13 14 15 15 15 15 14 13 13 13 13 12 12 11 11 11 10 10 9 9 9 9 8 8 8 8
7 7 8 9 10 10 9 10 11 11 12 12 12 12 12 13 12 13 13 14 14 15 14 14 14 14 14 13 13 12 12 12 11 11 10 10 10 10 10 10 9 9 9 9
8 7 8 9 10 10 10 10 11 11 11 11 11 11 10 11 11 12 13 13 13 14 14 14 14 14 14 13 13 13 12 12 12 11 11 11 10 10 10 10 10 10 10 11
7 7 8 9 10 9 9 9 9 10 10 10 10 9 9 10 11 10 11 12 12 13 13 13 14 14 14 13 13 13 12 12 11 11 11 11 11 11 11 11 11 12 12 12
8 8 8 8 9 10 9 10 9 10 10 9 8 8 9 10 11 11 11 11 12 13 13 13 13 13 13 13 12 12 11 11 12 11 11 12 11 11 12 12 13 13 13 13
8 9 8 9 9 9 9 9 9 9 9 9 7 7 8 9 10 11 11 11 12 12 12 12 13 13 13 13 13 12 12 12 12 12 12 12 12 12 13 13 14 14 14 14
8 9 9 9 9 9 9 9 9 10 9 8 7 6 7 8 9 9 10 11 12 13 13 13 13 13 14 14 13 13 13 13 13 13 13 13 13 14 14 14 15 15 15 15
10 10 10 10 10 10 10 10 10 10 10 9 8 6 7 8 9 9 9 10 11 13 13 13 13 13 13 14 14 14 14 14 13 13 13 13 14 15 15 16 16 16 16 17
11 10 10 10 9 9 9 10 10 10 10 10 9 8 8 8 9 10 10 10 11 12 12 13 13 13 13 13 14 14 14 14 14 14 14 15 15 15 16 17 17 18 18 18
12 11 10 10 10 10 10 10 10 10 10 10 9 9 9 9 10 10 10 11 12 13 13 13 13 14 14 14 15 15 15 15 15 15 15 16 16 16 16 17 18 18 18 19
13 13 11 11 11 11 11 10 10 9 9 9 9 9 10 11 11 11 12 12 13 14 14 15 15 15 15 15 15 15 15 15 15 15 15 16 16 17 17 18 18 18 19 19
15 14 13 13 12 13 13 11 10 10 9 9 9 9 10 11 11 12 13 13 14 15 15 15 16 16 15 15 15 15 15 15 16 16 16 16 17 17 18 18 19 19 19 19
17 16 15 14 14 15 12 12 11 11 10 9 9 10 11 12 12 12 12 13 14 15 15 15 16 16 16 16 15 15 15 16 16 16 17 17 17 18 18 18 19 19 20 20
19 18 17 16 16 15 13 12 12 12 11 12 11 11 12 12 12 12 12 13 14 15 16 16 17 17 17 16 16 16 17 16 17 17 17 17 18 18 19 19 19 20 21 21
21 20 19 18 17 16 13 13 14 14 13 13 13 13 13 13 13 13 13 13 14 15 17 17 17 17 17 17 17 17 18 18 17 17 17 18 19 19 20 20 21 21 22 22
22 22 21 19 18 17 15 15 15 15 13 14 15 15 15 15 14 14 14 14 15 16 16 17 17 18 17 18 19 19 18 18 17 17 18 18 19 19 20 21 22 22 23 23
23 23 22 21 20 18 17 17 17 15 15 15 15 15 15 15 15 15 15 15 15 15 16 16 17 18 18 18 19 20 19 19 19 18 19 19 19 20 21 22 22 23 23 23
24 24 23 22 21 20 18 18 18 18 17 16 16 16 16 16 16 17 17 16 15 14 15 15 16 17 18 18 19 19 20 20 20 20 20 20 21 22 23 23 23 24 24 24
25 25 25 24 22 21 20 20 20 19 19 18 18 18 17 17 17 18 18 18 17 16 15 16 17 17 18 19 19 19 19 19 20 21 22 22 23 23 23 24 24 25 26 26
25 26 26 25 24 23 22 21 21 21 21 20 20 20 19 19 18 18 18 18 18 18 18 18 18 19 19 19 20 20 20 21 22 23 23 23 23 24 24 25 26 27 27 28
26 26 26 26 24 24 22 22 22 22 22 21 22 21 21 20 20 20 20 20 20 20 20 20 20 20 21 22 22 23 23 22 23 24 24 25 25 25 26 27 28 28 29 30

GEFSCGP_500_meanwind_198.txt.gz
Wind_Speed
7 8 9 9 9 10 11 11 11 11 11 12 13 13 14 14 14 14 13 14 14 15 14 14 14 14 14 13 12 11 11 11 10 9 9 8 8 8 8 7 6 5 5 5
7 7 8 9 9 9 10 10 10 10 11 11 11 12 13 14 14 14 14 14 15 15 15 14 14 14 14 14 13 12 12 12 11 10 9 8 8 8 8 7 7 6 6 6
7 8 8 9 9 8 9 10 11 11 11 11 11 12 13 13 14 14 14 14 15 15 15 14 14 14 14 14 13 13 12 12 11 10 9 9 9 9 8 8 7 7 7 7
8 8 9 9 9 9 9 10 11 11 11 11 11 12 13 13 13 13 14 15 15 15 15 15 15 15 14 14 14 13 12 12 12 11 10 10 10 9 9 8 8 8 7 7
7 8 9 8 9 10 10 10 10 10 11 11 11 12 12 12 13 13 15 15 15 15 15 15 15 15 15 14 14 14 13 13 12 11 11 10 10 10 10 9 9 8 8 8
7 7 8 8 8 9 10 9 9 9 10 11 11 11 11 12 12 13 13 14 14 15 15 16 16 15 15 14 14 13 13 12 12 11 11 11 10 10 10 10 9 9 9 9
6 7 7 7 7 7 8 8 8 9 9 9 10 11 11 12 12 12 12 13 14 14 15 16 16 15 14 14 13 13 13 12 11 11 11 11 11 11 11 10 10 10 9 10
6 7 7 7 7 7 8 9 9 10 9 9 9 10 10 11 11 11 12 13 14 14 14 14 14 15 14 13 13 12 12 12 12 12 11 11 11 11 11 11 10 10 10 11
8 7 7 8 8 8 8 9 10 11 10 9 9 9 9 10 10 10 10 12 12 13 13 13 13 13 13 13 13 12 12 12 12 12 12 12 12 12 11 11 11 11 12 12
9 9 8 8 9 9 8 8 9 11 11 10 8 6 7 8 8 9 9 10 11 11 12 13 13 13 13 13 13 13 13 13 13 12 12 12 12 12 11 11 12 12 12 12
9 10 9 9 9 9 8 8 9 10 11 10 9 8 7 8 9 9 9 10 11 11 12 13 13 13 13 13 13 13 13 13 13 12 13 13 13 12 12 12 12 12 12 12
10 10 10 10 9 9 9 9 8 9 9 9 9 8 8 8 9 9 10 10 11 12 13 13 13 13 13 13 13 13 14 14 13 13 14 14 13 13 13 13 13 13 13 13
11 11 10 10 10 10 10 9 9 10 10 10 10 9 9 9 9 10 10 11 12 12 13 14 13 13 13 13 14 14 14 14 15 14 14 14 13 13 13 13 14 14 14 14
12 12 11 12 12 12 11 11 11 11 12 11 10 10 9 9 9 10 10 11 12 12 13 13 13 13 14 14 14 14 14 14 14 14 15 15 14 14 15 15 15 16 16 16
14 14 13 13 13 13 12 12 12 12 12 12 12 11 11 10 10 10 11 11 11 12 13 14 14 14 15 15 15 15 15 15 15 15 15 15 16 16 16 16 16 17 17 17
16 16 15 15 15 14 13 13 14 13 12 12 12 12 12 11 11 11 11 11 12 12 13 14 15 15 15 15 16 15 15 15 16 16 16 16 17 17 17 17 17 17 17 17
17 17 17 17 16 16 15 13 14 14 13 13 12 11 12 12 12 12 11 12 12 13 14 15 15 15 14 14 14 14 15 15 15 16 16 16 17 17 17 17 17 18 18 18
18 18 17 18 17 18 15 14 14 14 14 13 12 11 12 12 12 12 12 12 12 13 14 14 14 14 14 14 14 15 16 16 16 16 16 17 17 17 17 17 18 18 19 19
19 19 19 19 19 18 17 15 15 15 14 14 13 12 12 12 12 12 13 13 13 14 14 14 14 14 14 15 15 16 17 17 17 17 17 18 18 18 18 18 19 19 19 19
20 20 20 20 20 20 18 17 17 16 16 15 14 13 13 13 13 13 14 14 14 15 15 15 15 15 16 16 16 16 16 17 17 17 18 19 19 19 19 19 19 19 19 19
19 20 21 21 22 21 20 19 18 18 16 16 16 15 15 15 14 14 14 15 15 15 16 16 16 16 17 17 16 17 17 17 17 17 18 19 19 19 19 19 19 19 19 20
21 21 21 21 22 21 21 20 19 19 18 17 17 16 16 16 16 15 15 15 15 16 16 16 17 17 17 18 18 17 17 18 18 18 19 19 20 19 19 20 20 20 20 21
22 22 22 22 22 21 21 21 20 20 19 18 18 17 17 17 17 17 17 16 16 17 16 17 17 17 18 18 19 19 19 19 19 20 20 21 21 21 21 21 22 22 22 22
23 23 23 23 23 22 22 22 21 21 20 19 19 18 18 18 18 18 18 17 17 18 18 18 18 18 19 20 21 21 21 21 22 22 22 22 22 22 22 23 23 24 24 24
24 24 24 24 24 23 22 22 22 21 21 20 20 19 19 19 18 18 19 19 19 19 19 19 19 19 20 21 22 22 23 23 23 24 24 24 23 23 23 24 24 25 25 25
25 25 25 25 25 25 23 22 22 22 22 21 21 20 20 20 19 19 20 20 20 20 20 20 20 19 20 20 21 22 23 24 24 24 24 24 24 24 24 25 26 26 27 27

GEFSCGP_500_meanwind_204.txt.gz
Wind_Speed
6 7 8 8 8 9 9 9 10 10 9 10 10 10 11 10 10 11 12 12 13 13 13 13 12 12 11 10 10 10 10 10 10 10 9 8 8 8 8 8 8 8 8 7
6 7 7 9 9 9 9 10 10 10 10 10 11 10 10 11 11 11 11 12 12 12 13 13 12 12 11 10 10 10 10 10 10 10 10 9 9 9 8 8 8 8 8 7
7 6 7 8 9 9 10 11 10 9 10 10 11 10 10 11 11 11 12 12 13 13 13 13 12 12 11 11 11 11 11 11 11 11 11 10 10 9 9 9 9 8 8 8
6 7 8 8 8 9 10 10 10 10 10 10 10 10 10 11 11 12 13 13 14 13 13 12 12 12 12 12 12 12 11 11 11 12 11 11 10 9 9 9 9 9 8 8
7 6 7 8 8 9 9 9 9 10 10 9 9 10 10 11 12 12 12 13 13 13 13 12 13 13 13 13 13 12 12 12 11 11 10 10 10 9 9 9 9 9 9 9
7 7 7 7 7 8 8 9 10 10 11 11 9 12 12 12 13 12 12 12 12 12 12 12 13 13 13 13 13 13 13 12 11 11 10 10 10 9 9 9 10 10 10 10
7 6 7 7 7 7 8 9 9 9 10 10 10 13 13 12 12 13 13 13 12 13 13 12 13 13 14 13 13 13 12 12 12 11 11 10 11 10 10 10 10 10 11 11
7 7 7 8 8 8 9 9 9 8 8 9 10 12 13 12 12 12 13 13 13 13 13 13 13 13 13 12 12 13 13 12 12 12 11 11 11 11 10 11 11 11 11 11
8 8 8 9 10 10 9 9 8 8 8 10 9 10 12 12 11 12 12 12 12 12 12 12 13 13 13 13 12 13 12 13 13 13 12 11 11 11 11 11 12 12 12 12
8 9 9 10 10 9 9 9 9 9 9 10 9 9 10 12 12 11 11 11 11 11 11 12 12 12 13 13 14 14 13 13 13 13 12 12 12 12 12 12 12 13 13 13
9 10 10 10 11 10 10 10 10 9 9 10 10 8 9 10 11 11 11 11 11 11 11 11 11 12 12 13 13 13 13 13 13 13 12 12 12 12 13 13 13 14 14 14
10 9 9 9 10 10 11 10 10 10 10 10 12 11 11 11 12 12 11 11 11 11 11 12 12 13 13 13 13 13 13 13 13 12 12 12 13 13 14 14 14 14 14 14
11 10 10 9 10 10 11 11 12 12 11 11 13 12 12 13 13 13 12 12 12 11 12 12 12 13 13 13 13 13 14 13 14 14 14 14 14 14 14 14 15 15 15 15
13 12 13 12 11 11 11 12 13 13 13 13 13 13 13 13 14 13 13 12 12 13 13 13 13 13 13 13 13 13 14 14 14 14 14 15 14 14 15 15 16 16 16 16
15 14 15 15 14 14 13 13 14 15 15 15 14 14 14 14 14 14 14 13 14 14 14 14 14 14 13 14 14 14 14 14 15 15 15 15 15 15 15 16 16 17 17 17
16 15 16 17 16 16 16 15 14 15 16 17 16 15 15 14 14 16 15 15 14 14 14 14 14 14 14 14 14 15 15 15 16 16 16 16 16 16 16 16 17 17 17 18
16 16 17 17 17 17 17 15 16 16 17 18 18 17 16 16 16 16 17 16 16 15 14 14 13 13 14 14 15 15 16 16 16 16 17 17 17 17 17 17 17 17 18 18
17 17 18 17 17 19 16 15 17 18 18 18 19 18 17 17 17 17 17 17 16 15 15 14 13 14 14 14 14 14 15 16 16 16 16 17 17 18 18 18 18 18 18 18
18 18 19 19 19 20 18 16 17 18 18 18 19 19 19 18 18 18 18 17 17 16 15 15 15 15 15 15 15 15 16 16 17 17 16 16 17 18 18 19 18 18 19 19
20 20 20 20 20 21 19 18 18 19 19 18 19 19 19 18 19 18 17 17 16 16 16 16 16 17 16 16 16 17 17 17 17 17 17 17 17 18 19 19 19 19 19 20
21 21 21 22 22 23 20 20 19 21 20 18 19 19 19 18 19 18 18 17 17 16 16 16 16 17 17 17 17 18 18 17 17 17 17 18 18 18 19 19 19 19 20 21
22 22 22 22 23 23 21 21 21 22 21 20 20 19 19 19 19 19 19 18 17 17 17 17 16 17 18 18 19 19 19 19 19 19 19 19 19 20 20 20 21 21 21 22
24 23 23 23 24 22 22 22 23 23 22 22 22 21 20 19 20 20 20 19 18 18 18 18 18 18 18 19 19 19 19 19 19 20 20 20 20 21 21 22 22 22 23 23
26 25 25 25 25 24 24 23 23 24 24 23 23 22 22 21 20 20 21 21 19 19 19 19 20 20 20 20 20 20 21 21 21 21 21 21 21 22 22 23 23 24 24 25
26 27 27 28 26 26 26 26 25 26 25 24 24 23 23 22 21 21 22 22 21 21 21 21 21 22 22 22 22 22 22 22 22 22 23 23 23 23 24 25 25 25 25 26
27 28 28 28 27 28 27 27 27 27 26 25 24 23 23 23 22 22 22 23 23 23 22 22 23 23 23 23 23 23 23 23 23 24 24 24 24 24 25 27 27 28 28 28

GEFSCGP_500_meanwind_210.txt.gz
Wind_Speed
5 6 5 6 6 7 7 7 7 7 6 6 6 6 7 8 8 8 9 9 9 9 9 9 9 10 10 9 9 8 8 8 9 8 8 9 9 10 9 9 8 7 7 7
5 6 5 6 6 6 6 6 6 6 5 6 6 6 7 8 8 7 7 8 8 9 8 8 9 10 10 10 9 9 9 9 9 9 9 9 9 9 9 9 9 8 8 7
5 5 5 5 5 5 5 5 5 5 6 6 6 6 7 8 7 7 7 7 8 8 9 8 9 9 10 10 10 10 10 10 10 10 10 9 9 9 10 10 10 9 9 8
5 5 6 5 5 5 5 5 5 5 6 6 7 6 6 7 7 7 7 8 8 8 9 9 9 9 9 10 10 11 11 11 11 10 10 9 10 10 10 10 10 9 9 9
5 5 5 5 5 5 5 5 5 6 6 6 6 7 6 7 7 7 7 8 9 9 9 9 9 9 10 10 11 11 11 11 11 11 10 10 10 10 10 10 9 9 9 9
5 5 5 5 6 6 6 6 6 7 7 6 7 8 7 7 6 6 7 8 9 8 8 9 9 9 10 10 10 10 10 11 12 11 11 11 11 10 10 10 10 10 10 10
5 6 6 6 6 6 7 7 7 7 7 7 7 7 6 6 6 6 7 8 8 7 8 8 9 10 10 10 10 10 10 11 12 11 11 11 11 11 10 10 10 10 10 10
5 6 6 6 6 6 7 8 8 8 8 7 7 6 6 6 6 5 5 6 7 7 7 9 10 10 11 11 11 11 11 12 11 11 11 11 11 11 11 11 10 10 10 10
6 6 7 7 7 8 8 8 8 8 8 8 7 6 5 5 5 5 5 6 6 7 8 9 10 10 11 11 12 12 12 12 12 12 12 12 11 11 12 11 11 11 11 11
7 7 7 8 8 9 9 9 9 8 8 8 8 7 6 5 5 5 5 6 7 7 8 8 10 10 11 11 12 12 12 12 12 13 12 12 12 12 12 12 12 12 12 12
8 8 8 8 9 9 10 10 9 9 9 9 8 7 7 6 6 6 6 7 7 7 8 8 9 10 10 11 12 12 12 12 12 13 13 13 13 13 13 13 13 13 13 13
9 9 8 8 9 10 10 10 10 10 9 9 9 7 7 7 7 8 8 8 8 7 8 9 10 10 11 11 12 12 13 12 12 13 13 13 13 13 14 14 14 14 14 14
10 10 10 9 9 10 11 11 10 11 11 11 11 9 8 9 9 9 9 9 9 8 8 9 9 10 11 12 12 12 12 12 12 13 13 14 14 15 14 14 14 14 14 14
11 11 11 11 9 10 10 11 11 11 12 12 11 10 10 10 10 10 11 10 10 9 9 9 10 11 11 12 12 12 12 13 13 13 14 14 15 15 15 15 15 15 16 16
13 13 13 12 11 11 11 12 12 13 12 13 12 12 11 11 11 11 11 11 11 11 11 11 11 12 12 12 12 12 13 14 14 15 15 15 15 15 15 16 16 17 17 16
14 15 15 14 14 14 13 12 14 14 15 15 15 14 13 14 13 13 12 12 12 13 13 12 13 13 13 13 13 13 14 14 14 15 15 16 16 16 16 16 17 17 17 17
16 16 16 16 15 16 15 14 14 15 15 15 15 14 15 16 15 14 14 13 13 14 14 13 13 13 13 14 14 14 14 14 14 14 14 15 15 16 16 16 16 16 17 17
17 18 18 18 17 18 15 15 16 16 16 16 16 15 15 16 16 16 15 15 15 15 15 14 13 13 13 14 13 14 14 14 14 14 14 15 15 16 16 16 17 17 17 17
19 19 20 20 19 19 17 16 17 17 16 16 16 16 16 16 16 16 16 17 16 15 15 15 14 14 14 14 14 14 14 14 14 14 15 15 16 17 17 18 18 18 18 18
21 21 21 21 22 21 17 17 17 18 18 17 17 16 17 17 17 16 16 16 16 16 15 15 14 14 14 14 14 14 15 15 15 15 15 16 17 18 18 19 19 19 19 19
22 22 22 22 22 21 19 18 18 19 19 18 18 18 18 17 17 18 18 17 17 17 16 16 15 15 15 15 15 15 16 17 16 16 17 17 17 18 19 20 20 20 20 21
24 24 24 24 24 22 20 20 20 20 20 20 20 20 19 19 19 19 19 19 18 17 18 17 17 17 16 16 16 16 16 17 18 18 19 19 19 20 21 21 21 22 22 23
25 25 25 25 24 22 21 22 22 22 22 22 21 21 21 20 20 20 20 20 20 19 19 18 18 18 17 18 18 17 18 19 20 20 20 20 21 21 22 22 22 22 23 24
26 26 26 26 24 23 23 23 23 23 23 22 22 22 22 22 22 22 22 22 22 21 21 20 20 19 18 19 19 19 19 21 22 21 22 22 22 23 23 23 23 23 24 25
25 26 26 27 26 25 24 24 24 23 23 23 23 23 23 23 23 22 22 23 23 22 22 22 21 21 20 20 21 21 21 22 23 23 24 24 24 24 24 25 25 25 25 26
24 26 27 27 26 27 26 26 25 25 25 24 24 24 24 23 23 23 23 24 23 23 23 23 23 22 22 23 23 23 23 24 24 24 25 25 26 26 26 26 27 27 26 27

GEFSCGP_500_meanwind_216.txt.gz
Wind_Speed
5 5 5 5 5 5 6 6 6 7 7 7 8 8 9 9 10 10 11 11 10 10 10 11 10 10 10 10 10 10 10 9 9 9 9 9 9 9 9 9 9 9 9 8
5 5 5 6 5 5 5 6 6 6 7 7 7 7 8 9 9 10 11 11 11 10 10 11 10 10 10 10 10 9 9 9 10 10 10 9 9 9 9 9 9 9 9 9
5 5 6 6 5 5 7 6 6 6 7 7 7 7 8 7 8 9 9 10 11 10 10 10 10 10 10 10 10 10 10 10 10 10 10 9 9 9 9 9 9 9 9 9
6 6 6 6 6 7 7 7 7 7 7 7 7 6 7 8 8 8 9 9 10 10 10 10 10 10 10 11 11 11 10 10 10 10 10 10 9 9 9 9 9 9 9 9
6 6 6 6 7 7 7 7 7 7 7 7 7 7 6 7 7 8 8 8 10 10 10 10 10 10 10 11 11 11 10 10 10 10 10 10 9 9 10 10 10 10 9 9
6 7 7 7 7 8 8 8 8 8 7 7 7 8 7 7 8 8 8 9 10 10 11 10 10 10 11 11 11 11 11 11 10 10 10 10 10 10 10 10 10 10 10 10
6 6 7 7 7 7 8 8 8 8 8 7 8 9 7 7 8 8 9 9 10 11 11 11 10 11 11 11 11 12 12 11 11 11 11 11 11 11 11 11 11 11 11 11
6 6 6 7 8 8 7 7 8 9 9 7 8 8 7 8 8 9 9 10 10 11 11 11 11 11 11 11 12 12 12 12 12 12 12 11 11 11 11 11 11 11 11 11
6 6 7 7 8 8 8 8 9 9 9 8 8 8 7 9 9 9 9 9 9 10 10 11 11 12 12 12 12 12 12 12 12 12 12 11 11 11 12 12 12 12 12 12
7 7 7 8 9 9 9 9 9 9 9 9 9 8 8 9 10 10 10 9 9 9 10 11 11 11 11 12 12 12 13 13 13 13 12 12 12 12 12 12 12 13 13 13
8 8 8 8 9 9 10 10 10 10 10 10 10 9 9 10 10 9 9 10 10 9 10 11 11 11 12 12 12 12 13 13 13 13 13 12 12 12 12 12 12 13 13 13
9 9 9 9 10 10 11 10 10 11 11 11 11 10 9 9 9 9 9 9 9 10 10 10 11 12 12 12 12 13 13 13 13 13 13 13 12 12 12 12 12 13 13 13
11 11 11 11 11 11 12 11 11 12 12 11 11 10 9 10 10 10 10 10 11 11 12 12 12 13 13 13 13 13 13 13 13 13 13 13 13 13 12 13 13 13 14 14
12 12 13 12 13 13 12 12 12 12 12 12 12 11 11 11 11 12 12 11 12 12 13 13 13 13 13 13 13 13 13 14 14 14 14 13 13 13 13 13 13 14 14 15
14 14 14 14 14 14 14 13 13 13 13 14 13 13 12 13 12 12 12 13 13 14 14 12 12 13 13 13 14 14 14 15 15 14 14 13 13 13 14 14 14 15 15 15
15 16 16 16 16 16 15 14 14 15 15 15 14 13 13 14 14 13 13 14 14 14 14 13 13 14 14 14 15 15 15 16 16 15 14 15 15 15 15 15 15 15 15 15
17 17 18 17 17 18 16 15 15 16 16 16 16 15 15 15 15 14 15 15 15 14 14 15 15 16 16 15 15 16 16 16 16 15 16 16 16 16 16 16 16 16 16 16
19 19 19 19 19 19 17 17 17 17 18 18 17 17 17 17 16 16 16 16 16 15 15 15 15 15 16 16 15 15 16 16 16 16 16 16 16 16 16 17 17 17 18 18
21 21 21 21 21 19 18 18 18 18 18 18 18 18 18 18 18 17 17 17 18 17 17 16 16 16 16 16 16 16 16 17 17 17 16 17 17 17 17 18 18 19 19 20
22 22 23 23 23 21 19 19 20 20 18 18 19 18 18 19 19 18 18 18 19 18 18 18 18 18 18 18 18 18 18 18 18 18 18 18 19 19 19 20 19 20 20 21
23 23 24 24 24 22 20 20 21 21 19 19 19 20 20 20 20 20 20 20 20 20 20 20 20 20 20 19 19 19 19 19 19 20 20 20 20 20 20 21 21 21 21 22
24 25 25 25 25 23 22 22 22 22 21 21 20 21 21 21 21 21 21 21 20 21 21 22 21 21 21 20 20 20 20 20 20 21 21 21 21 21 21 21 22 22 23 23
25 25 26 26 26 25 25 24 23 23 23 22 22 22 22 22 23 23 22 22 21 21 22 23 23 22 22 21 21 20 20 21 21 21 21 22 22 22 22 23 23 23 24 25
25 25 26 26 26 27 26 25 25 25 24 23 23 23 23 23 24 23 23 23 23 22 23 23 23 23 22 21 21 21 22 21 22 22 23 23 23 23 24 24 24 24 26 26
25 26 26 26 26 26 26 26 26 26 26 25 24 24 24 24 24 24 23 24 24 24 24 24 24 23 22 22 22 22 23 23 23 23 24 24 24 25 25 25 25 26 27 27
25 26 27 27 26 27 27 26 26 27 26 26 25 24 24 24 24 24 25 25 25 25 25 25 25 24 24 24 24 23 24 24 24 24 24 24 25 25 26 26 26 26 26 27

GEFSCGP_500_meanwind_222.txt.gz
Wind_Speed
2 2 2 3 4 4 5 5 6 6 5 5 6 7 7 8 8 8 9 9 10 10 9 9 9 9 9 9 9 10 10 9 9 9 9 9 9 9 9 9 10 9 9 8
2 2 3 3 3 4 5 5 5 5 5 5 5 5 5 5 5 7 7 8 9 9 9 9 9 9 9 9 9 9 9 9 9 9 9 9 9 9 9 9 8 8 8 9
2 2 3 3 3 4 4 4 5 5 5 5 5 5 5 5 5 5 6 7 8 8 8 9 10 9 9 9 10 10 10 10 10 10 10 9 9 9 8 8 9 8 8 8
2 2 2 2 3 3 3 4 4 4 4 4 4 5 5 5 5 6 7 7 7 8 8 9 9 10 10 10 10 10 10 11 11 10 9 9 9 9 9 9 9 9 9 8
3 3 2 2 3 3 3 4 4 3 4 5 5 6 6 6 6 7 7 7 8 8 9 10 10 10 10 10 10 11 11 11 10 10 10 9 9 10 9 9 9 9 9 9
4 4 4 4 5 5 5 5 5 5 5 5 6 6 6 6 7 7 7 7 8 9 9 10 10 10 10 10 10 11 11 11 10 10 10 10 9 10 10 10 10 10 10 9
5 5 5 5 5 6 6 6 6 6 6 6 6 7 6 6 7 7 8 8 9 9 9 10 10 10 10 10 10 10 10 11 11 11 10 10 10 10 10 10 10 10 10 10
6 6 6 5 5 5 5 6 6 7 7 7 7 7 7 7 7 8 9 9 9 9 9 10 10 10 10 10 10 10 11 11 11 11 12 11 11 11 10 10 10 10 10 11
7 7 6 5 5 5 6 6 6 7 7 8 8 8 8 8 8 8 9 9 9 10 10 10 10 10 10 10 11 11 11 12 12 12 12 12 12 11 11 11 11 12 11 12
7 7 6 6 6 6 7 6 6 7 8 8 9 9 9 9 9 9 9 10 10 11 11 10 10 10 11 11 11 11 12 12 12 13 13 13 12 12 12 12 13 12 12 12
8 8 8 8 8 7 7 7 7 7 8 9 9 10 10 10 10 9 9 10 11 11 10 10 10 11 11 11 11 12 12 12 13 13 13 13 13 13 12 13 13 13 13 13
9 9 9 9 9 9 8 8 8 9 9 9 9 10 10 10 10 10 10 10 10 10 11 11 11 11 12 12 12 12 12 13 13 14 14 14 14 13 13 13 14 14 13 13
10 10 9 9 9 9 9 9 10 10 10 10 10 11 11 11 11 11 11 12 12 12 12 12 12 12 12 13 13 12 13 13 13 14 14 14 14 15 14 14 14 14 14 14
11 11 10 10 11 10 10 11 11 11 12 11 11 12 12 12 12 13 13 13 13 13 13 12 12 13 13 14 14 14 14 13 14 14 14 15 15 16 15 15 15 15 15 15
13 13 12 12 12 12 12 12 12 12 12 13 13 13 13 13 13 14 14 14 13 13 14 13 13 13 13 14 14 14 15 14 14 14 14 15 16 17 17 17 17 16 17 17
15 15 15 14 14 14 14 14 14 13 13 13 14 14 14 14 14 14 15 15 15 15 15 15 15 15 15 15 15 15 15 16 16 16 16 17 17 17 18 18 18 17 17 17
17 17 17 17 16 16 16 15 15 15 15 15 15 15 15 15 15 15 15 16 16 16 15 16 16 17 17 17 16 16 17 17 18 18 18 18 18 18 17 18 18 18 18 19
18 18 19 19 18 18 17 16 16 16 16 16 16 16 16 16 16 16 16 16 16 16 16 16 17 18 18 18 18 18 18 18 18 19 19 19 19 19 19 19 19 19 19 19
19 19 19 20 21 20 19 18 17 17 17 17 17 17 17 17 17 17 17 17 17 17 17 17 18 18 19 19 19 20 20 20 20 20 20 19 20 20 20 20 20 21 21 21
20 20 21 21 22 23 21 19 19 20 19 18 18 18 18 18 18 18 18 18 18 18 18 18 18 19 20 20 21 21 21 21 21 21 21 21 20 21 20 21 21 22 22 22
21 22 22 22 23 24 23 21 20 21 21 20 20 20 20 20 20 20 20 20 20 20 20 20 20 21 21 21 21 21 21 21 21 21 21 21 21 21 21 22 22 22 23 23
23 23 23 23 24 24 24 23 22 23 23 22 21 21 21 21 21 21 21 21 21 21 22 22 22 22 22 22 21 22 22 22 22 22 22 21 21 22 22 22 23 23 23 23
24 25 25 25 24 25 25 25 24 24 24 24 24 23 23 23 22 22 22 22 22 22 23 23 23 22 22 22 22 22 23 23 23 23 23 22 22 22 23 23 23 24 24 24
24 25 25 25 25 25 25 26 26 26 25 25 25 25 24 24 24 24 24 23 23 23 23 24 24 24 23 23 23 23 23 24 24 23 23 23 23 23 24 24 24 24 25 24
26 26 26 26 25 26 26 27 28 28 27 26 26 26 26 25 25 25 25 25 25 24 24 24 24 24 25 25 25 25 24 24 24 24 24 24 25 25 25 25 25 25 25 25
26 27 27 27 26 27 27 27 28 28 28 27 27 27 27 26 26 26 26 26 26 25 25 25 25 25 25 25 26 26 26 26 25 25 24 25 25 25 26 26 27 27 26 25